GFSSGP_250_rhum_000.txt.gz
RH
100 100 100 88 88 66 63 83 100 100 100 100 98 80 62 43 46 45 46 38 39 45 43 39 34 29 28 32 32 30 27 24 20 23 21 16 11 10 11 15 23 26 34 73 66 68 58 42 46
100 99 98 100 84 100 92 77 100 100 100 100 100 98 70 70 100 73 44 38 38 37 37 38 37 39 36 34 31 31 26 23 22 23 22 15 11 10 14 25 38 46 88 92 76 61 59 63 57
100 98 78 88 100 87 53 56 69 100 100 100 100 99 75 68 70 48 37 35 38 36 38 36 32 33 37 31 34 34 30 28 26 26 24 14 11 11 21 38 81 89 85 94 64 92 100 100 85
57 100 92 87 74 79 100 100 90 92 85 100 100 97 71 70 60 50 37 37 38 31 40 41 35 29 28 33 35 35 34 32 29 27 25 14 11 14 28 54 88 65 75 81 100 99 100 91 66
39 80 98 90 75 70 46 97 98 99 100 100 91 86 72 65 50 50 46 40 35 34 42 42 34 24 22 21 26 29 29 28 28 26 23 12 12 18 34 82 99 64 100 100 100 100 98 87 58
49 58 78 91 90 81 63 46 59 74 93 87 62 55 61 80 66 44 50 38 38 47 44 37 28 22 17 21 21 25 23 23 25 29 19 12 14 21 46 80 49 80 100 100 100 100 96 59 63
84 61 76 74 96 100 70 45 42 61 71 72 53 64 99 100 60 48 41 39 48 67 63 48 33 20 16 20 22 23 22 24 30 27 15 13 18 23 32 74 100 100 100 100 99 60 66 73 76
100 79 89 99 67 95 94 81 56 100 100 88 71 88 77 54 38 48 47 40 50 56 47 32 25 21 18 21 22 21 24 28 32 21 14 14 22 29 34 57 100 100 100 99 65 100 100 98 55
40 85 100 100 96 95 88 88 90 92 87 73 59 62 54 45 36 59 58 53 61 49 31 26 24 21 21 24 22 23 31 36 31 16 12 15 22 31 40 84 100 100 100 100 100 100 95 68 81
32 41 77 95 91 84 83 82 99 89 71 63 59 54 54 48 47 58 57 48 40 31 26 25 21 22 23 24 29 36 40 40 23 14 11 17 22 38 72 100 100 100 100 97 100 98 100 79 53
32 37 37 68 88 90 78 73 78 80 86 80 77 48 66 68 62 56 53 39 28 22 23 23 23 25 25 34 46 53 47 33 18 12 11 18 26 62 77 97 100 100 100 100 100 100 81 57 51
42 43 32 34 59 79 96 87 76 65 72 71 73 83 84 67 55 42 31 23 20 21 23 24 25 27 37 61 66 56 44 22 19 10 14 23 32 68 100 94 100 100 100 100 100 83 64 66 62
45 48 38 42 78 92 94 86 81 70 55 51 62 53 45 37 30 25 22 20 21 22 24 28 31 51 63 74 62 51 26 24 15 10 16 28 40 73 91 98 100 100 100 90 98 80 72 70 66
53 52 42 40 51 61 68 64 61 56 52 42 39 36 32 27 24 25 22 22 22 23 26 34 50 74 74 60 50 31 30 23 11 12 17 28 49 98 100 96 100 100 94 96 87 76 86 73 63
48 47 48 42 42 43 42 40 41 39 32 31 33 34 29 26 26 25 21 21 27 28 39 56 73 60 55 48 36 32 32 17 14 14 18 35 69 67 78 92 93 100 89 83 91 88 72 69 57
42 42 48 45 42 40 40 39 33 30 28 29 32 30 25 22 23 21 20 24 27 46 90 83 76 63 55 38 34 29 28 20 18 18 22 32 54 71 85 81 86 93 85 81 74 63 56 58 80
38 38 49 44 41 43 46 32 34 26 26 25 23 20 19 17 18 19 24 27 45 91 91 86 70 63 46 37 31 30 31 24 25 22 23 33 46 57 70 70 68 61 58 49 52 59 72 85 79
36 39 44 40 46 48 44 34 38 27 26 21 18 17 16 16 16 22 32 34 90 100 99 85 66 48 36 26 22 29 33 32 30 28 23 28 36 46 50 49 42 45 58 67 74 86 76 69 61
38 52 41 35 44 46 42 32 48 27 25 19 18 17 17 16 18 27 35 56 96 100 98 77 59 37 30 25 20 21 34 39 40 37 35 31 34 37 44 50 55 65 92 91 73 62 57 42 37
43 45 36 28 41 44 42 25 46 29 25 19 19 19 17 17 20 27 42 86 97 91 91 68 51 41 31 29 23 22 24 33 44 53 58 61 64 71 84 92 95 92 80 75 64 44 48 49 45
38 36 30 27 40 47 46 23 34 25 22 24 22 21 18 20 22 31 36 60 93 100 94 70 62 53 38 27 26 27 29 36 38 46 64 76 80 83 85 84 75 70 65 53 46 54 54 59 66
38 35 24 27 40 50 43 30 39 28 23 26 23 21 19 20 21 21 29 36 72 95 87 80 74 54 44 34 31 29 26 25 28 38 42 51 58 60 61 61 65 65 54 57 66 64 60 56 48
38 34 20 24 38 51 38 34 37 37 34 26 21 22 22 21 20 19 19 22 27 62 75 83 82 81 57 40 37 33 31 30 30 29 33 36 38 41 46 53 58 59 66 68 61 57 56 58 67
36 28 20 24 39 46 32 39 26 37 37 33 23 24 25 24 21 20 17 18 22 30 56 79 93 100 88 66 47 39 38 37 36 38 41 43 45 50 55 58 61 64 64 66 72 77 79 78 73
32 25 22 24 35 43 30 42 25 40 36 34 29 29 30 29 24 23 21 20 19 21 29 56 75 97 86 91 94 74 56 47 47 48 50 50 56 61 63 64 70 80 89 88 86 82 78 74 73
28 27 25 27 40 45 36 51 24 37 37 37 36 31 29 31 26 23 22 23 23 20 20 24 27 33 47 63 90 96 95 86 67 59 58 60 58 63 74 87 98 95 88 79 70 72 76 73 69
24 26 28 32 44 46 44 49 29 36 41 39 39 34 30 31 27 24 24 25 25 24 20 23 25 25 26 30 33 39 60 84 91 99 94 94 91 99 100 100 95 81 69 69 68 59 59 59 52
28 29 30 32 46 49 36 42 36 37 42 42 42 38 36 33 28 27 25 24 23 24 26 27 26 24 24 25 27 28 35 51 59 75 88 95 100 100 99 85 78 78 69 57 56 57 53 49 48
28 28 32 35 42 46 38 38 40 38 36 37 42 40 38 34 34 31 29 26 26 25 25 24 26 28 29 29 32 32 31 31 45 69 88 96 96 92 78 71 72 65 61 60 53 51 50 46 41
26 26 28 32 38 44 46 39 40 40 37 34 33 35 34 36 35 36 34 30 29 26 24 23 23 24 28 30 29 31 32 34 42 72 80 89 93 80 84 66 66 67 59 53 50 48 40 40 40

GFSSGP_250_rhum_003.txt.gz
RH
73 98 100 100 99 99 68 59 82 92 100 100 100 100 97 93 92 73 53 43 44 40 34 34 35 35 36 36 35 36 38 37 33 27 26 23 23 22 23 21 13 10 11 19 27 35 53 100 75
65 100 95 100 100 99 100 61 49 100 100 100 100 98 100 91 90 90 53 77 100 46 35 33 36 33 30 32 32 30 31 36 34 31 28 25 26 26 23 21 13 10 15 30 41 56 100 100 81
82 74 93 97 100 100 98 100 97 69 71 96 100 100 95 98 100 98 51 34 40 34 32 27 27 35 29 27 26 25 24 21 25 29 28 25 23 21 22 20 11 10 22 44 50 98 100 98 72
73 86 78 86 100 93 91 100 99 66 75 97 98 96 81 100 100 99 85 42 36 30 26 26 30 32 29 27 29 26 22 17 16 19 23 23 21 21 21 15 10 12 28 67 100 100 97 58 70
100 90 91 78 100 96 84 76 100 100 89 50 52 72 85 100 100 100 70 49 33 35 27 37 39 31 32 27 26 30 28 24 15 17 19 21 21 23 19 12 10 15 34 83 98 62 82 100 100
99 100 92 88 88 100 100 74 73 87 100 100 100 100 100 100 100 98 58 46 56 64 38 34 38 32 27 32 34 36 30 20 16 17 21 24 26 23 16 11 12 19 39 100 79 89 100 100 100
57 100 100 100 95 100 100 85 62 53 60 70 93 93 98 99 99 69 47 52 78 70 38 38 34 26 22 28 34 31 24 20 18 22 25 30 33 22 13 12 14 20 74 65 76 90 100 100 96
20 71 100 100 75 71 78 100 82 78 64 52 51 55 58 52 55 51 50 37 51 51 32 36 32 31 33 38 35 27 24 18 21 26 32 44 32 16 12 14 18 22 37 98 100 100 100 84 79
22 19 32 93 100 86 52 54 83 61 73 65 53 51 45 38 43 72 57 46 36 33 28 28 33 38 42 37 23 20 20 26 29 40 52 40 22 13 13 17 22 25 29 92 100 100 100 100 100
25 24 21 33 94 95 73 62 64 80 99 100 84 62 56 45 55 74 50 46 38 26 34 45 45 44 38 21 17 20 27 28 44 56 50 28 18 11 12 18 23 29 37 81 100 100 100 100 91
28 29 34 26 40 97 95 92 69 66 81 89 85 95 88 78 60 53 49 41 34 42 48 52 34 25 19 20 21 25 38 49 64 56 38 21 18 10 13 18 25 35 67 100 100 100 100 100 100
27 36 41 29 24 44 99 100 89 80 99 75 98 80 94 78 69 66 60 64 58 53 34 27 20 18 19 23 27 39 51 64 57 43 26 24 16 10 15 20 28 57 82 100 100 100 100 100 100
21 39 44 36 24 26 40 56 97 96 73 95 96 98 80 57 52 46 61 53 42 32 24 19 20 20 22 26 42 50 64 51 42 29 31 21 12 11 16 20 28 73 81 96 100 100 100 100 99
22 34 41 38 25 27 32 38 58 82 87 98 95 91 81 68 51 54 44 35 27 22 20 20 22 23 24 39 48 60 52 42 32 28 27 16 13 13 18 26 42 69 85 90 94 98 100 98 100
20 25 40 31 31 30 32 32 48 45 80 91 97 84 77 63 48 39 32 26 22 21 21 20 23 26 42 60 65 58 52 40 35 28 25 18 15 15 20 27 49 82 100 100 100 90 82 78 69
19 24 35 36 35 33 35 32 47 50 78 72 66 55 42 37 27 22 21 22 23 22 20 25 26 54 85 76 66 48 39 32 28 28 28 21 21 17 20 29 54 66 87 75 76 77 80 82 81
20 20 34 32 36 36 37 42 42 48 54 40 36 32 27 22 21 22 20 20 19 19 27 27 58 85 82 69 61 44 33 31 33 32 30 28 28 23 21 24 38 51 47 54 52 48 54 56 55
20 22 30 32 34 40 43 46 39 40 37 35 31 28 26 24 24 20 17 17 17 23 30 52 97 83 82 70 49 34 28 29 35 36 37 33 33 31 25 27 30 35 47 49 49 47 52 62 72
23 22 28 34 38 43 47 46 37 41 39 34 28 25 23 21 19 17 16 16 24 36 43 99 84 91 99 72 42 34 30 25 26 33 37 40 42 42 38 36 36 40 44 48 60 76 89 95 82
25 23 28 35 40 43 46 45 40 44 38 32 26 22 20 18 17 16 16 18 26 49 86 99 94 92 84 59 51 46 35 26 26 28 29 36 46 52 55 60 64 68 74 84 94 93 91 83 67
22 24 31 41 38 42 52 45 47 43 37 31 24 21 20 21 17 17 18 24 28 37 67 67 100 88 80 75 68 58 47 36 33 32 30 28 32 43 58 65 69 73 72 62 57 59 58 62 62
21 21 29 42 36 49 48 44 45 43 38 29 23 22 24 23 19 21 20 23 23 27 31 61 79 81 81 71 77 76 61 43 40 38 35 34 31 32 33 37 42 41 42 46 47 49 57 65 74
28 48 40 34 37 48 46 40 43 45 38 27 26 24 26 24 20 20 21 22 21 21 22 24 30 35 61 80 77 77 75 67 71 67 61 46 42 41 41 42 42 43 45 50 57 64 69 60 56
23 32 39 34 36 46 45 40 37 45 32 27 27 27 25 23 24 23 22 22 22 21 20 19 19 20 24 31 40 43 54 50 57 69 65 61 72 75 70 67 66 65 61 59 58 59 64 66 75
32 41 42 28 37 46 41 36 31 42 44 41 44 38 36 27 26 27 28 26 26 24 23 21 19 18 17 16 15 17 19 20 19 20 23 26 26 27 34 46 66 90 97 92 89 95 98 95 84
37 35 31 24 39 44 41 35 26 39 50 49 46 45 40 32 30 31 30 30 28 26 28 27 25 23 20 19 18 16 16 17 18 19 20 23 28 29 30 30 33 42 56 80 90 93 92 79 68
36 37 27 30 46 40 37 34 28 32 45 45 39 36 36 36 33 32 31 30 30 31 30 30 29 24 23 22 21 19 18 18 19 20 24 26 28 27 29 32 33 46 68 72 75 80 80 80 78
32 29 27 39 45 35 31 29 23 27 41 42 37 36 39 37 38 38 37 39 37 34 34 32 30 28 26 24 21 19 20 20 20 19 21 21 26 30 33 36 47 67 87 92 86 82 76 77 68
30 25 27 43 39 31 27 28 28 27 38 41 38 40 40 39 40 41 39 37 36 36 34 33 33 31 29 26 23 21 20 21 21 21 22 27 33 36 42 54 72 92 93 86 80 73 72 59 52
31 34 31 42 38 33 30 27 34 34 38 38 35 37 39 36 39 39 38 32 29 32 31 29 29 30 31 29 25 22 22 22 23 24 27 35 40 46 59 87 100 100 85 80 82 67 56 49 40

GFSSGP_250_rhum_006.txt.gz
RH
96 96 59 93 100 100 100 92 62 81 62 94 100 100 97 100 100 71 87 84 87 78 49 40 38 39 36 32 31 30 29 29 32 31 30 28 28 29 28 28 26 25 22 22 21 16 12 16 27
98 100 85 74 98 100 100 92 81 44 90 87 100 100 88 88 92 91 100 100 100 84 59 89 66 36 29 29 27 27 29 29 24 25 25 22 17 19 25 24 25 24 20 18 19 13 12 22 32
70 100 96 78 75 100 87 100 100 99 91 76 79 100 93 95 100 100 100 100 100 91 72 45 31 28 25 22 21 22 24 28 26 23 24 26 27 18 16 18 21 22 19 20 16 11 16 30 48
29 100 100 83 97 99 90 88 100 100 100 84 87 80 85 90 81 85 93 97 100 100 87 62 43 37 23 22 20 21 22 24 24 26 25 25 25 20 15 17 19 20 22 18 12 11 20 39 56
14 96 100 100 85 94 79 92 99 100 100 100 100 90 91 61 68 60 44 55 100 100 99 68 44 38 30 34 23 22 24 26 22 20 27 29 26 22 16 18 21 22 20 15 11 11 24 74 100
19 16 93 100 100 89 91 78 100 90 96 100 100 100 94 64 56 44 64 100 100 100 100 69 42 39 26 28 23 26 27 24 19 20 26 24 26 20 19 22 26 26 18 12 10 12 25 98 91
20 14 16 94 100 100 100 97 83 82 96 90 100 100 100 100 97 94 100 100 100 100 94 54 43 33 28 27 28 27 27 21 30 34 32 17 16 16 21 28 34 24 14 11 10 14 30 88 66
22 18 16 13 64 100 100 97 100 94 74 80 95 84 82 100 83 92 100 100 98 78 56 45 41 36 28 29 25 27 30 34 35 32 19 14 18 25 36 41 32 17 12 11 13 18 56 83 100
22 20 22 19 15 65 100 100 100 100 100 93 94 72 59 76 70 69 66 66 59 56 38 40 50 40 32 30 24 34 40 30 23 19 15 20 24 32 50 38 21 14 12 16 17 20 60 90 98
19 21 27 30 20 21 87 100 100 95 100 100 100 90 47 43 48 47 42 40 42 44 34 36 40 35 38 42 49 44 32 20 17 16 19 31 41 51 46 25 19 12 12 18 20 23 47 100 100
17 20 26 30 28 20 60 99 99 94 100 100 100 100 95 46 43 47 59 64 60 47 40 48 41 52 63 54 40 29 20 17 18 21 28 51 55 48 28 22 19 10 12 18 23 27 30 74 100
14 17 22 29 30 22 28 69 89 100 96 92 95 84 70 68 63 63 98 92 59 60 54 64 55 51 52 35 27 21 17 19 21 31 55 59 48 30 22 22 14 10 13 19 24 29 37 82 100
16 17 19 25 27 23 22 28 40 73 90 85 66 70 70 79 68 65 72 74 74 70 72 48 41 43 34 25 19 18 18 21 33 49 60 50 37 26 23 19 12 11 14 18 23 31 52 99 100
21 17 17 20 25 23 22 24 26 26 53 84 87 78 87 63 73 60 79 75 78 70 58 50 40 32 22 19 19 19 22 29 56 67 55 45 35 34 30 20 14 12 16 21 24 29 44 86 98
24 19 18 17 19 24 23 25 31 29 21 53 97 99 91 81 75 70 86 84 71 65 59 43 26 20 20 19 23 24 38 55 73 61 44 40 34 34 29 22 19 16 17 21 28 36 56 60 65
24 21 18 20 16 22 25 35 39 27 24 32 52 75 89 90 85 83 78 81 67 52 32 21 21 19 19 25 28 75 76 86 71 55 36 34 34 34 31 24 24 21 17 20 27 36 58 91 100
23 20 21 20 15 20 25 40 38 25 26 31 34 53 69 78 84 84 67 52 39 24 19 18 17 18 21 30 68 89 87 77 70 39 29 27 29 31 34 31 32 30 22 21 24 32 51 61 57
30 25 25 23 18 18 25 36 31 29 32 32 42 70 82 78 62 46 33 26 22 21 18 17 18 26 34 56 96 93 86 88 44 32 29 25 29 30 28 33 38 38 36 30 28 30 33 35 36
24 23 22 21 20 20 25 37 31 32 34 37 64 72 65 44 34 27 25 24 22 19 17 19 22 34 63 78 88 94 100 80 46 44 39 30 30 29 28 31 34 38 47 50 48 47 48 49 52
16 19 21 18 23 18 26 34 33 31 38 39 57 52 44 35 29 26 24 22 19 17 17 18 25 65 91 80 95 100 90 72 70 63 57 41 36 35 36 35 33 32 36 41 50 61 71 74 74
14 16 24 19 23 23 26 32 28 31 41 36 46 43 37 32 26 25 23 22 21 19 20 24 27 61 75 86 85 84 76 71 72 81 79 65 54 54 50 49 49 45 42 40 39 41 42 47 46
19 22 27 22 23 22 26 36 31 24 34 38 41 40 37 28 25 23 28 23 26 23 20 19 22 26 30 33 33 38 52 65 70 71 64 63 52 53 60 60 60 64 69 71 67 66 64 69 70
27 26 29 51 38 30 25 33 27 26 40 52 41 40 35 26 24 28 29 24 23 22 21 19 20 21 21 20 19 18 19 19 19 18 19 21 20 20 20 21 20 21 21 24 26 28 28 26 26
36 27 31 31 27 29 30 41 32 32 46 54 41 39 34 26 27 32 31 27 25 22 20 20 21 20 22 23 22 20 16 16 16 16 14 15 15 15 15 16 17 17 18 17 17 18 20 23 24
13 21 24 32 44 48 23 30 29 40 50 54 42 38 34 30 32 32 32 33 28 25 24 23 25 23 25 27 27 24 23 20 18 17 15 14 15 15 15 16 15 15 14 14 16 19 21 23 29
20 24 23 26 19 23 20 31 28 43 57 51 41 39 36 35 31 32 33 37 33 31 27 26 29 30 29 30 30 28 26 24 23 22 21 19 17 16 17 17 17 16 15 16 21 22 28 37 56
31 29 33 54 27 40 39 41 40 47 56 47 40 37 36 36 41 48 41 36 35 33 29 32 35 36 35 34 30 26 25 25 25 25 24 23 21 19 19 18 18 17 22 26 28 35 49 82 94
47 45 93 72 31 31 40 46 42 48 51 44 42 39 45 49 48 43 39 39 41 41 41 41 38 33 32 32 28 25 24 25 24 23 23 24 23 21 20 20 20 22 30 35 50 79 92 95 87
55 66 55 55 36 44 47 40 42 50 45 43 47 49 51 49 40 38 39 40 38 43 44 40 34 32 30 28 27 26 26 24 23 23 24 24 23 21 22 22 24 30 42 66 87 88 81 75 75
54 34 30 31 33 38 44 47 50 45 43 40 43 44 44 37 37 37 38 39 40 39 38 36 33 28 27 27 27 27 24 22 23 25 26 24 23 22 23 25 33 51 67 78 92 87 67 64 62

GFSSGP_250_rhum_009.txt.gz
RH
39 54 98 100 98 71 73 99 100 98 99 89 90 80 70 73 76 68 94 100 100 91 85 93 87 74 53 51 48 36 26 24 25 26 26 25 25 24 24 24 22 24 19 22 26 25 24 24 25
26 64 100 100 99 100 82 55 94 100 100 93 88 84 62 66 88 82 99 100 100 100 100 100 100 81 87 68 45 32 26 22 20 19 21 22 21 25 25 24 22 22 25 19 17 19 22 24 23
17 26 88 100 100 99 92 64 63 100 100 97 92 86 46 52 62 92 100 100 100 100 100 100 100 93 81 60 52 38 27 21 18 18 17 19 22 22 22 21 23 22 22 21 16 15 18 19 21
15 15 20 50 100 100 100 96 78 99 98 100 100 89 74 61 69 76 86 100 100 100 100 100 100 96 100 90 67 44 31 21 21 24 21 22 28 26 21 19 22 23 21 21 18 15 17 20 20
15 14 14 16 60 99 100 82 94 96 100 92 100 98 92 77 67 72 86 100 100 99 86 69 100 100 100 100 82 54 30 30 25 22 22 27 26 22 22 22 25 24 16 18 17 19 25 23 16
16 17 17 16 14 75 100 97 100 86 100 100 88 95 100 96 89 86 86 88 82 66 58 76 100 100 100 97 73 37 28 26 24 22 18 19 21 25 26 21 23 16 15 17 22 31 28 17 13
14 16 17 18 16 13 60 100 100 100 88 91 98 93 72 97 100 98 86 86 91 85 88 100 92 100 100 86 49 36 32 30 26 24 19 18 33 32 19 18 17 16 23 29 38 32 20 13 12
12 13 15 20 24 16 15 98 100 100 97 76 95 94 83 84 71 79 100 100 100 100 100 100 100 100 91 75 47 32 28 26 26 26 23 29 27 20 16 14 18 24 40 45 44 23 15 12 13
14 12 17 18 23 25 14 49 100 100 100 100 85 87 79 98 93 63 50 100 100 95 87 98 100 82 56 45 38 30 30 29 30 33 34 29 23 17 16 22 27 46 50 52 28 18 13 14 14
14 14 17 18 18 23 16 13 44 100 100 100 99 85 80 91 94 78 81 53 74 93 89 76 68 51 42 43 35 38 38 37 36 41 31 25 18 16 18 32 55 65 56 31 21 16 12 16 17
18 17 15 18 17 20 19 10 16 60 99 100 100 100 74 91 100 88 66 66 78 71 61 57 50 44 58 48 43 41 38 40 39 35 25 20 16 21 31 60 68 54 32 25 21 14 12 19 21
18 19 16 17 17 16 21 18 19 21 47 96 100 100 89 82 100 99 100 95 85 63 52 44 41 58 66 63 42 47 46 37 32 22 19 18 17 25 55 71 55 36 32 27 18 12 14 18 24
23 19 18 17 15 17 16 23 24 23 18 38 91 100 99 78 100 100 100 100 93 89 54 58 73 58 58 60 47 51 48 31 20 18 20 22 26 52 80 62 43 30 26 26 18 12 13 16 22
26 22 20 20 18 16 16 22 23 26 29 21 52 98 100 86 93 96 97 97 100 93 70 72 63 47 48 55 60 52 32 21 19 22 24 32 54 83 62 44 37 27 31 26 21 16 13 17 20
35 28 24 25 22 20 16 15 24 28 33 27 30 87 100 100 95 91 87 81 66 77 57 63 58 60 75 65 57 36 20 19 24 30 51 69 84 73 51 32 29 28 32 26 25 22 17 16 19
42 35 29 36 33 24 14 18 27 26 29 32 27 44 63 82 87 87 78 72 67 70 83 56 59 65 68 59 26 18 18 21 28 58 84 96 87 54 29 26 27 29 31 32 31 31 27 20 21
72 52 38 38 36 24 14 19 23 26 26 33 29 26 35 32 30 76 87 84 79 88 82 58 70 70 51 24 17 18 25 31 62 95 98 93 60 38 36 26 26 27 28 31 32 34 36 34 26
56 46 46 50 42 26 17 17 26 22 23 31 30 26 32 26 26 28 66 97 97 92 95 81 65 35 21 17 21 26 34 72 90 99 99 92 67 59 52 36 33 31 36 35 32 31 35 40 45
68 51 39 43 39 24 23 18 28 24 21 28 32 24 36 31 28 38 58 87 79 64 50 34 26 19 16 20 24 32 67 100 100 100 100 92 79 74 65 56 47 46 43 40 41 40 38 35 36
70 58 54 53 39 26 29 18 27 24 21 28 30 23 36 28 27 60 82 63 42 34 28 22 19 17 20 23 30 74 100 90 91 92 89 73 73 67 64 61 58 52 52 53 56 60 61 57 52
67 51 58 55 48 28 25 17 27 23 19 26 32 25 33 27 43 75 56 36 31 28 24 20 19 25 29 25 39 58 58 50 40 45 49 50 47 40 34 29 25 21 21 24 24 23 25 26 25
62 86 85 52 47 35 27 20 26 26 21 23 28 21 32 32 61 58 39 32 29 26 25 27 31 30 25 24 23 24 24 21 19 19 18 17 17 16 15 15 15 14 14 14 14 14 15 15 15
61 50 55 54 47 32 26 18 29 27 16 21 23 24 40 43 55 46 36 31 27 27 27 29 29 25 23 22 22 23 22 21 20 18 17 19 20 19 19 19 19 18 18 17 16 14 14 14 15
35 29 35 36 41 29 32 19 34 22 22 29 21 26 41 49 50 41 36 30 28 29 30 28 24 23 23 23 22 22 21 21 23 23 24 25 24 22 21 20 19 18 18 17 14 13 13 15 14
14 21 25 26 36 48 28 25 42 25 25 24 20 40 43 48 45 40 35 30 30 30 32 31 26 27 27 24 23 26 28 30 29 26 25 24 23 22 20 20 19 18 16 15 14 14 13 13 13
13 18 24 44 70 89 48 28 42 28 30 22 27 41 42 47 43 40 35 33 35 30 33 30 32 29 27 26 29 32 33 30 27 25 24 23 21 19 18 16 15 14 14 14 14 14 14 15 15
11 15 51 96 100 56 80 31 30 26 29 29 43 50 46 45 43 40 36 37 37 30 29 30 28 32 33 37 37 38 31 28 27 25 24 23 22 20 18 18 16 14 15 16 15 15 17 20 26
15 32 77 100 100 85 44 30 27 28 43 40 57 52 45 47 44 41 39 40 34 37 38 35 36 38 38 40 37 32 29 26 25 24 25 24 24 23 21 17 16 17 18 16 18 21 24 30 39
17 55 100 100 100 95 66 25 24 25 47 45 52 53 52 48 43 44 45 39 46 44 40 39 40 39 41 38 35 32 31 28 24 26 27 27 27 26 22 19 20 22 20 19 23 28 35 42 51
96 100 100 100 100 77 40 26 24 42 54 52 52 56 55 49 42 43 42 49 45 47 43 41 42 42 41 39 37 38 34 26 24 26 30 33 32 28 22 22 24 24 25 29 32 39 45 53 52

GFSSGP_250_rhum_012.txt.gz
RH
14 16 43 63 96 78 87 100 95 100 93 100 96 91 64 64 85 91 95 90 72 62 51 98 100 89 79 83 81 76 66 55 44 36 29 23 20 19 18 18 16 17 22 24 24 22 23 26 26
16 14 15 32 66 88 76 98 100 100 100 90 88 87 85 73 71 91 100 100 92 75 69 75 99 87 95 100 97 93 76 57 44 33 29 25 19 18 17 17 20 22 25 24 25 22 23 21 20
14 16 13 15 39 100 82 83 100 100 100 100 92 73 94 87 82 72 83 98 99 89 89 82 100 100 100 100 100 99 92 82 71 61 56 31 22 21 18 19 25 27 29 27 22 21 20 26 24
18 16 16 15 17 81 100 95 100 100 100 93 100 99 100 100 95 86 78 80 91 100 100 91 93 100 100 100 100 100 100 100 100 83 43 27 23 21 22 20 17 19 23 26 25 20 19 20 18
13 16 16 20 18 17 72 100 100 100 100 100 81 100 97 100 100 92 86 80 80 90 98 100 100 100 100 100 100 100 98 77 95 79 46 29 25 24 20 19 20 17 18 21 21 17 17 17 18
14 12 14 18 20 17 18 43 100 100 98 97 100 90 100 86 100 100 100 76 82 91 98 100 100 100 100 97 100 98 99 90 89 65 42 32 26 23 21 19 21 20 19 21 16 14 16 21 31
14 14 13 15 17 16 16 17 58 100 99 100 100 95 100 79 80 88 100 95 77 84 93 85 86 88 100 98 100 94 81 99 90 66 52 31 24 23 21 21 25 27 24 17 16 19 24 44 48
13 14 14 15 15 15 17 16 13 46 97 100 100 100 100 95 77 91 65 99 100 100 100 98 78 87 100 100 86 91 100 96 55 44 36 26 24 26 24 26 26 24 18 16 22 26 49 58 56
20 16 16 15 15 14 13 16 14 13 17 90 100 92 98 98 96 99 97 60 60 89 98 99 100 100 98 72 84 98 99 72 50 36 31 30 32 34 32 29 21 19 18 22 32 58 65 61 50
23 21 21 17 14 13 10 15 18 16 13 28 72 100 89 91 100 100 97 85 74 55 53 57 55 94 100 98 84 69 68 55 46 36 33 43 38 36 37 21 17 18 21 39 59 68 64 43 30
26 26 22 22 19 16 12 13 20 27 16 13 25 91 100 100 100 100 87 74 81 91 84 66 46 48 68 79 76 65 55 45 43 37 42 44 34 40 26 18 18 22 32 61 72 60 38 31 28
28 31 30 25 21 21 18 12 16 27 32 17 16 24 100 100 100 100 92 78 88 100 99 90 72 56 60 62 72 74 63 58 48 40 41 40 40 30 20 19 22 27 50 70 56 42 32 28 24
28 30 31 32 24 22 20 17 16 19 32 21 18 15 54 100 100 100 98 80 64 76 94 96 81 74 74 75 63 58 62 50 48 49 42 53 39 20 21 29 40 69 69 55 42 37 29 29 26
30 28 23 27 29 25 22 20 15 19 29 22 23 15 18 49 100 100 100 100 100 78 87 85 97 100 99 84 63 61 69 52 54 56 58 43 19 20 26 39 70 74 56 36 27 24 25 31 27
36 30 24 22 26 27 22 20 18 23 21 22 25 22 20 24 47 84 100 100 100 91 100 91 100 100 100 87 79 67 52 61 59 53 48 21 20 27 38 72 82 65 32 27 25 25 29 31 31
35 30 28 32 32 30 22 25 24 23 19 20 24 24 25 30 20 23 52 100 100 100 94 88 88 83 93 88 66 69 63 77 57 53 21 21 35 57 73 81 74 54 48 33 29 27 28 29 28
45 37 39 45 47 40 27 38 31 24 21 19 22 23 24 30 28 23 33 90 100 100 98 97 94 78 86 73 63 76 76 73 48 23 22 29 60 78 96 88 86 79 67 52 43 40 38 38 36
60 38 43 48 54 41 30 33 38 26 22 18 22 22 25 30 30 25 28 74 77 96 98 92 83 86 90 94 74 78 72 39 21 22 27 65 83 97 100 97 84 73 70 66 57 51 47 50 49
61 45 51 60 70 56 36 33 33 33 23 18 21 22 26 31 27 26 28 47 48 49 62 67 73 84 100 94 77 62 23 18 22 19 57 86 91 87 95 85 66 61 57 50 46 44 38 31 33
82 54 58 66 71 70 66 61 40 39 34 20 21 21 25 29 25 25 27 27 32 43 54 56 67 87 66 49 29 19 18 22 20 40 85 69 48 47 45 47 40 31 21 17 16 16 15 14 15
87 62 67 78 80 65 67 57 43 46 42 23 25 23 24 28 26 26 28 29 35 43 62 78 59 41 28 22 19 19 26 24 38 48 39 28 22 20 20 19 20 20 20 18 18 18 18 18 16
85 72 78 89 94 61 44 42 33 40 39 23 22 22 28 27 25 26 28 29 40 63 75 46 34 27 23 21 28 36 32 29 28 24 23 22 21 19 20 21 22 22 20 19 18 18 18 17 16
70 64 65 69 69 66 46 31 42 39 35 27 25 25 31 26 23 25 29 36 62 71 51 36 30 28 33 32 30 28 26 25 24 24 22 21 20 21 25 24 23 21 19 17 16 16 15 14 14
47 50 43 47 53 44 61 38 52 42 43 28 24 25 28 24 24 32 32 44 67 60 39 35 31 31 30 29 28 26 25 25 24 23 25 28 28 26 25 24 22 20 19 18 17 15 13 14 13
36 47 47 47 48 27 62 31 56 65 56 29 26 31 30 24 24 35 37 54 65 49 38 34 32 32 29 28 27 29 30 28 28 29 31 30 27 25 24 23 22 22 22 22 17 14 14 13 12
17 21 20 16 19 25 53 29 79 93 51 24 27 29 23 24 23 36 45 62 57 45 38 34 34 33 30 30 31 32 31 30 31 33 35 32 27 25 24 23 23 23 24 21 16 14 15 14 13
8 7 17 15 18 20 35 51 100 54 23 24 27 28 32 23 25 39 52 59 50 43 38 34 37 32 32 34 34 31 33 34 34 36 33 28 28 28 24 22 21 24 23 19 17 16 16 16 16
6 10 8 13 20 30 49 96 73 34 33 29 32 32 34 25 29 43 59 55 48 42 39 36 38 36 31 30 30 35 37 37 36 32 31 30 29 28 23 23 23 26 23 19 18 18 18 18 20
4 8 17 26 42 80 82 92 82 68 40 42 37 39 33 29 36 44 54 54 48 44 41 38 42 37 32 38 40 40 39 36 36 34 32 31 34 32 26 24 28 28 23 20 19 21 22 25 30
15 11 39 67 99 94 98 100 82 62 43 40 33 36 27 37 45 49 53 54 50 46 42 40 42 37 43 47 42 42 39 39 36 36 35 38 39 30 25 29 31 26 23 21 23 26 29 34 36

GFSSGP_250_rhum_015.txt.gz
RH
30 25 21 18 17 15 21 40 62 100 100 100 100 85 65 53 79 71 94 95 69 53 58 54 48 45 44 87 99 80 68 76 78 75 62 47 40 33 32 40 25 20 18 18 17 17 17 21 23
18 16 14 13 13 15 24 55 100 100 100 100 100 97 85 70 78 81 84 100 100 77 64 59 54 48 44 48 100 97 89 100 95 86 69 70 64 69 63 49 30 22 19 18 18 17 16 19 24
16 15 12 14 14 14 17 44 95 100 100 100 100 100 98 93 87 98 84 86 100 100 90 71 60 57 50 51 72 100 100 100 99 87 87 97 96 82 67 49 36 24 20 17 20 18 17 18 17
14 15 14 14 17 15 13 18 54 100 100 100 100 100 100 100 100 100 100 87 84 97 100 100 82 66 56 63 62 91 100 100 96 100 100 100 83 74 77 55 44 33 26 23 19 17 17 17 18
12 14 13 14 16 15 14 14 17 61 100 100 100 100 100 100 100 90 86 100 93 92 100 100 100 88 77 89 89 95 100 100 94 100 99 84 95 78 78 64 53 38 23 22 19 18 19 22 22
13 13 14 15 13 12 14 16 16 17 95 100 100 100 100 100 100 100 100 100 100 100 99 100 100 98 88 92 100 100 100 100 100 100 100 100 100 95 72 44 33 26 22 21 25 26 21 18 18
12 12 15 16 15 12 16 16 18 15 23 100 100 100 100 100 97 100 99 92 100 100 100 100 100 100 92 93 94 100 100 100 100 100 83 70 65 87 69 44 34 25 20 24 27 27 18 16 17
16 13 14 16 17 17 14 15 16 18 17 30 100 100 100 100 100 100 100 95 90 98 100 100 100 99 91 68 69 78 71 88 100 98 67 91 96 80 51 42 34 29 26 23 31 22 16 17 20
22 21 27 26 18 16 12 13 13 15 17 17 19 81 100 100 100 100 100 100 94 97 93 82 84 100 100 100 100 100 100 100 100 93 87 90 70 56 46 39 38 34 21 29 28 18 17 22 36
22 24 28 28 24 20 13 15 14 14 16 18 16 17 29 98 100 100 100 100 100 93 83 78 73 71 76 83 94 77 55 65 84 96 88 74 61 54 47 44 38 36 36 37 21 18 22 30 58
20 24 24 28 26 24 19 18 16 15 15 18 17 14 14 18 97 100 100 100 100 100 92 89 95 91 68 57 59 63 54 53 57 55 58 64 55 53 48 46 37 46 43 32 19 24 41 62 62
19 20 23 27 25 26 22 21 21 16 18 15 15 13 17 16 17 38 91 100 100 100 100 100 100 94 82 64 64 61 60 49 49 57 53 58 52 43 54 49 48 37 39 23 25 39 66 59 44
27 25 23 27 24 25 26 21 21 21 19 17 15 14 16 18 20 18 20 68 100 98 92 100 98 92 87 93 87 81 84 79 70 65 66 68 55 57 54 43 59 47 32 23 39 60 59 38 32
38 33 30 29 33 30 27 24 18 25 27 21 18 14 15 17 23 24 24 32 80 100 100 84 100 93 94 86 86 93 98 89 83 75 74 74 77 61 54 55 50 30 26 39 52 64 48 34 27
38 39 34 32 34 29 28 27 26 29 24 26 19 16 13 14 23 27 29 32 57 100 100 100 94 86 84 77 73 68 64 78 83 76 88 78 81 62 60 58 35 24 41 72 78 68 63 51 42
40 36 37 43 38 33 27 28 31 27 22 25 25 19 15 13 18 26 28 30 28 63 98 100 100 100 100 100 100 79 100 100 71 81 83 94 73 58 61 32 23 47 77 81 85 74 76 68 63
49 45 41 41 38 31 28 27 32 23 22 23 24 22 19 15 16 21 26 28 30 34 47 83 93 100 100 100 96 93 87 86 90 95 96 92 78 70 34 20 50 75 100 100 100 86 70 62 54
40 39 43 45 47 39 39 31 34 25 21 28 26 22 21 18 18 18 20 30 31 30 27 29 37 68 99 100 100 100 100 98 93 90 89 83 77 39 19 41 73 71 70 74 61 44 32 25 20
47 52 46 50 52 47 47 38 35 32 24 30 32 24 23 22 18 19 19 30 32 31 27 29 47 75 93 91 100 100 100 94 92 92 90 67 26 21 28 62 56 38 34 30 24 22 23 23 23
55 52 52 50 56 49 54 47 40 40 36 32 44 32 26 26 23 20 22 28 32 30 28 26 43 66 80 92 98 100 100 100 96 68 40 19 23 30 48 40 26 23 21 22 25 24 21 21 20
61 49 55 50 60 46 52 58 51 42 45 43 47 49 35 30 27 28 24 28 32 30 26 25 28 36 71 91 97 95 74 46 34 23 20 31 38 34 29 28 23 21 22 24 25 24 22 20 19
68 55 47 45 54 48 48 52 56 45 51 63 70 69 49 35 30 30 30 33 33 30 29 25 26 37 63 89 67 39 30 23 20 28 42 36 29 26 26 24 24 25 25 26 26 24 23 22 20
47 59 50 50 54 51 46 32 65 51 50 50 58 62 61 39 33 33 30 30 30 29 31 28 29 43 79 58 38 31 28 31 38 37 33 29 26 26 25 24 25 26 25 24 24 23 22 22 22
52 59 55 51 54 33 62 30 58 72 67 75 58 47 49 34 32 33 33 29 32 30 35 30 29 63 65 42 35 33 38 34 32 32 28 27 28 28 28 26 28 30 27 24 24 22 21 21 20
51 52 44 40 34 26 52 36 44 76 75 77 63 61 46 41 31 32 31 32 32 30 32 29 36 70 51 38 36 33 33 32 31 31 29 32 32 30 30 32 31 29 26 24 23 25 22 21 22
33 35 33 34 34 34 57 24 32 70 89 94 85 71 50 36 32 31 30 31 29 30 36 31 42 65 45 39 37 35 32 30 30 31 30 34 32 34 35 36 33 31 29 26 26 27 24 24 24
34 28 39 25 20 23 25 25 30 49 88 93 77 73 59 39 35 34 34 34 30 35 36 32 49 57 43 42 38 36 33 35 36 31 33 32 36 39 38 34 33 32 30 28 30 30 25 25 24
10 9 8 7 7 7 13 19 26 62 92 88 82 92 63 40 36 35 30 37 34 37 37 38 52 51 44 42 39 39 38 36 34 35 39 40 40 39 36 35 33 32 30 30 34 26 27 27 20
4 3 4 6 9 9 11 14 34 79 93 79 75 87 66 42 40 36 35 35 43 44 42 52 58 50 44 42 40 41 42 42 38 46 50 43 42 40 37 35 34 33 32 36 29 27 28 22 21
4 3 3 6 7 9 11 18 34 59 70 66 72 64 57 41 37 32 33 34 47 56 53 58 56 50 46 44 42 40 43 43 43 52 50 43 41 39 37 36 34 34 37 32 27 28 26 21 21

GFSSGP_250_rhum_018.txt.gz
RH
47 46 36 25 31 38 33 37 29 23 26 31 27 31 57 68 45 81 99 89 77 69 57 55 55 56 48 46 49 49 44 60 88 87 71 65 83 87 52 51 52 45 39 36 35 29 28 25 23
41 44 44 40 35 38 32 31 29 27 26 29 37 41 42 89 63 97 97 100 88 82 77 67 60 59 54 51 49 51 50 48 66 78 67 91 89 94 74 72 78 65 47 40 39 39 36 32 30
46 40 38 30 27 26 22 20 19 22 21 26 41 38 100 100 100 100 100 100 99 90 81 79 77 64 65 60 50 46 46 45 50 67 78 99 88 90 96 99 86 61 47 47 55 48 38 28 19
26 26 22 17 16 17 18 16 15 16 18 19 38 52 94 100 100 100 100 100 100 100 98 85 83 84 78 69 64 61 54 48 48 61 60 86 100 96 100 97 79 64 58 66 54 43 31 27 25
18 17 15 14 15 15 16 16 16 17 16 18 40 100 100 100 100 100 100 100 100 100 100 100 92 95 100 93 82 82 77 66 56 49 50 74 100 100 99 92 95 91 77 47 51 55 36 30 25
13 14 12 15 15 13 13 15 16 16 15 15 17 55 100 100 100 100 100 100 100 100 100 100 100 97 92 96 98 86 83 78 75 76 87 98 100 100 100 100 95 70 51 61 58 40 34 28 23
16 19 18 19 16 14 12 12 14 14 15 14 15 17 54 99 100 100 100 100 100 100 100 100 100 100 100 96 99 98 93 82 68 71 72 88 100 100 100 91 74 65 59 49 45 42 36 28 25
21 19 26 25 20 15 13 11 11 12 12 13 16 16 17 97 100 100 100 100 100 100 100 100 100 100 100 100 100 100 97 87 76 58 66 61 66 100 95 91 78 58 48 47 42 35 36 28 27
23 24 27 25 21 16 11 11 11 11 12 12 14 16 15 18 57 100 100 100 100 100 100 100 99 92 100 100 100 100 100 100 96 100 100 94 72 69 66 58 63 62 45 44 36 35 33 30 38
23 27 26 26 25 22 14 12 12 13 16 14 14 14 16 15 16 81 100 100 100 100 100 100 98 88 100 100 100 100 86 80 78 90 96 91 86 64 57 58 47 43 42 44 40 37 33 37 34
27 32 29 27 26 26 24 20 18 18 15 16 14 12 16 18 18 21 75 100 100 100 100 100 100 98 97 98 100 95 93 93 82 81 78 75 68 58 51 48 48 49 51 51 48 44 40 44 25
34 30 34 29 22 19 20 22 24 23 24 16 14 14 14 17 18 20 21 26 56 92 100 100 100 100 100 100 100 100 92 85 89 87 69 62 69 62 60 64 69 69 57 55 52 46 45 32 30
36 34 34 40 28 20 17 18 22 26 26 21 17 14 14 15 17 19 22 22 20 25 42 93 97 96 98 90 98 100 100 89 86 90 80 80 85 83 89 90 76 60 55 63 58 54 38 31 52
44 42 40 40 45 33 22 18 15 28 28 26 20 16 14 13 15 17 19 23 23 21 18 28 74 97 97 78 85 96 100 91 85 93 96 94 90 97 88 83 62 56 62 83 65 43 26 54 58
51 43 46 44 43 39 31 26 24 25 21 26 25 20 16 13 14 16 16 20 24 21 22 19 17 22 58 90 89 86 92 88 76 87 91 85 77 69 94 84 68 64 76 81 55 27 42 68 64
68 54 42 48 48 43 32 36 30 25 21 23 24 21 19 18 16 16 17 20 22 22 21 22 19 16 32 78 93 76 70 59 63 74 83 82 89 100 100 75 80 77 72 66 28 42 60 64 67
81 63 56 44 41 42 37 31 37 27 26 25 28 26 23 21 19 19 22 20 21 22 23 25 26 23 30 62 90 92 91 84 90 96 100 100 100 100 90 88 85 83 71 32 37 48 41 46 37
83 65 52 48 52 47 43 34 43 38 27 27 26 24 23 23 26 21 24 24 22 24 24 24 28 26 22 21 47 76 86 96 100 100 100 100 100 100 90 87 94 76 29 34 50 28 24 24 23
94 59 62 58 59 50 41 34 42 46 32 30 31 28 25 22 25 25 24 27 27 25 24 24 28 29 25 21 19 21 21 32 54 91 100 100 100 98 86 98 66 27 29 41 32 23 24 25 24
73 69 59 51 56 51 56 38 42 48 53 41 39 35 30 26 25 27 25 27 29 28 29 26 28 34 30 24 22 37 47 94 100 100 100 100 100 90 87 50 22 35 38 29 28 25 24 26 27
77 71 74 61 54 44 43 41 37 51 47 44 41 44 38 34 29 27 28 26 28 30 32 30 29 34 34 28 26 44 64 95 100 100 100 94 77 55 27 26 37 36 29 28 27 28 26 29 28
66 88 93 92 76 54 42 34 41 44 53 54 55 49 44 44 40 34 33 30 26 27 30 33 32 33 35 31 28 34 39 76 84 87 61 42 29 31 40 38 32 29 28 28 27 29 29 28 28
60 69 70 74 58 62 58 24 40 48 53 64 81 63 56 62 86 58 38 38 30 29 32 32 34 33 32 31 29 30 50 68 79 50 34 26 43 44 38 30 30 28 28 30 32 31 33 31 32
63 64 56 48 51 28 42 22 29 58 76 73 93 78 60 69 95 95 81 40 37 32 33 36 33 33 33 31 29 34 54 76 51 36 34 42 40 32 30 31 30 31 31 31 32 35 37 35 32
53 41 30 22 22 14 27 26 30 52 100 85 98 92 72 74 75 82 74 52 41 36 34 38 34 32 33 30 33 37 71 64 41 35 33 37 34 31 31 33 35 36 33 33 36 38 36 34 31
21 21 19 20 19 17 19 19 26 37 74 98 93 93 82 78 84 76 64 57 45 37 34 38 37 32 33 31 35 46 75 56 42 38 34 34 33 31 34 36 35 35 33 34 40 39 35 32 30
33 28 34 19 18 17 18 22 33 33 48 60 94 89 93 77 89 82 65 58 49 43 38 40 39 34 34 34 36 55 73 56 44 41 37 38 35 35 40 42 39 37 42 42 40 37 35 33 33
23 22 19 12 11 10 11 16 24 31 53 55 81 93 76 77 86 76 71 68 46 44 42 41 40 36 37 37 41 60 70 56 45 44 41 40 41 39 39 39 44 50 48 43 36 36 36 34 31
10 9 7 5 5 5 6 9 22 28 46 61 78 80 75 73 77 83 85 83 43 43 40 42 41 39 40 41 44 62 68 56 48 47 46 42 44 44 45 42 45 49 49 39 40 38 35 30 28
10 5 3 3 2 2 3 6 8 20 32 55 62 68 68 71 93 81 82 67 37 42 39 44 43 42 44 47 48 61 67 56 50 48 45 42 40 42 44 49 48 48 49 46 42 36 30 28 29

GFSSGP_250_rhum_021.txt.gz
RH
31 37 31 32 36 46 48 54 38 27 28 34 38 31 30 32 39 41 74 88 82 55 50 61 68 58 55 43 49 53 55 58 52 46 47 46 60 62 54 89 94 81 63 56 44 42 41 34 26
34 41 40 39 42 45 41 43 48 37 30 33 33 36 33 30 31 34 39 77 96 87 74 69 69 76 63 57 46 47 51 55 52 50 48 48 44 49 44 87 96 79 79 75 65 56 48 35 35
33 39 47 36 47 53 42 47 48 41 34 38 35 29 32 31 26 29 44 83 100 100 99 91 83 78 81 71 59 55 52 46 45 44 43 48 46 46 44 59 100 100 83 79 81 59 45 42 41
56 40 39 50 56 50 43 42 32 35 37 38 34 27 27 29 31 33 58 100 100 100 100 100 98 96 85 87 85 68 59 48 44 46 43 42 44 43 44 53 66 100 95 79 65 59 73 72 43
47 46 36 33 38 36 31 29 33 30 25 23 23 23 20 21 28 40 95 75 100 100 100 100 100 100 97 91 92 92 83 73 64 53 49 46 48 46 46 46 71 96 100 100 100 99 80 64 42
36 30 22 21 22 24 25 25 24 24 20 17 18 17 18 19 23 34 42 100 100 100 100 100 100 100 100 100 97 97 99 90 77 72 68 62 51 48 41 56 75 84 98 100 100 92 79 52 45
22 20 19 17 16 15 16 18 18 16 15 15 15 17 18 16 16 20 31 46 79 100 98 100 95 100 100 100 98 97 100 100 96 92 89 86 79 61 51 44 72 88 100 96 90 69 54 50 42
20 19 20 18 16 14 13 13 12 12 11 11 14 15 16 17 17 16 17 94 98 91 100 100 100 100 100 100 100 100 100 100 100 99 95 93 93 85 77 96 100 70 72 60 59 57 49 43 39
24 23 25 20 17 14 11 12 14 16 15 11 11 14 15 15 16 17 16 18 68 99 99 96 100 99 97 100 100 100 100 100 100 100 100 100 97 98 100 95 82 70 70 68 70 56 46 45 54
24 28 30 23 20 18 13 12 15 20 18 15 13 12 13 14 15 18 19 18 21 50 98 95 92 97 98 97 92 100 100 100 100 100 100 100 92 89 84 85 100 99 92 75 60 56 55 64 61
33 41 34 29 25 21 17 19 19 21 20 16 13 11 13 13 13 15 20 23 19 17 83 100 90 89 89 94 87 90 100 100 100 100 100 100 100 90 82 83 76 70 68 70 72 68 71 66 59
45 43 43 36 28 24 21 21 22 21 27 18 15 13 12 12 12 13 15 19 23 20 19 56 99 84 87 87 89 83 74 79 92 85 94 90 95 98 86 86 92 92 84 87 86 83 70 60 66
50 46 47 47 41 32 25 24 24 23 24 20 16 18 18 14 12 12 12 15 19 22 19 16 23 84 100 100 93 78 86 84 78 80 77 76 75 97 92 91 95 98 94 94 86 70 57 70 73
58 46 46 46 44 37 31 28 24 29 21 17 15 17 20 22 20 13 14 14 16 18 21 20 20 26 60 71 87 94 92 90 84 70 71 79 82 97 98 97 90 98 95 88 75 61 70 81 81
90 67 56 48 45 47 40 36 34 32 28 21 16 16 19 22 22 24 17 15 16 17 18 19 20 21 20 20 24 31 42 58 64 64 62 60 66 78 87 84 81 81 82 89 83 78 83 85 74
85 100 81 60 51 47 41 46 37 35 36 36 26 20 17 19 24 26 23 22 19 17 17 17 18 22 24 23 18 19 16 18 26 39 49 56 54 52 59 73 89 74 89 100 96 100 91 86 75
100 100 96 85 70 63 55 40 44 34 34 36 37 32 27 24 24 26 27 26 23 22 19 17 19 20 21 24 25 22 19 16 16 35 45 62 65 62 69 94 100 95 100 100 100 100 97 76 38
94 100 100 100 96 84 77 52 51 40 35 34 33 34 36 34 28 24 24 28 30 24 21 17 18 20 22 24 25 25 26 22 22 18 47 78 92 100 100 100 100 100 100 100 100 100 84 41 33
94 100 100 100 100 98 72 47 56 52 45 51 41 36 35 36 30 24 23 24 29 30 24 23 21 18 21 24 24 25 28 37 25 18 20 20 31 54 73 100 100 100 100 100 100 85 40 37 32
74 82 99 100 99 69 62 40 50 55 51 55 50 40 41 43 39 31 25 26 26 28 29 26 24 24 22 23 26 27 29 30 26 21 20 28 65 100 100 100 100 100 100 94 58 31 36 38 27
90 88 82 81 86 84 68 58 75 78 58 50 61 59 53 50 47 42 33 27 26 26 29 31 27 28 27 24 26 28 28 33 30 27 26 40 72 100 100 100 94 76 59 33 29 39 36 28 28
97 98 72 48 42 51 64 50 63 72 68 60 59 58 59 62 53 47 42 34 30 28 29 33 32 29 30 28 27 27 30 34 34 28 27 42 49 90 96 72 44 34 28 38 41 36 30 28 28
63 62 58 56 55 46 47 38 51 100 95 100 90 70 56 59 60 57 52 40 32 29 30 34 38 32 32 32 28 46 40 37 34 30 29 35 60 83 72 38 37 39 44 44 36 30 30 30 31
60 55 49 46 44 32 44 41 40 68 100 100 100 87 67 65 63 61 62 45 38 33 37 37 42 40 34 35 38 37 44 43 36 32 33 44 63 74 45 40 51 49 37 33 32 33 33 37 39
62 63 58 51 47 38 42 45 43 58 79 88 91 69 68 57 69 60 64 56 44 47 56 49 40 40 36 36 40 36 30 32 37 35 38 54 72 59 42 39 39 37 37 37 36 36 39 42 42
72 56 53 36 36 34 36 22 34 60 41 55 70 74 57 50 58 62 63 62 46 70 81 78 57 47 41 38 43 39 35 32 36 38 41 65 73 56 46 39 37 39 40 36 38 42 42 40 40
68 63 49 32 27 17 19 17 19 25 25 29 42 100 78 60 71 74 68 61 48 67 74 74 61 55 47 42 45 40 38 35 36 42 44 70 71 60 51 46 42 41 40 42 42 45 48 43 42
43 31 24 18 13 10 10 15 26 37 14 13 36 72 96 66 74 66 80 75 55 62 68 61 60 64 53 45 46 43 40 36 36 44 46 65 72 63 54 51 49 45 46 45 45 45 43 43 41
26 18 12 7 6 5 5 8 14 29 18 16 32 65 97 72 70 90 79 96 70 68 68 58 50 62 53 46 44 45 40 39 41 45 47 69 74 66 58 54 53 49 47 47 45 45 44 44 43
57 45 23 8 6 3 2 4 7 13 18 17 25 42 80 70 63 84 85 98 87 84 86 61 51 57 55 48 45 48 42 44 44 47 52 69 78 69 60 55 52 51 50 49 49 46 47 47 48

GFSSGP_250_rhum_024.txt.gz
RH
29 34 40 30 25 44 41 28 26 24 31 40 31 30 36 35 38 43 51 62 68 58 49 45 41 39 44 50 52 44 52 52 46 46 59 74 69 61 42 42 41 45 46 71 88 70 59 60 52
32 31 35 33 34 34 43 39 33 30 34 36 42 37 32 30 32 32 33 44 54 62 55 53 60 60 54 54 61 64 55 59 60 56 56 53 53 47 46 44 47 50 47 56 100 82 66 63 55
23 29 31 27 28 36 31 31 34 29 26 29 29 30 36 32 24 26 33 35 36 54 65 58 52 63 61 51 64 74 71 61 66 63 58 56 52 50 48 44 46 47 45 46 80 100 95 80 53
26 27 30 32 37 33 29 27 28 33 30 28 27 30 28 38 32 28 27 31 37 41 46 60 78 67 80 75 67 80 86 74 70 70 71 64 59 49 46 41 40 42 43 43 52 56 90 100 100
35 38 40 42 35 38 32 27 27 27 26 27 26 25 26 32 38 34 32 31 34 39 43 45 54 92 98 95 88 94 94 93 79 70 76 77 68 58 50 43 39 42 46 43 50 62 65 72 94
51 49 44 57 48 46 40 36 31 23 20 23 26 26 30 31 36 37 38 36 36 37 44 56 81 100 100 100 100 100 100 100 93 88 82 76 77 76 70 60 49 50 59 57 52 64 87 92 80
71 67 60 58 63 51 40 35 36 33 29 25 30 29 30 29 31 27 27 29 29 28 42 71 96 100 100 100 100 100 100 100 100 97 93 88 79 79 79 81 75 72 67 82 92 100 100 81 68
74 59 68 52 44 41 33 29 28 24 20 18 20 23 25 24 23 22 21 19 19 21 30 38 100 100 100 100 100 100 100 100 100 100 100 100 99 94 90 89 95 100 100 96 100 100 90 88 73
65 55 43 37 30 26 23 20 19 16 15 15 15 16 16 17 17 17 18 18 18 18 19 24 34 53 97 100 100 95 100 98 99 100 100 100 100 98 91 100 100 100 98 87 98 85 97 99 85
50 37 32 27 23 22 19 18 17 16 15 15 14 14 13 12 11 12 14 16 18 19 17 17 18 25 36 58 88 100 100 100 100 100 98 96 100 100 100 100 100 100 100 98 93 99 91 88 78
56 44 34 29 25 22 18 17 17 17 17 17 13 13 15 14 12 11 10 12 15 16 17 16 16 16 46 58 69 73 100 100 100 100 96 99 99 98 100 100 100 99 96 100 86 87 88 91 94
67 56 45 45 37 35 25 20 21 19 21 16 14 15 16 18 16 14 13 11 12 14 15 14 15 16 18 33 72 87 81 85 94 99 97 89 88 90 86 86 80 83 85 91 75 80 99 98 93
70 67 56 59 56 42 33 29 26 30 29 23 19 19 22 20 18 17 14 12 13 14 13 14 14 16 16 18 38 91 89 77 72 74 75 75 74 69 70 76 77 79 87 83 76 73 91 94 84
76 73 65 62 72 56 48 37 33 36 27 26 26 26 25 22 21 22 21 20 18 15 15 14 14 14 16 18 18 27 81 100 94 72 63 58 60 52 52 70 67 68 70 77 83 74 89 87 83
66 73 63 64 73 87 62 44 42 39 33 35 28 28 28 25 22 20 20 24 26 25 20 16 15 14 14 17 20 22 21 22 58 99 98 92 90 89 79 69 66 58 60 69 73 65 67 86 96
68 60 58 68 67 81 95 64 51 46 42 40 36 32 35 33 25 20 18 22 25 28 25 23 17 15 16 17 19 22 26 22 20 22 38 37 25 27 27 25 26 32 41 48 58 77 89 96 100
86 66 59 53 72 74 82 98 69 61 46 43 42 36 38 38 38 31 24 21 24 27 28 26 22 18 14 16 18 21 22 22 22 21 20 19 18 16 14 16 28 62 81 85 92 97 100 98 100
87 76 70 60 74 73 71 90 97 74 60 54 43 40 38 40 43 37 35 28 27 27 26 23 26 24 20 16 16 18 20 22 22 22 23 22 21 20 19 18 27 38 52 77 100 100 100 100 100
92 88 79 86 89 91 77 81 100 100 90 76 50 38 38 36 41 40 36 36 32 34 31 23 21 24 24 22 21 18 18 32 30 25 24 23 23 26 23 18 18 30 63 87 94 99 100 100 100
98 96 94 99 98 89 86 96 100 100 100 94 92 73 56 51 44 46 39 34 33 34 34 30 24 21 22 23 22 20 20 30 63 64 40 24 22 25 24 21 24 41 73 95 100 100 100 100 99
100 87 99 88 89 86 75 74 100 100 100 100 100 97 76 66 63 52 46 39 32 32 34 32 27 25 21 21 24 23 22 23 30 37 36 29 25 27 26 27 27 43 53 92 100 94 80 60 41
92 94 89 80 82 82 72 47 69 86 100 100 100 100 96 87 82 78 52 52 45 38 36 32 28 26 23 22 23 26 24 27 30 45 45 33 30 30 29 30 29 36 38 80 81 65 41 30 34
77 87 84 72 72 68 66 49 46 66 82 100 99 88 80 80 76 76 69 57 52 44 41 40 32 30 26 22 23 26 28 40 56 45 43 41 33 36 33 33 32 30 44 74 64 41 38 56 54
97 95 89 83 71 45 52 40 33 44 57 77 80 79 72 70 68 68 59 58 61 54 52 49 44 36 30 28 25 26 30 48 62 80 55 44 36 39 39 35 33 36 49 65 51 40 51 47 40
80 77 62 54 54 51 47 45 45 55 50 52 58 63 58 54 56 64 60 70 77 69 62 55 51 41 34 31 32 31 33 61 66 75 78 67 45 44 43 38 38 40 47 61 47 40 43 44 44
74 68 64 57 56 52 46 46 41 50 49 47 36 39 51 61 48 54 73 78 75 78 61 70 56 46 39 34 38 43 42 46 60 76 77 69 57 49 39 41 39 43 49 62 50 44 42 43 44
81 75 67 56 51 36 35 37 35 33 33 34 32 45 52 60 58 55 74 92 90 86 57 68 63 48 43 44 46 55 55 47 52 67 72 60 47 42 42 41 41 45 58 65 60 49 48 49 50
74 63 57 54 40 30 25 14 14 18 13 19 27 29 44 60 69 66 65 86 89 83 63 62 69 53 46 72 77 76 68 57 48 54 55 54 51 47 43 41 40 43 57 67 64 58 54 54 53
66 61 53 54 43 22 10 11 10 8 7 8 12 18 24 42 59 69 67 79 86 79 71 67 69 56 50 73 76 80 80 72 66 54 55 56 50 48 48 41 38 42 57 66 70 66 61 57 56
76 70 64 44 28 18 8 11 2 2 3 4 8 9 13 18 33 39 48 58 76 87 79 87 62 58 60 76 70 68 71 76 68 65 56 60 57 52 49 40 40 46 54 70 76 74 70 63 57

GFSSGP_250_rhum_027.txt.gz
RH
34 32 27 26 33 45 49 51 44 35 31 27 30 28 27 25 22 24 32 34 44 54 44 36 37 32 40 38 34 38 34 27 28 28 35 47 42 37 41 41 42 46 41 34 36 37 36 38 97
29 31 30 26 24 30 39 35 38 37 36 32 31 30 30 33 40 33 33 34 32 36 45 44 42 44 37 34 40 38 40 36 37 38 38 43 53 50 43 44 46 42 41 40 39 42 45 41 46
23 26 26 27 26 27 24 28 33 35 37 33 35 31 31 28 31 39 32 35 31 32 34 36 33 43 46 46 41 42 48 46 43 49 53 53 51 55 59 53 48 47 44 44 42 45 48 47 50
26 23 23 23 28 29 30 31 38 36 32 34 32 32 27 27 27 35 38 35 31 29 32 29 31 38 41 44 50 59 54 59 65 59 66 74 72 62 58 63 59 55 54 52 48 41 41 42 46
28 36 30 24 33 22 25 28 30 31 29 32 37 34 30 30 32 27 27 29 38 36 31 29 29 30 45 61 56 62 78 88 87 78 79 73 86 84 79 73 71 72 66 60 54 50 46 46 55
40 34 39 50 32 27 27 23 25 27 27 27 28 26 27 28 27 32 31 35 35 36 42 37 30 34 47 66 73 76 89 98 94 94 94 94 93 94 88 85 84 78 69 60 54 59 59 58 66
60 61 56 48 43 32 26 21 24 22 27 27 24 31 25 30 34 31 31 38 42 38 45 47 43 41 45 57 82 94 100 98 97 100 100 100 98 100 95 91 85 82 76 76 73 69 72 86 98
68 62 66 78 79 55 32 27 31 34 29 26 31 34 26 35 34 27 28 36 40 41 42 43 44 45 42 45 63 93 100 100 100 100 100 100 100 100 100 100 100 98 91 90 97 91 100 100 89
73 65 81 91 60 59 49 65 54 57 47 42 37 35 32 30 28 25 26 26 29 32 32 34 36 38 39 38 39 52 56 98 100 100 99 100 100 100 100 100 100 100 100 99 93 96 100 100 100
80 80 98 86 72 71 65 65 54 49 46 38 30 26 21 19 21 19 16 15 17 22 24 24 25 23 21 22 23 23 31 59 100 100 100 100 100 100 100 97 100 100 100 100 100 100 100 100 100
94 100 92 86 77 69 65 58 53 47 42 32 27 20 19 17 16 14 14 13 13 13 16 17 18 18 18 17 16 16 19 29 46 92 100 100 98 92 99 100 100 100 100 100 100 100 100 88 76
71 85 87 73 67 64 61 50 45 39 30 22 20 18 18 17 15 14 14 13 13 14 15 12 12 13 15 17 16 17 18 19 26 34 33 56 80 91 100 100 100 99 100 99 90 80 76 68 64
84 71 74 79 75 68 64 53 44 35 30 23 18 16 19 19 18 16 15 15 17 20 19 18 14 12 11 15 16 17 18 19 18 23 51 59 78 88 86 88 91 92 88 78 75 69 65 57 52
87 71 69 69 74 75 65 54 50 45 33 29 28 27 22 20 19 18 19 18 20 19 19 19 18 15 13 13 14 15 16 20 21 22 29 46 75 80 75 74 72 75 66 61 62 50 63 67 60
88 77 74 75 75 70 68 63 61 59 50 45 39 36 34 32 29 26 27 24 24 22 22 21 20 18 15 12 13 15 15 17 20 23 21 21 52 100 100 100 99 96 85 82 70 70 48 41 34
88 94 88 82 80 68 70 79 62 69 79 69 44 43 40 38 35 32 29 25 24 25 24 21 19 19 18 16 13 12 15 17 17 18 19 20 21 22 24 29 45 71 62 57 33 20 14 33 53
95 100 100 100 95 71 60 69 66 64 75 95 77 58 54 48 44 40 34 31 28 27 27 23 19 16 16 17 17 18 17 14 15 15 15 16 19 23 25 23 23 20 18 16 16 16 19 32 53
92 97 100 100 100 91 69 63 59 60 63 80 100 90 72 61 58 49 43 34 31 30 31 33 27 20 16 14 17 22 21 19 16 15 14 16 18 21 21 21 23 22 22 22 23 18 16 17 29
96 90 92 95 90 80 68 59 70 59 57 63 81 100 100 78 70 63 59 44 38 33 32 32 35 31 23 18 17 18 21 24 21 20 18 17 17 20 21 21 22 22 21 24 23 20 18 22 47
99 95 91 86 83 72 79 74 67 66 59 62 76 83 91 93 77 69 64 64 54 38 34 33 31 32 30 27 24 22 21 24 29 28 23 20 18 19 24 23 27 24 22 23 24 22 23 24 35
100 96 96 88 84 82 77 74 73 67 72 86 97 100 100 98 98 77 68 73 80 70 50 43 39 34 30 30 31 26 25 22 24 26 26 25 28 28 42 36 45 36 25 25 25 23 24 26 28
100 100 95 91 92 96 96 74 77 78 81 97 100 100 100 100 100 100 84 83 85 86 66 52 52 44 39 29 31 31 27 24 25 26 29 28 30 44 52 65 65 38 27 28 28 24 25 27 27
100 100 97 96 94 91 96 83 82 96 97 99 99 81 74 94 100 100 100 89 71 81 94 82 67 54 46 42 34 32 30 28 26 25 29 33 30 42 51 61 59 51 43 34 30 27 26 27 30
100 100 100 100 98 90 94 76 70 92 82 88 85 75 76 64 63 68 87 98 89 80 85 100 90 81 59 49 43 40 34 32 28 27 28 32 36 41 46 47 67 71 51 38 35 32 29 28 33
100 100 98 100 99 96 80 70 73 96 48 58 58 65 65 63 52 56 60 61 78 78 80 82 93 95 69 60 55 50 43 40 38 32 31 35 41 54 64 74 76 72 61 44 42 38 32 32 39
100 100 100 86 75 64 47 45 46 51 57 39 33 37 40 43 56 64 60 62 72 76 74 84 83 71 80 74 78 64 56 49 45 64 57 56 62 68 73 74 76 91 77 60 52 50 35 36 44
76 57 50 45 46 48 61 70 68 71 58 41 24 21 24 32 35 42 50 53 53 54 58 66 65 65 78 96 78 68 60 58 62 61 46 43 65 77 96 81 73 93 98 85 72 54 38 40 45
55 65 70 81 86 88 72 56 53 28 24 24 24 19 20 19 30 37 36 40 41 44 46 52 62 62 77 92 81 78 69 82 74 62 55 62 69 65 68 77 81 91 98 89 59 46 45 45 43
85 100 93 86 73 63 51 53 22 13 10 11 11 10 10 16 18 33 44 50 52 39 45 53 60 73 89 100 95 85 78 80 70 64 85 84 80 82 67 66 64 74 84 74 53 48 50 46 44
99 93 68 70 68 60 53 41 25 16 8 5 6 7 7 7 14 19 30 45 57 59 52 63 59 60 80 100 95 92 83 86 69 75 83 81 80 81 76 60 52 53 57 60 57 55 50 48 46

GFSSGP_250_rhum_030.txt.gz
RH
62 60 52 47 44 40 42 41 42 36 36 32 36 30 26 26 20 20 23 23 23 22 17 14 13 15 20 16 17 23 26 26 22 24 25 23 20 22 28 34 40 38 39 38 35 38 37 36 34
58 56 50 43 43 41 38 36 34 36 36 42 36 34 32 26 28 26 21 22 20 20 22 25 30 23 24 32 33 32 29 34 34 34 31 32 27 28 29 31 40 44 43 45 48 44 36 36 37
47 49 47 42 37 38 37 33 26 28 43 41 38 36 34 30 42 34 33 32 34 33 30 28 29 31 28 28 37 41 42 43 44 44 46 49 44 42 38 40 42 52 54 54 51 49 48 45 38
42 44 38 31 35 35 32 28 30 30 23 26 31 36 34 36 36 36 31 33 36 32 35 33 37 35 37 35 30 33 34 46 56 69 60 56 65 72 69 58 62 64 73 69 64 61 58 58 56
32 35 36 26 30 28 31 25 26 30 29 30 26 28 20 30 40 40 34 33 35 39 37 39 41 38 34 30 36 35 39 48 55 58 62 74 78 79 89 91 81 79 81 84 77 71 67 69 66
40 32 28 30 27 27 26 26 24 32 27 26 28 24 22 39 35 37 37 39 38 37 31 28 28 32 34 35 37 34 37 48 60 83 87 87 85 94 95 96 94 86 88 95 92 85 83 75 68
39 38 34 30 37 31 36 27 25 28 22 28 27 28 26 32 32 32 34 35 39 37 35 31 31 28 28 29 33 38 39 38 53 71 89 99 100 100 100 95 96 98 92 98 99 97 93 90 81
53 45 35 54 58 44 34 27 28 31 33 29 25 30 17 27 53 35 27 26 26 30 34 33 31 28 27 31 35 38 40 42 42 58 90 100 100 100 100 100 100 100 100 99 100 100 100 99 95
64 45 51 67 55 61 34 27 36 30 32 29 38 30 22 20 31 28 32 31 25 23 23 27 24 26 27 32 36 45 49 50 50 50 60 77 100 100 100 100 100 94 100 100 100 100 100 100 99
81 69 98 82 59 55 50 39 38 42 46 33 42 40 40 27 47 44 38 32 28 24 21 20 25 25 26 29 34 38 40 44 48 49 48 46 49 84 100 100 100 100 100 100 100 100 100 100 100
99 100 99 82 69 62 63 55 52 45 49 50 51 48 55 59 55 45 38 37 31 25 21 17 17 16 15 14 16 22 27 31 32 33 34 37 38 36 48 87 100 100 100 100 100 100 100 95 100
100 100 100 92 75 80 79 71 66 60 61 56 64 58 60 58 52 48 36 31 27 19 16 16 14 14 14 12 13 15 17 20 21 22 20 18 17 18 39 35 35 81 100 96 81 96 100 100 100
100 100 100 100 83 95 81 83 70 70 66 66 56 49 44 42 38 34 27 24 22 17 16 16 14 13 12 14 15 16 14 14 16 20 20 18 17 17 18 19 20 35 33 47 72 75 99 85 87
100 100 100 100 100 82 75 89 84 84 74 62 58 52 45 38 34 29 26 21 18 16 17 16 15 14 12 13 16 18 17 15 13 14 16 18 18 17 17 17 17 30 46 60 62 68 76 67 64
100 100 100 100 100 90 74 61 78 88 78 73 62 54 48 40 37 32 26 23 21 18 18 17 16 15 14 16 16 15 16 17 15 14 14 15 16 16 16 19 23 24 27 56 86 98 100 95 89
100 100 100 100 100 100 78 70 67 63 74 75 64 57 57 50 42 38 31 27 27 23 21 22 21 19 18 17 18 19 18 18 18 16 14 13 13 13 14 16 21 23 23 22 25 29 29 26 26
100 100 100 100 100 100 79 70 64 55 66 75 82 66 64 70 64 53 41 37 35 34 29 27 24 27 22 20 19 20 20 18 19 19 19 16 14 14 14 14 16 20 21 22 24 23 22 22 21
100 100 100 99 90 88 73 66 71 64 69 73 75 75 66 67 77 78 71 54 51 48 42 34 33 32 28 24 24 23 23 21 18 17 20 24 21 16 16 15 15 17 17 18 19 21 21 21 21
89 85 85 79 76 90 82 69 73 73 75 87 69 65 66 64 68 79 98 89 78 66 55 54 46 41 32 30 27 26 25 29 26 19 18 20 24 25 23 17 18 18 18 18 19 18 18 19 19
100 98 91 83 80 68 79 72 75 74 68 69 75 67 74 65 61 64 66 96 100 98 86 74 58 56 52 34 30 27 40 38 40 33 25 24 22 22 26 26 21 20 19 19 20 20 18 19 20
99 96 95 87 83 84 76 69 70 69 76 80 77 76 69 74 68 60 56 60 80 100 100 89 67 47 49 56 36 31 37 41 40 36 30 30 31 24 26 30 30 26 23 23 22 23 24 27 34
100 100 100 99 94 82 72 72 79 77 77 78 86 81 79 77 71 65 58 50 54 83 100 100 91 73 61 57 50 45 43 62 40 33 35 32 33 28 26 26 29 31 28 28 30 33 43 53 56
100 99 99 92 88 90 88 80 98 95 89 88 82 86 85 79 74 67 60 54 57 78 97 100 100 94 78 65 49 63 59 68 58 46 35 34 36 33 29 27 27 30 31 33 37 52 60 70 66
77 86 92 87 84 92 100 91 100 80 100 100 87 74 75 71 70 64 64 64 62 75 95 100 100 100 99 95 81 73 73 67 63 60 44 39 35 34 32 30 27 27 31 35 38 39 54 72 62
55 59 77 92 89 93 100 99 100 100 100 97 89 81 71 59 62 62 57 55 53 68 76 91 100 100 100 100 98 100 94 87 84 74 60 50 44 37 37 35 30 33 36 39 50 48 49 52 64
72 88 85 84 90 95 98 98 100 100 100 88 72 72 77 65 57 58 60 63 50 50 58 66 80 93 97 85 86 88 90 100 94 81 70 57 53 50 60 58 56 53 54 48 48 59 64 72 83
100 95 98 95 92 83 98 100 100 100 98 73 58 42 43 36 14 14 26 42 46 50 48 52 59 69 66 66 76 74 80 96 88 69 80 76 74 82 74 55 58 46 44 68 75 92 90 89 83
97 100 100 97 98 100 99 89 76 66 49 43 48 36 31 22 17 20 20 26 29 33 46 53 54 59 67 70 66 70 72 76 81 88 94 89 79 74 62 71 66 60 63 64 79 85 95 96 79
55 56 59 68 83 72 72 65 55 46 37 35 33 25 20 17 15 14 17 19 26 30 31 36 45 50 58 62 60 61 58 61 83 79 98 97 93 87 82 78 68 80 79 78 84 82 80 80 79
97 84 97 93 85 72 64 58 57 42 42 33 27 20 10 10 8 8 8 11 16 23 32 36 38 42 41 46 50 49 53 68 81 91 100 89 95 93 95 88 69 74 76 80 81 78 79 70 60

GFSSGP_250_rhum_033.txt.gz
RH
100 96 83 78 69 62 58 53 46 45 35 43 40 41 32 22 22 22 27 40 33 22 17 17 16 14 13 11 11 12 18 23 26 27 23 26 28 25 24 26 30 30 31 32 42 42 39 39 38
82 98 100 83 82 76 68 60 51 47 45 44 42 36 38 30 28 27 24 25 24 25 24 22 18 16 15 14 14 14 14 14 20 21 21 25 30 35 41 34 35 36 37 39 41 39 44 47 47
65 70 95 97 100 76 72 65 54 47 44 39 38 35 30 33 42 30 22 22 23 24 23 21 18 18 18 17 18 19 20 23 21 22 25 24 26 34 41 55 58 48 49 50 49 52 54 58 60
46 64 65 77 86 77 68 61 57 52 46 40 36 35 29 26 41 35 31 30 26 30 28 28 26 25 26 26 26 26 26 27 28 31 27 25 31 37 42 43 58 66 66 77 80 76 70 72 71
32 33 57 66 68 63 59 54 52 49 43 35 35 34 28 24 30 29 25 33 33 32 30 29 31 33 37 33 32 32 33 34 38 32 32 36 36 43 46 60 62 76 86 85 88 92 92 88 89
34 31 35 61 62 62 52 44 48 43 37 34 30 25 26 30 31 29 24 28 32 26 29 34 38 34 34 34 36 34 34 32 31 30 32 28 32 35 51 58 71 83 85 90 94 93 95 90 79
34 30 34 41 50 50 47 41 37 39 30 29 30 24 24 30 31 32 32 31 27 33 32 32 36 37 40 40 39 33 32 31 32 31 32 36 37 40 50 70 80 85 87 91 92 96 96 98 98
34 30 35 70 82 69 44 37 30 35 30 24 29 29 23 28 37 30 25 25 31 33 36 34 34 34 33 34 35 34 32 32 35 32 35 40 47 50 44 47 75 99 100 100 100 100 100 100 100
31 27 48 98 100 78 42 39 35 32 40 30 26 28 27 25 41 29 26 28 30 30 26 28 30 31 29 27 24 24 27 24 24 26 36 43 52 54 55 53 53 56 76 91 100 100 100 100 100
56 48 75 88 78 64 44 38 39 39 41 32 39 30 27 27 38 40 35 29 29 30 30 25 24 27 28 28 27 25 21 19 19 21 30 32 38 49 62 61 56 53 57 57 55 69 98 98 100
81 87 100 88 83 62 48 45 35 42 44 41 36 38 36 34 36 47 32 26 30 35 36 31 29 25 30 28 25 23 22 19 18 17 18 22 26 33 38 40 41 49 49 47 45 45 54 78 100
99 98 100 100 86 75 72 62 52 48 53 49 40 40 38 32 36 38 34 40 34 39 41 48 42 36 33 28 29 24 19 16 14 13 14 14 16 20 22 25 25 25 24 21 19 23 24 30 63
99 99 99 100 88 91 93 86 84 80 62 57 47 40 44 52 46 43 42 43 42 41 41 40 40 35 30 24 24 20 16 14 14 12 12 13 13 14 15 15 17 18 18 17 17 18 17 18 19
100 100 100 100 100 100 100 100 85 80 67 56 51 56 51 59 65 51 50 48 42 39 36 31 26 24 23 21 19 18 16 13 13 13 13 16 18 17 14 13 13 14 16 18 18 18 17 16 18
100 100 100 100 100 100 96 90 81 80 77 81 70 62 77 69 69 66 54 52 38 34 35 31 26 24 22 20 18 16 16 15 14 17 18 16 18 18 17 16 15 15 16 16 16 16 16 18 18
100 100 100 100 100 100 92 100 97 88 70 69 74 82 88 78 74 68 64 54 45 40 34 34 32 28 26 23 20 20 19 23 26 21 20 20 21 20 18 17 16 15 14 16 18 18 18 20 20
100 100 100 98 100 100 98 100 100 92 74 76 71 81 88 83 67 68 68 60 52 48 43 37 37 32 30 28 24 25 25 24 26 27 31 26 22 20 18 19 20 18 15 15 19 20 18 18 20
100 100 100 100 100 100 100 100 100 98 92 99 99 90 76 66 67 79 83 78 67 61 61 52 43 38 38 38 38 35 40 66 46 40 31 32 26 22 20 18 18 22 24 24 18 18 20 18 18
100 100 100 100 100 100 100 100 100 100 100 100 100 85 66 60 67 73 96 89 78 70 63 68 56 49 50 49 44 48 37 38 43 52 52 45 33 30 27 24 20 18 19 23 25 26 22 19 20
92 100 100 100 100 100 100 100 100 100 100 100 94 68 64 64 62 62 72 75 77 78 66 62 67 69 74 71 58 48 54 66 56 59 79 68 69 62 48 42 33 24 21 20 22 26 26 26 23
70 72 74 81 77 79 86 94 94 96 93 81 74 65 62 62 63 64 70 74 82 78 78 72 64 64 68 74 71 62 56 67 67 86 87 57 48 57 41 36 33 30 30 26 23 24 26 29 28
95 96 94 80 66 70 71 70 83 90 91 84 77 66 68 71 61 67 69 70 74 81 79 77 73 64 59 58 68 73 69 65 56 50 65 95 89 95 78 59 42 34 33 30 28 26 26 27 28
90 86 78 75 79 72 71 61 99 96 95 92 88 82 78 72 70 65 71 74 71 69 71 76 74 74 65 56 53 64 68 72 75 65 68 84 94 86 87 60 50 40 36 33 31 29 28 25 26
100 89 73 78 85 72 76 58 76 98 97 95 86 86 88 88 76 72 69 75 80 78 75 72 76 74 70 63 54 66 86 83 74 76 68 68 72 61 59 64 60 48 44 36 34 31 32 30 30
99 93 95 87 83 87 92 79 73 100 86 100 87 78 68 67 69 68 83 86 70 62 63 64 62 66 71 64 69 70 100 99 96 85 87 88 95 88 76 73 72 57 53 45 39 47 50 47 47
97 92 84 82 73 66 61 62 74 87 92 88 100 100 96 78 63 62 65 75 75 65 56 52 60 64 60 66 71 62 84 100 96 97 100 100 97 82 81 86 86 68 68 57 69 68 56 45 42
83 81 75 68 63 66 62 54 63 98 100 97 61 50 52 55 58 64 64 57 52 54 56 62 55 41 37 47 67 71 70 96 99 96 96 98 92 80 89 94 97 79 78 75 74 62 59 56 52
78 73 70 64 70 79 92 100 100 100 84 79 82 66 60 52 46 54 57 45 36 34 31 30 50 56 45 40 51 52 77 84 96 99 94 85 86 76 74 77 90 94 85 96 81 75 75 81 62
98 97 85 89 98 100 100 99 98 88 88 82 74 60 47 37 26 19 19 22 21 20 20 19 17 24 23 26 31 40 77 94 85 80 78 79 73 70 64 92 100 98 97 100 97 90 85 84 67
100 99 92 78 78 86 69 95 68 71 69 56 46 40 37 29 23 20 21 20 19 22 16 8 12 26 31 33 43 51 60 68 71 70 76 82 69 67 69 100 99 100 100 100 100 90 93 75 67

GFSSGP_250_rhum_036.txt.gz
RH
72 65 56 67 85 100 92 60 51 49 43 39 36 35 25 19 20 23 32 26 25 23 24 23 19 17 16 15 13 14 15 14 13 12 14 16 19 22 25 25 28 28 28 37 43 45 42 38 43
100 98 99 100 100 100 100 92 57 56 53 49 43 42 33 28 26 23 28 30 22 21 20 23 23 18 14 14 15 15 15 15 14 14 14 15 17 23 23 24 30 31 28 32 34 39 39 39 43
95 100 100 100 100 100 100 92 80 70 64 57 53 49 44 40 42 27 23 25 35 32 25 20 19 19 19 18 17 16 15 16 15 15 15 15 17 19 22 23 27 32 38 43 48 50 52 58 52
72 73 78 82 100 100 100 87 89 82 78 68 62 53 44 48 45 37 32 28 31 31 25 22 22 22 20 19 18 18 17 18 19 20 20 21 20 21 20 24 26 30 35 40 45 48 58 53 52
50 46 44 54 89 83 86 89 98 98 91 83 64 63 52 45 42 39 36 33 29 34 37 31 30 27 24 24 23 24 22 24 25 24 24 24 26 27 31 32 32 30 30 32 42 53 56 58 67
44 43 38 47 56 66 68 64 80 93 99 90 66 59 56 50 46 42 38 35 31 27 30 30 28 29 30 30 30 30 28 31 32 30 30 33 32 34 34 33 35 37 36 40 49 56 66 72 73
58 49 44 45 39 40 54 46 62 63 72 80 71 65 58 53 48 40 32 32 31 28 26 23 23 25 25 26 29 28 31 34 33 35 40 43 40 37 34 31 30 30 32 35 44 46 61 68 98
58 52 58 64 56 51 38 31 33 59 66 68 64 52 50 48 43 34 30 28 26 24 26 28 28 29 27 26 30 33 34 34 37 38 36 33 30 28 28 28 27 24 28 34 44 52 57 56 58
67 56 60 65 58 62 41 32 26 28 52 57 59 56 45 41 40 34 26 27 27 25 25 31 35 33 32 32 33 33 34 33 30 29 26 25 23 21 19 17 16 17 20 30 45 53 60 59 57
57 56 80 71 77 68 40 34 29 26 35 50 47 47 42 36 36 34 30 28 26 23 31 34 30 32 30 28 28 27 26 26 24 20 19 19 18 20 21 20 19 19 20 27 38 50 55 60 58
66 75 83 71 65 63 56 40 33 34 44 66 44 40 44 43 37 33 28 33 33 31 33 33 33 32 32 32 33 31 26 25 24 27 27 23 21 21 24 22 20 18 17 19 21 25 35 39 37
94 100 100 98 73 70 80 60 43 40 57 59 51 43 46 46 46 47 40 36 36 38 41 36 31 30 36 36 36 33 32 29 28 29 28 28 26 23 20 18 15 14 14 14 15 18 21 24 24
100 100 98 96 85 76 92 91 66 58 66 55 58 47 53 56 54 51 44 36 37 38 37 34 30 30 29 36 38 37 30 31 32 33 32 28 23 20 18 15 14 12 12 13 14 14 14 15 18
100 100 98 99 100 100 100 100 96 82 59 49 56 47 47 58 57 56 48 42 41 42 42 38 42 40 39 38 36 34 36 32 26 23 21 20 20 19 17 14 13 13 14 16 17 16 15 14 14
100 100 100 100 100 99 98 100 100 94 66 78 84 75 63 70 93 79 59 49 47 42 40 45 43 43 42 40 38 32 27 25 24 22 20 19 19 16 15 14 14 16 16 16 18 19 18 16 16
100 100 100 100 100 100 78 100 100 100 83 83 92 95 98 98 84 71 60 53 45 48 49 43 44 47 44 41 38 36 34 33 30 31 28 22 20 20 20 24 22 22 20 20 19 19 21 21 18
100 100 100 100 100 100 100 100 100 100 100 100 100 100 100 86 78 93 91 74 58 50 55 62 55 53 57 48 42 39 40 41 44 34 28 29 29 24 22 26 26 28 24 21 20 19 18 21 23
100 100 100 100 100 100 100 100 100 100 100 100 100 100 100 95 92 87 91 86 72 77 75 59 51 59 52 62 66 67 72 66 70 58 40 46 69 64 46 42 36 30 27 26 24 21 18 18 20
100 100 100 100 100 100 100 100 100 100 100 100 100 100 100 100 100 86 71 76 80 85 83 64 64 64 70 65 63 64 74 79 76 64 68 74 61 41 63 70 62 62 46 32 31 34 29 23 21
100 100 100 100 100 100 100 100 100 100 100 100 100 100 100 100 100 100 100 100 95 90 66 52 64 72 73 67 75 64 66 66 78 82 99 92 88 90 96 100 98 69 55 56 52 44 42 39 32
100 100 100 100 100 100 100 100 100 100 100 100 100 100 100 100 100 100 100 100 96 82 69 54 54 59 73 80 80 84 63 77 83 88 92 98 84 99 100 98 81 77 70 43 49 41 32 34 33
87 84 100 100 100 100 100 100 100 100 100 100 100 100 100 100 100 100 96 95 90 77 66 58 60 67 74 77 76 74 68 53 68 75 82 87 93 96 100 93 98 91 73 71 64 50 36 32 32
89 93 86 86 99 100 100 100 100 100 100 100 100 100 99 94 91 85 79 72 77 77 71 67 67 72 70 72 77 78 76 66 63 58 65 71 71 92 100 100 100 91 76 77 60 59 52 44 40
76 86 94 88 76 77 82 84 94 100 99 92 85 81 79 75 77 72 68 74 76 67 62 58 66 68 68 63 70 80 80 74 78 74 67 66 69 87 91 97 100 94 84 82 82 75 79 58 48
81 78 82 85 87 90 89 77 76 92 91 89 81 70 73 72 64 61 58 60 58 62 70 66 59 56 60 63 69 83 85 88 84 89 90 80 66 73 100 100 94 99 89 85 99 86 94 75 61
93 85 86 88 90 88 95 90 90 88 92 100 99 84 59 50 51 56 63 68 75 76 71 66 62 59 55 55 53 55 53 64 82 89 90 78 93 82 87 100 100 100 98 94 90 87 87 95 72
98 98 93 97 98 84 84 92 95 97 89 67 56 55 60 64 58 56 58 71 76 73 63 60 55 53 53 54 52 52 43 42 53 67 82 92 88 90 82 94 100 100 100 93 92 75 73 93 92
96 100 98 82 72 76 87 85 86 76 61 55 51 45 36 34 35 42 43 44 44 42 43 42 47 52 53 48 42 41 40 44 45 53 74 77 78 92 100 100 100 100 100 90 79 71 75 94 88
92 87 90 77 69 64 73 93 76 51 55 68 63 56 55 53 52 49 49 52 50 53 49 44 43 40 42 49 48 48 47 44 48 67 78 73 80 98 100 100 100 100 95 82 73 76 100 87 99
83 85 90 87 99 84 72 100 75 79 84 75 69 56 59 52 40 33 29 25 30 31 30 27 22 23 25 24 29 32 32 37 39 46 52 72 89 99 100 100 100 100 100 91 80 88 100 100 100

GFSSGP_250_rhum_039.txt.gz
RH
44 43 45 48 52 49 45 39 28 35 41 40 33 22 24 22 21 23 29 23 19 18 17 19 21 23 22 22 22 23 24 21 19 20 18 14 13 12 12 12 13 16 22 24 19 22 23 26 32
66 59 53 48 53 60 57 68 88 45 50 50 44 42 35 25 24 24 30 22 20 19 19 19 22 23 24 24 24 22 20 18 15 16 17 16 16 15 16 16 16 15 16 16 18 20 20 26 28
96 100 96 50 53 76 68 53 59 99 94 93 53 50 50 48 43 38 39 28 27 26 24 20 19 19 20 21 19 16 16 14 14 14 13 13 14 14 16 17 18 20 22 21 22 23 26 26 28
100 97 95 100 99 74 70 55 56 68 95 100 96 68 56 55 50 44 48 50 41 34 30 25 22 23 22 18 18 19 17 17 17 17 15 15 16 18 19 20 21 25 28 26 27 28 32 40 37
95 99 98 100 100 100 97 62 82 99 100 100 100 89 72 69 63 57 50 50 46 44 40 36 33 28 24 24 23 19 18 16 17 20 22 22 21 21 23 24 27 27 30 32 31 30 29 30 33
90 92 93 99 100 100 100 85 99 98 100 98 100 81 83 84 78 72 68 56 51 45 41 38 36 34 30 27 26 28 28 27 26 26 26 28 27 25 27 28 26 26 28 31 30 29 31 28 29
63 78 92 98 98 91 98 91 94 92 100 100 95 84 99 100 98 92 78 63 59 51 44 40 35 35 33 28 24 22 20 21 21 22 23 24 25 26 25 24 24 25 27 24 23 24 24 24 28
58 56 68 91 100 86 75 75 71 69 70 75 78 76 86 97 99 99 89 74 65 58 51 45 35 29 28 28 30 30 28 26 25 24 24 25 27 28 26 25 27 29 24 20 18 16 17 20 20
64 52 59 88 93 94 66 62 54 43 45 46 57 62 64 68 70 73 78 68 57 55 51 44 37 29 28 27 23 23 23 24 22 22 22 22 24 24 24 24 22 20 18 18 20 20 19 19 22
78 73 99 99 78 71 62 56 48 42 43 44 44 43 40 41 67 70 66 65 58 48 41 40 38 31 30 27 24 24 29 26 24 25 24 22 23 25 24 21 20 22 26 28 25 22 22 20 19
100 100 100 100 100 78 62 57 46 46 44 59 59 49 38 30 32 56 61 55 54 51 46 39 37 34 30 28 29 26 24 23 28 26 28 30 30 27 26 27 25 27 25 22 26 21 20 19 18
100 100 100 100 100 90 62 60 61 56 62 59 59 54 40 37 32 34 41 53 54 49 46 42 41 38 35 33 32 33 32 31 28 23 24 25 26 28 32 30 27 27 28 24 23 20 20 18 16
100 100 100 100 100 100 86 64 71 64 62 58 53 60 41 36 37 36 38 51 60 56 55 58 50 45 40 38 38 38 36 31 28 28 31 30 30 30 28 28 26 26 22 20 20 20 18 16 13
100 100 100 100 100 100 100 87 67 78 70 45 46 40 47 45 48 44 46 47 61 62 62 61 58 52 47 45 38 37 36 33 34 33 31 28 30 29 25 25 23 21 20 19 18 18 15 14 14
100 100 100 100 100 100 100 100 100 88 72 58 55 54 66 77 92 100 82 62 71 65 62 57 53 54 51 49 48 44 44 43 37 34 33 30 31 30 24 24 25 25 24 21 19 17 17 19 17
100 100 100 100 100 100 100 100 100 97 77 71 65 67 85 99 98 100 100 88 73 82 81 72 70 67 62 56 53 53 63 67 67 58 51 39 40 36 33 36 36 30 26 24 21 20 20 21 21
100 100 100 100 100 100 100 100 100 100 100 96 92 100 100 100 95 97 100 86 72 70 85 94 86 73 65 56 50 52 53 70 74 72 67 65 77 64 54 54 52 52 54 54 54 46 40 36 30
100 100 100 100 100 100 100 100 100 100 100 100 100 100 100 100 100 100 97 100 100 93 85 80 87 89 73 69 63 62 60 57 58 64 80 80 90 90 86 87 66 54 51 55 56 56 55 53 50
100 100 100 100 100 100 100 100 100 100 100 100 100 100 100 100 100 100 100 100 100 100 90 81 71 71 78 79 78 68 67 54 50 59 62 77 79 88 95 76 76 75 78 81 76 83 82 74 59
100 100 100 100 100 100 100 100 100 100 100 100 100 100 100 100 100 100 100 100 100 100 94 87 79 70 72 83 97 91 80 67 61 60 62 74 75 81 85 76 97 100 93 78 86 82 72 59 58
100 100 100 100 100 100 100 100 100 100 100 100 100 100 100 100 100 100 100 100 100 100 100 97 97 98 92 83 91 92 83 74 64 63 77 65 66 76 90 99 100 100 100 100 94 80 76 67 62
100 100 100 100 97 100 100 100 100 100 100 100 100 100 100 100 100 100 100 100 100 100 100 100 100 96 91 87 82 81 84 75 65 53 61 76 64 66 92 100 100 100 100 100 100 86 78 80 62
100 100 100 100 100 100 100 100 100 100 100 100 100 100 100 100 100 100 100 100 95 97 98 100 99 100 99 92 89 81 78 76 66 57 56 65 72 69 72 82 89 100 100 100 100 100 100 77 63
94 97 97 99 100 100 100 100 100 100 100 100 100 100 100 100 100 100 100 100 100 98 93 94 96 96 91 83 76 70 65 76 76 64 63 65 65 79 87 86 89 90 100 100 100 99 99 99 93
95 92 88 85 88 95 98 99 100 100 100 100 95 97 97 94 94 93 93 94 92 89 85 84 80 71 65 60 57 58 58 63 73 74 73 69 73 73 86 96 98 100 99 97 85 95 100 100 98
99 97 98 99 90 83 90 97 92 90 96 98 96 94 86 85 86 85 83 82 78 72 65 61 60 59 57 60 60 59 63 67 70 74 77 77 79 86 86 87 96 100 98 88 82 87 93 100 100
94 96 95 94 87 82 78 83 86 91 79 76 72 76 74 72 68 61 57 55 55 51 48 52 50 53 56 55 54 58 65 66 66 72 72 79 88 82 75 71 81 92 100 100 99 100 94 97 100
80 87 93 99 93 89 77 84 80 72 75 85 84 77 74 70 68 64 58 56 53 50 48 45 43 40 40 38 38 41 50 59 69 70 69 76 86 89 81 72 65 69 77 90 100 100 93 100 100
100 98 82 84 88 95 94 87 64 74 81 80 72 65 56 57 52 58 52 42 40 34 29 28 30 35 34 29 29 31 33 35 37 46 64 74 81 89 91 79 72 73 74 86 100 100 100 100 100
97 100 81 88 91 98 95 87 65 67 67 66 64 70 70 46 48 54 56 48 36 32 29 26 26 29 27 26 26 29 39 47 52 54 56 56 61 77 92 96 92 100 97 100 100 100 100 100 100

GFSSGP_250_rhum_042.txt.gz
RH
40 47 51 39 33 30 27 26 25 23 24 24 20 22 24 22 23 23 25 23 22 19 18 20 26 26 28 31 31 29 27 27 25 24 22 22 22 23 22 18 16 16 16 16 15 16 16 19 18
42 38 45 49 36 37 34 30 28 25 26 23 24 28 28 28 27 27 26 26 25 22 21 19 19 20 22 24 27 25 24 24 23 22 23 23 20 17 20 20 18 17 18 18 19 19 20 20 20
53 44 41 41 42 47 38 35 36 35 33 24 23 27 33 35 37 34 29 26 26 27 30 29 25 22 19 20 20 21 24 24 26 25 21 18 18 17 17 17 17 18 18 19 20 20 21 21 23
93 73 53 45 59 53 47 42 40 43 42 39 36 35 35 43 45 44 44 43 38 38 36 35 30 28 26 24 22 23 21 19 18 16 16 16 16 17 17 18 18 18 20 21 21 23 24 24 26
100 91 86 85 98 79 58 48 51 51 51 45 51 83 91 80 86 64 56 56 55 55 52 50 47 43 37 24 23 30 30 26 24 26 24 22 22 22 22 23 23 22 23 20 19 20 24 24 24
98 100 100 100 100 98 70 51 71 68 57 52 45 44 58 72 88 94 91 82 63 64 62 57 53 50 47 42 38 31 29 27 28 26 23 24 23 21 20 19 20 20 20 22 22 22 22 22 24
66 88 100 100 100 100 97 64 77 100 97 69 55 52 66 71 88 86 85 85 80 72 65 58 59 62 57 50 44 39 35 32 31 30 26 24 23 22 23 23 22 21 21 21 19 20 20 21 23
50 62 74 94 100 100 92 86 76 100 100 95 100 90 92 91 100 97 100 93 82 76 75 74 73 68 61 55 51 47 42 31 28 27 25 26 25 23 22 21 18 19 18 18 19 20 23 20 20
72 61 67 70 94 100 98 89 83 98 100 100 100 100 100 98 100 100 98 90 79 79 78 77 78 75 66 58 54 48 42 37 29 25 23 20 18 17 18 18 19 20 20 21 22 23 24 21 21
75 74 95 86 83 92 85 86 90 93 97 98 98 100 97 92 89 83 79 75 67 55 60 65 60 64 63 54 46 42 40 40 36 30 26 23 19 19 24 23 23 21 18 17 17 18 20 21 20
88 89 100 100 100 89 62 69 78 85 97 94 96 91 81 67 58 54 49 45 44 46 47 50 62 60 55 57 53 48 41 36 33 30 30 29 28 30 28 28 27 24 22 23 20 22 24 24 23
100 100 100 100 100 98 67 60 62 67 83 91 87 83 81 70 58 44 44 46 42 44 37 30 28 30 32 30 40 43 40 37 38 37 33 31 34 36 33 29 27 26 25 26 26 26 24 24 22
100 100 100 100 100 100 88 72 64 69 76 76 81 73 72 72 64 57 55 56 54 46 40 38 32 29 28 28 30 34 37 46 46 46 43 42 39 35 35 33 30 32 30 28 29 27 26 23 22
100 100 100 100 100 100 100 87 73 100 86 81 69 68 60 66 67 69 79 67 56 57 56 40 36 35 33 32 35 43 52 50 49 47 51 45 39 35 35 34 36 32 35 30 28 27 27 27 26
100 100 100 100 100 100 100 100 100 98 82 82 86 80 65 65 80 98 97 100 75 60 51 48 40 45 51 51 50 54 50 43 53 56 53 46 46 40 41 43 43 42 41 38 35 36 36 41 38
100 100 100 100 100 100 100 100 100 100 92 88 90 100 98 88 95 97 93 94 77 58 51 45 57 76 72 72 64 68 55 58 72 69 66 67 65 60 55 56 58 53 41 38 50 58 62 56 57
100 100 100 100 100 100 100 100 100 100 100 100 100 100 100 100 100 100 100 83 84 79 69 69 71 83 87 83 86 83 79 85 90 91 79 70 64 61 57 60 60 50 53 61 71 74 75 64 59
100 100 100 100 100 100 100 100 100 100 100 100 100 100 100 100 100 100 100 100 100 100 98 96 90 84 88 94 93 87 84 79 79 71 67 65 61 60 54 48 45 46 44 61 72 80 73 81 82
100 100 100 100 100 100 100 100 100 100 100 100 100 99 99 100 100 100 100 100 100 100 100 100 100 100 100 100 100 100 96 82 86 85 83 88 100 89 62 51 47 54 49 52 55 75 88 91 84
100 100 100 100 100 100 100 100 100 100 100 100 100 100 100 100 100 100 100 99 100 100 100 100 100 100 100 100 100 100 100 100 95 84 83 82 74 77 74 78 67 58 70 78 84 90 94 91 88
100 100 100 100 100 100 100 100 100 100 100 100 100 100 100 100 100 100 100 100 95 100 100 100 100 100 100 100 100 100 100 97 98 90 82 71 54 61 86 89 95 83 81 80 100 100 100 100 84
100 100 100 100 100 100 100 100 100 100 100 100 100 100 100 100 100 100 100 100 100 100 100 100 100 100 100 96 100 100 100 100 98 95 89 89 88 75 72 82 93 91 90 88 97 100 100 100 99
100 100 100 100 100 100 100 100 100 100 100 100 100 100 100 100 100 100 100 95 87 97 100 100 100 100 100 100 96 93 99 100 100 94 94 94 95 94 89 84 95 82 91 88 94 97 100 100 100
100 100 100 100 100 100 100 100 100 100 99 100 100 100 100 100 100 100 100 100 100 97 94 98 100 100 100 100 100 98 90 92 100 100 99 98 93 88 87 93 90 93 86 86 100 92 90 100 100
100 100 100 100 100 100 100 100 100 100 100 100 92 92 97 98 100 98 93 89 92 97 92 82 83 86 89 90 95 100 97 88 88 95 95 87 81 79 78 80 90 93 89 80 85 100 100 100 97
98 91 95 100 100 100 100 100 100 100 99 100 98 79 76 83 91 95 93 86 79 88 99 98 94 96 99 99 94 85 82 85 84 84 79 72 70 72 84 89 88 94 99 100 100 100 100 100 100
93 98 100 100 100 98 99 97 94 93 91 90 96 97 90 85 86 86 88 81 79 85 89 89 87 82 82 84 76 69 63 57 60 69 73 80 77 76 78 92 97 97 99 100 100 100 100 100 100
91 99 92 93 88 88 92 93 85 80 81 78 76 75 73 71 70 70 68 63 65 68 64 60 58 59 57 54 50 49 48 48 45 44 46 53 70 88 94 100 100 100 100 99 100 100 100 100 100
98 98 93 92 98 96 94 84 72 72 72 66 64 70 67 62 63 64 62 62 61 65 67 67 60 49 41 35 31 27 26 24 23 25 30 42 56 62 68 84 100 100 100 100 100 100 100 100 100
80 70 76 86 90 88 87 81 75 75 74 78 77 66 64 71 68 66 67 67 62 53 45 41 33 24 24 25 27 25 26 24 25 30 36 42 50 59 68 82 100 100 100 100 100 94 98 100 100

GFSSGP_250_rhum_045.txt.gz
RH
43 48 39 36 31 33 32 28 26 24 27 26 24 26 27 27 27 29 28 30 30 28 28 30 37 37 37 34 31 30 31 32 30 28 28 28 29 28 24 24 24 18 18 18 18 15 16 17 17
40 43 46 41 32 42 40 31 23 23 27 24 24 26 25 27 29 31 27 26 24 22 21 21 21 22 26 31 29 26 26 24 24 25 24 24 25 26 24 24 24 20 19 20 20 19 19 20 20
39 40 42 54 57 62 50 37 32 28 25 24 23 24 25 25 28 33 28 26 26 24 24 25 24 25 23 21 22 22 24 27 26 26 26 26 25 24 26 23 19 21 19 20 20 23 23 23 22
97 39 36 40 54 60 53 39 40 32 26 25 25 25 26 24 25 31 36 34 34 29 30 31 31 30 32 32 30 25 21 20 20 19 20 20 22 22 20 18 17 18 21 24 24 22 22 21 21
99 93 41 38 47 58 58 55 49 39 29 26 27 29 29 29 26 28 32 40 41 42 38 38 39 39 39 40 38 43 38 32 26 25 25 25 23 23 23 22 24 26 25 22 20 19 20 21 21
87 97 82 60 61 51 62 74 74 52 39 33 32 33 33 34 32 28 33 38 44 48 50 51 54 57 53 55 54 50 48 46 42 39 36 35 33 29 27 26 24 22 21 22 22 23 22 20 19
77 99 100 100 96 62 53 52 56 63 57 42 37 38 38 38 41 42 57 84 94 94 98 84 74 68 66 66 60 56 55 57 55 50 45 41 40 35 31 30 28 27 25 24 21 19 18 16 17
67 82 98 100 100 100 72 55 60 60 55 51 44 44 46 49 51 51 49 50 61 69 68 73 76 76 72 64 60 62 59 60 57 55 54 48 43 39 32 26 24 22 19 17 17 18 22 20 18
47 71 100 100 100 100 100 80 68 100 99 78 64 69 69 69 72 68 60 57 53 63 68 77 84 86 77 68 62 61 60 55 58 51 46 42 38 36 36 35 31 26 23 22 20 22 20 20 20
51 51 77 100 100 100 100 92 82 88 100 100 89 90 89 97 85 87 79 72 61 61 76 86 87 91 88 76 67 61 56 50 49 46 47 47 43 36 32 32 30 29 26 24 22 19 20 21 20
77 78 67 90 96 91 90 88 90 93 100 100 94 91 97 91 88 93 97 91 95 89 91 94 83 68 58 51 46 39 34 31 29 30 26 28 31 35 33 30 28 25 22 23 24 24 24 22 21
93 100 90 100 100 98 73 72 77 82 90 95 100 100 100 94 90 89 94 92 92 87 78 68 59 48 41 36 34 31 28 28 26 24 24 22 22 24 27 29 27 24 27 28 24 24 23 25 29
100 100 100 100 100 100 92 67 70 80 76 80 84 94 97 92 88 83 82 84 86 86 77 68 53 48 45 42 39 32 30 28 28 25 24 23 23 28 30 30 25 29 34 32 28 28 36 39 42
100 100 100 100 100 100 100 85 76 96 80 81 86 87 85 85 84 83 79 77 84 86 79 68 60 51 43 42 40 34 30 28 33 38 38 36 37 34 33 36 35 40 48 42 44 47 47 43 41
100 100 100 100 100 100 100 100 100 95 82 86 92 90 90 94 91 96 88 83 79 76 71 61 54 53 53 50 49 42 37 36 37 38 39 42 52 51 60 58 60 66 70 58 52 49 45 44 40
100 100 100 100 100 100 100 100 100 100 98 95 92 94 100 100 100 100 100 100 84 76 64 61 53 51 55 60 59 54 59 75 61 65 60 77 63 62 68 75 81 78 65 57 49 48 45 42 38
100 100 100 100 100 100 100 100 100 100 100 100 100 100 100 100 100 100 100 98 86 84 84 84 77 71 62 59 64 58 62 76 93 86 74 92 92 94 91 89 80 69 58 49 48 45 43 37 44
100 100 100 100 100 100 100 100 100 100 100 100 100 100 100 100 99 88 85 100 100 98 98 92 89 77 75 74 75 81 78 83 87 93 94 100 99 97 90 93 84 73 67 62 61 53 59 55 58
100 100 100 100 100 100 100 100 100 100 100 100 100 98 89 87 97 94 100 100 100 100 100 100 100 100 96 99 100 97 100 100 100 96 100 100 100 100 100 85 81 85 77 70 69 79 72 74 81
100 100 100 100 100 100 100 100 100 100 100 100 100 100 100 100 100 100 100 100 100 100 100 100 100 100 100 100 100 100 100 100 100 94 95 90 94 99 94 90 82 75 74 68 75 83 89 86 88
100 100 100 100 100 100 100 100 100 100 96 96 100 100 100 100 100 98 88 90 100 100 100 100 100 100 100 100 100 100 100 100 100 100 100 100 100 100 99 96 87 94 88 88 82 83 90 93 98
100 100 100 100 100 100 100 100 100 100 100 100 97 90 92 100 100 93 73 97 99 82 74 79 96 100 100 100 100 100 100 100 100 100 100 100 100 100 99 100 99 96 99 96 89 87 89 94 100
100 100 100 100 100 100 100 100 100 100 100 100 90 100 98 82 94 96 88 97 100 95 98 100 100 100 100 100 100 100 100 100 100 100 100 100 100 98 98 97 100 100 98 100 100 98 96 100 98
100 100 100 100 100 100 100 100 100 100 100 100 100 100 100 88 92 100 100 97 90 82 74 79 84 91 96 92 96 94 86 90 98 100 100 100 98 97 98 100 100 100 99 100 100 100 100 97 89
77 100 100 100 100 100 100 100 100 100 100 99 100 100 94 98 99 99 97 92 87 85 86 89 87 87 91 97 97 92 91 96 100 100 100 100 100 100 100 100 100 100 94 97 100 100 100 100 100
75 72 100 100 100 100 100 100 100 100 100 100 100 100 100 100 100 90 93 88 88 92 89 86 87 89 92 92 84 84 90 98 97 97 100 100 100 100 100 100 99 97 99 100 100 100 100 98 100
73 89 86 100 100 100 100 100 100 100 100 100 100 97 84 86 85 86 96 96 92 93 87 82 83 84 80 76 74 76 80 83 81 81 86 94 92 92 92 92 93 84 87 93 98 100 100 98 100
43 80 82 94 100 100 100 100 100 100 100 97 92 88 88 89 86 89 86 85 82 86 87 82 75 72 70 69 70 70 72 72 69 62 62 67 69 64 72 89 97 98 96 94 97 100 100 100 100
43 59 92 99 100 91 93 99 100 100 100 100 95 91 84 81 82 83 80 80 77 70 62 53 53 50 44 38 34 29 26 23 23 25 32 37 41 52 64 72 74 74 79 81 85 95 100 100 99
60 78 91 82 80 89 80 79 84 93 93 88 81 75 72 72 72 75 73 63 54 56 55 49 44 40 37 33 28 24 19 15 15 15 17 20 24 32 40 48 56 69 83 91 98 96 97 98 98

GFSSGP_250_rhum_048.txt.gz
RH
45 46 41 41 42 44 38 33 46 40 44 38 36 45 42 47 54 69 65 80 73 58 51 48 47 49 46 42 44 43 40 37 35 34 31 30 30 28 25 23 23 24 22 19 21 21 19 19 19
50 53 47 42 42 47 44 36 36 40 41 37 36 39 36 34 37 41 47 47 52 54 50 47 45 44 40 38 34 32 31 29 28 28 30 29 26 21 19 19 20 23 21 22 25 19 19 19 21
49 55 46 39 46 57 48 36 33 37 38 36 37 33 31 33 29 29 29 28 27 27 26 26 26 26 23 22 25 28 30 32 31 28 26 24 22 23 24 26 26 26 26 26 22 21 21 22 26
44 49 45 48 58 67 49 35 40 31 31 31 32 34 32 36 35 30 27 27 27 26 25 24 22 22 22 20 20 22 23 21 20 20 20 20 20 20 21 21 20 19 20 20 22 22 24 24 22
45 43 42 47 68 71 49 36 43 37 31 29 25 30 30 34 38 33 28 27 28 31 27 25 23 23 24 23 24 27 28 30 32 29 30 31 33 34 29 28 28 31 32 29 28 27 26 25 26
48 42 42 45 60 64 51 40 44 38 31 32 30 31 31 32 31 29 28 27 26 29 34 35 36 36 33 32 36 46 53 53 54 56 53 50 50 48 46 45 42 41 40 35 32 30 26 23 21
91 54 42 48 53 55 51 48 50 44 36 35 38 37 37 38 30 28 28 28 27 25 26 30 38 41 47 49 49 57 68 64 60 58 56 52 50 52 54 50 49 47 43 39 35 30 27 26 23
95 95 74 72 48 50 47 48 57 70 60 53 46 40 41 38 29 28 33 32 30 30 31 30 39 71 88 92 87 74 64 58 60 52 48 46 44 44 45 46 46 43 39 35 34 33 31 27 26
68 100 100 100 100 75 46 42 45 48 68 65 53 47 43 37 34 34 34 36 36 35 41 46 53 57 64 65 69 64 60 63 67 64 57 55 52 47 43 41 39 38 39 39 35 33 29 26 20
53 81 100 100 100 100 97 54 42 45 47 63 78 87 86 71 59 46 39 39 40 42 46 55 54 53 57 58 55 55 59 66 78 75 65 53 42 34 29 27 25 22 20 20 21 21 21 22 20
50 78 87 100 100 100 100 87 77 59 51 52 60 75 74 69 64 59 50 46 47 50 56 64 66 62 58 54 67 80 87 84 69 53 40 35 30 28 27 24 22 19 18 19 20 19 20 20 20
55 69 82 96 100 100 100 98 92 97 87 81 71 78 71 70 65 61 64 66 62 61 62 66 65 66 75 74 78 78 75 60 49 40 37 37 34 29 24 21 20 21 26 31 29 28 27 28 29
96 75 90 100 100 100 100 100 97 92 99 100 100 99 92 94 90 84 78 83 79 80 81 84 78 79 79 80 76 70 63 55 51 47 41 38 37 31 29 29 31 28 27 28 28 32 34 36 43
100 100 100 100 100 100 100 100 99 97 90 100 100 100 98 93 98 91 80 79 87 87 85 82 83 77 73 68 62 62 57 54 48 46 43 46 42 39 38 36 34 33 41 48 41 42 40 50 60
100 100 100 100 100 100 100 100 100 91 84 94 97 98 100 100 96 92 91 91 85 85 86 80 73 70 65 59 58 54 52 50 47 48 45 44 46 46 40 41 48 48 54 59 58 58 69 69 70
100 100 100 100 100 100 100 100 100 87 81 88 98 88 85 92 90 88 81 76 73 69 68 72 73 71 72 70 66 64 60 59 63 60 51 54 60 68 64 58 67 64 74 89 80 80 80 67 65
97 100 100 100 100 100 100 100 100 100 97 93 100 100 100 100 100 98 92 94 80 75 79 80 83 82 75 68 71 70 72 75 74 73 66 62 68 73 80 87 95 95 82 71 76 79 80 83 76
100 100 100 100 100 100 100 100 100 100 100 100 100 100 100 100 100 100 97 87 91 91 74 70 73 68 73 91 86 80 93 94 78 73 73 78 71 79 93 86 85 77 84 89 100 98 91 86 91
100 100 100 100 100 100 100 100 100 100 100 100 100 100 100 100 100 100 100 98 100 100 100 100 68 65 70 87 100 99 93 91 96 100 92 97 100 100 94 90 86 94 98 99 100 100 100 82 82
100 100 100 100 100 100 100 100 100 100 100 100 100 94 96 98 100 100 100 98 99 98 83 90 100 100 100 100 94 74 76 98 100 99 100 100 99 99 93 85 95 98 93 93 85 89 88 93 76
100 100 100 100 100 100 100 100 100 100 100 100 100 100 100 99 98 100 100 100 100 100 100 100 100 99 98 99 89 78 86 81 94 96 100 100 100 100 97 99 100 100 100 100 100 100 98 96 98
100 100 100 100 100 100 100 100 100 100 100 100 100 100 100 100 100 97 95 96 100 91 98 95 92 99 100 93 81 82 97 78 73 74 99 100 100 100 100 100 100 100 100 100 100 100 98 90 100
98 100 100 100 100 100 100 100 100 100 100 100 100 100 100 100 100 100 99 88 82 84 76 73 89 93 91 84 91 87 95 98 90 96 100 100 100 100 100 100 100 100 100 100 100 100 100 100 100
33 78 100 100 100 100 100 100 100 100 100 100 100 100 98 97 95 93 90 89 89 86 80 64 66 63 66 80 81 95 100 100 100 100 100 98 94 95 89 87 90 95 98 100 100 100 100 100 100
24 29 74 100 100 100 100 100 100 100 97 98 98 100 100 100 95 94 85 74 78 65 70 81 81 74 79 78 76 85 84 81 89 98 100 100 100 100 100 100 100 100 100 100 100 100 100 100 100
18 26 37 78 100 100 100 100 91 86 85 82 90 92 88 76 67 69 79 77 72 76 77 72 63 59 63 70 68 73 76 78 86 95 97 98 96 100 100 100 100 100 100 100 100 100 100 100 100
21 22 31 51 73 100 100 100 100 94 79 78 82 82 80 74 79 79 74 76 72 70 76 87 88 84 83 69 71 83 86 86 87 79 77 80 90 96 96 92 99 99 100 100 100 100 100 100 100
26 26 32 42 63 75 100 100 100 100 100 100 94 90 88 87 92 86 84 86 96 94 88 89 83 80 74 70 72 71 70 67 63 61 59 53 48 46 54 60 66 72 76 82 88 92 100 100 100
40 46 37 44 79 69 95 100 100 100 100 100 100 100 100 100 97 100 99 93 87 93 86 81 88 82 75 68 52 45 40 31 25 21 20 20 20 22 27 36 49 66 79 92 99 100 100 100 100
33 35 44 42 57 67 73 100 100 100 100 100 100 100 100 100 100 97 96 92 96 99 88 90 78 61 47 49 41 34 27 24 24 21 17 16 16 16 18 20 26 35 58 79 93 98 100 100 100

GFSSGP_250_rhum_051.txt.gz
RH
43 39 33 45 48 51 53 58 57 48 58 71 71 63 52 53 35 46 39 50 58 70 74 69 68 68 62 58 52 48 45 44 42 38 35 33 30 27 23 22 23 22 18 18 19 20 21 19 20
44 41 31 36 40 54 56 52 51 47 58 66 67 65 49 51 50 57 48 56 61 64 70 69 70 74 68 59 53 44 40 34 33 32 29 25 22 21 22 21 19 17 17 18 20 22 22 23 22
44 43 30 27 39 55 51 53 46 47 46 69 65 63 57 55 52 54 49 53 59 75 75 68 60 52 46 39 38 33 30 30 29 28 28 25 23 21 21 20 20 21 20 20 19 20 22 24 26
44 44 33 27 36 60 47 61 54 53 43 55 69 58 56 49 48 47 41 40 43 51 55 55 55 49 42 34 33 27 23 23 22 22 22 21 20 21 21 21 22 28 36 34 33 34 35 36 35
45 48 40 33 37 50 45 53 52 49 37 48 66 60 52 51 48 40 35 33 32 32 30 27 26 25 24 24 23 23 23 22 22 21 23 29 38 44 45 45 46 47 46 44 45 47 43 42 41
62 45 50 48 55 48 44 48 46 48 38 45 56 63 52 53 50 40 31 28 28 28 27 26 26 27 25 25 25 25 25 23 23 31 47 57 62 58 56 52 51 51 52 48 48 47 44 45 42
48 62 49 62 60 58 50 40 49 53 43 48 51 61 51 52 50 38 30 28 30 30 28 26 27 29 32 34 33 32 34 40 40 46 53 74 72 64 61 59 59 55 52 51 47 40 34 34 36
42 65 55 52 64 71 59 42 47 54 53 46 58 53 49 62 45 39 35 33 32 30 30 29 27 26 26 30 31 34 36 44 61 77 78 62 52 49 56 53 53 51 48 40 32 28 26 25 21
51 50 75 56 70 78 62 54 47 60 50 58 51 43 65 58 44 34 31 30 29 30 29 27 26 24 24 28 34 39 48 68 69 64 58 52 49 47 47 54 61 50 37 30 27 26 24 22 19
66 39 63 98 100 91 59 58 55 60 63 61 59 48 51 59 56 46 38 35 33 29 29 28 29 31 34 34 36 42 48 52 53 49 42 45 50 56 63 61 48 38 33 31 29 26 22 18 19
84 45 52 74 100 100 83 50 50 55 61 66 65 55 58 58 53 49 47 45 43 36 32 29 32 35 38 39 40 42 43 44 48 47 50 64 64 74 67 53 41 38 36 34 31 28 24 26 24
100 85 38 47 98 100 100 61 47 50 52 60 65 72 64 69 74 71 64 58 57 53 52 51 51 45 43 43 46 46 46 53 56 56 63 68 66 60 55 49 44 39 34 34 35 34 33 31 30
100 98 57 47 76 100 100 92 53 54 52 56 57 57 58 58 59 75 85 87 92 94 91 78 66 58 55 57 55 59 62 68 69 76 74 69 59 53 47 41 36 36 36 34 33 27 28 35 36
100 100 97 70 86 80 100 99 76 73 63 67 55 54 53 53 53 55 59 64 72 74 68 63 67 69 72 74 79 80 85 88 80 69 63 58 51 45 41 37 32 32 38 41 38 36 35 39 40
98 86 100 100 85 85 100 100 98 93 100 100 100 100 96 84 71 70 61 63 63 65 71 69 76 87 90 92 88 86 84 76 69 61 53 50 46 42 41 50 52 49 47 51 50 48 45 49 54
100 83 100 100 100 84 94 100 100 100 99 100 100 100 100 100 100 100 100 96 90 92 92 94 97 96 91 86 80 72 68 66 62 59 56 56 56 54 54 57 57 53 53 54 60 64 62 55 66
100 87 100 100 100 100 100 100 99 100 99 97 100 100 100 100 100 100 100 100 95 90 89 84 85 84 79 74 70 70 68 74 68 66 71 83 80 73 67 78 83 77 76 72 76 79 86 82 95
100 99 100 100 100 100 100 100 100 100 100 94 96 100 100 100 100 100 93 91 88 84 84 81 83 86 82 74 72 86 98 96 63 61 86 99 89 73 71 61 70 69 76 82 86 95 100 95 85
100 100 100 100 100 100 100 100 100 100 100 100 100 99 100 100 100 100 100 100 100 100 92 97 94 95 78 76 92 88 74 72 92 87 88 85 89 75 65 64 74 80 87 87 99 100 99 100 85
100 100 100 99 100 99 100 100 100 100 100 100 100 100 100 100 100 100 100 100 100 100 100 100 95 98 98 79 67 100 98 89 76 74 75 80 89 76 66 63 71 83 74 66 97 100 100 100 99
100 100 100 100 100 96 100 100 100 100 100 100 100 100 100 100 100 100 100 100 100 100 100 99 100 98 90 96 99 91 85 67 58 56 58 60 57 66 66 76 80 80 86 99 100 100 100 94 100
100 100 100 100 100 94 93 100 100 100 100 100 100 100 100 100 100 100 100 100 100 100 100 100 100 100 100 100 92 82 73 76 68 58 52 57 64 70 78 77 84 92 96 100 100 100 100 100 100
83 100 100 100 100 100 100 96 100 100 100 100 100 100 100 100 100 100 100 100 100 100 100 100 100 100 100 100 100 96 82 76 75 69 61 59 72 74 74 68 86 90 86 95 100 100 100 100 100
18 94 100 100 100 100 100 100 98 100 100 100 100 100 100 100 100 100 100 100 100 100 100 100 100 100 100 100 100 96 82 73 63 57 64 71 66 81 79 67 66 70 75 75 83 86 99 100 100
15 23 94 100 100 100 100 97 88 99 97 100 100 100 100 100 100 100 100 100 99 100 100 100 100 100 99 88 78 70 63 58 50 57 64 62 64 62 69 80 85 89 88 90 96 100 100 100 100
15 17 24 84 100 100 100 100 96 100 100 99 100 100 100 100 100 100 100 100 100 100 100 96 89 82 80 73 66 56 54 52 51 55 70 82 88 98 100 100 99 100 100 100 100 100 100 100 100
15 15 17 25 52 84 100 100 100 100 100 98 100 99 96 95 97 100 99 99 94 93 88 77 76 79 70 61 50 49 53 61 77 79 78 83 78 75 72 66 70 60 58 57 64 72 85 92 94
17 18 19 18 29 42 57 82 100 100 100 100 99 98 98 98 94 91 85 85 85 89 85 70 70 64 55 50 53 62 78 85 78 76 72 69 51 33 30 25 21 19 22 26 32 38 50 65 88
17 20 21 22 26 37 47 56 88 100 100 100 100 100 100 98 93 92 88 82 76 69 65 62 57 55 49 64 84 72 80 69 66 63 38 36 29 20 12 10 12 15 20 22 23 31 42 53 72
24 26 27 32 36 45 61 66 78 86 94 100 96 96 91 88 88 90 86 81 72 65 63 55 55 73 86 88 84 65 72 74 48 42 36 24 23 26 19 14 10 11 15 16 21 26 32 54 65

GFSSGP_250_rhum_054.txt.gz
RH
100 100 71 43 44 56 66 58 67 66 62 64 69 56 56 42 46 48 31 29 30 35 30 34 40 48 53 61 60 60 54 50 42 41 40 38 35 31 29 27 26 25 24 21 17 17 17 18 19
98 100 80 47 40 52 65 68 71 65 64 73 64 59 54 43 48 55 38 38 37 35 40 42 46 50 55 57 56 54 50 46 44 38 31 27 25 24 21 21 20 19 17 18 18 19 22 31 33
66 100 89 51 38 54 68 70 68 63 65 65 64 55 46 74 56 56 40 41 40 36 43 51 57 54 53 54 55 45 41 36 34 29 26 25 21 20 19 19 18 18 20 24 32 38 40 40 38
28 98 100 53 37 57 61 51 64 70 67 64 64 53 58 72 48 50 45 42 45 45 44 54 67 67 59 53 51 49 42 35 30 23 20 19 19 19 19 20 36 50 51 44 41 42 43 43 40
27 54 100 64 47 51 47 41 70 74 67 63 63 57 62 74 60 52 44 41 45 55 61 73 85 84 73 61 53 44 36 29 24 20 20 20 20 20 26 44 48 50 47 47 50 46 46 44 42
30 27 96 77 64 49 37 35 79 66 67 69 62 56 59 64 64 57 46 41 45 48 49 55 60 59 50 41 31 26 24 22 21 21 21 22 23 28 42 51 68 62 52 49 50 48 47 46 41
46 26 59 93 50 44 44 30 78 62 62 70 65 59 60 63 66 62 51 41 44 46 38 37 36 34 29 27 26 24 24 25 26 32 37 39 50 59 64 82 72 59 49 43 44 44 48 48 36
48 43 41 99 65 55 47 32 67 52 58 51 71 58 57 65 68 65 53 41 40 42 37 32 30 29 29 28 26 26 27 29 33 32 32 35 56 76 73 61 47 38 36 37 43 52 51 43 36
77 45 37 96 80 63 60 39 58 42 52 56 72 48 62 58 60 64 58 44 41 39 36 30 28 28 30 30 30 29 26 25 27 32 38 42 47 48 51 46 40 34 33 39 48 53 47 41 38
94 49 32 58 100 64 61 43 60 55 57 62 53 65 72 65 49 56 55 48 47 45 40 34 31 31 33 34 32 30 29 31 34 37 40 42 42 41 44 41 39 39 41 45 47 51 48 42 36
89 65 55 52 75 96 79 43 56 66 60 61 54 49 65 83 60 55 54 49 48 49 46 38 35 34 33 30 29 28 28 31 36 40 42 45 45 45 49 42 40 46 49 54 52 46 41 34 27
87 92 62 50 58 89 100 60 56 54 63 62 56 46 68 69 70 69 56 56 57 55 46 38 40 42 43 36 34 33 35 44 52 50 50 51 56 52 48 48 54 54 56 55 49 40 34 30 29
85 86 68 55 53 73 89 100 74 53 53 69 70 77 72 64 65 66 58 56 61 56 46 44 44 45 51 50 44 62 72 73 64 56 59 60 53 58 65 74 65 61 53 46 39 35 34 33 35
100 82 82 62 69 80 81 85 100 69 58 66 72 74 74 76 76 78 76 65 62 61 57 58 64 74 75 84 98 96 81 65 60 59 61 75 73 78 76 67 57 54 47 44 40 35 39 41 41
100 82 76 74 94 100 93 68 84 83 76 75 71 69 71 75 76 77 78 79 78 75 76 78 77 86 92 84 75 68 61 59 68 84 82 81 77 68 68 61 58 54 53 47 50 53 54 52 51
98 74 89 65 99 100 100 91 71 76 90 80 81 74 64 64 64 65 65 65 66 66 65 63 64 67 66 68 64 69 81 93 89 82 83 73 70 69 60 58 58 52 50 54 66 62 65 59 58
80 63 80 99 100 100 100 100 94 70 78 89 100 100 95 76 65 65 60 59 58 58 62 72 89 95 92 95 98 96 97 92 90 87 84 80 71 61 65 60 52 50 54 66 58 65 63 71 65
74 92 97 100 100 100 100 100 100 90 66 80 93 100 100 100 100 96 84 82 93 99 100 100 100 100 100 98 100 100 91 98 100 90 73 63 62 62 67 59 56 59 51 53 50 52 53 62 72
85 84 100 100 100 95 100 100 100 100 90 70 80 100 100 100 100 100 100 100 100 100 100 100 100 100 96 92 96 100 100 100 97 74 70 76 77 81 78 73 72 54 52 52 51 48 55 67 83
74 99 80 89 100 100 100 100 100 100 100 93 76 87 100 100 100 100 100 100 100 100 100 100 100 99 94 99 100 100 100 100 92 81 75 74 89 85 77 70 68 61 60 60 50 50 59 87 93
26 100 84 90 100 100 99 100 100 100 100 100 85 81 88 100 100 100 100 100 100 100 100 100 100 100 100 100 88 81 98 96 94 86 79 82 79 80 74 54 59 67 64 62 56 56 66 77 91
15 100 84 71 100 100 98 98 100 98 100 100 100 96 90 94 98 100 100 100 100 100 100 100 100 100 100 100 99 82 83 91 96 100 99 85 87 68 53 52 57 59 53 53 49 54 54 62 70
13 30 100 100 100 100 100 100 100 100 100 100 100 100 100 100 100 100 100 100 100 100 100 100 100 100 93 90 96 100 98 94 96 84 88 91 85 78 70 66 59 54 48 47 45 46 56 62 77
10 17 63 100 100 100 100 99 94 100 100 100 100 100 100 100 100 100 100 100 100 100 100 100 100 100 100 100 100 100 100 98 95 89 88 88 83 76 73 65 55 50 45 45 49 53 59 69 86
11 11 19 37 100 100 100 96 99 98 99 100 100 100 100 100 100 100 100 100 100 100 100 100 100 100 100 100 100 100 99 97 99 97 89 83 79 72 59 53 52 48 46 50 63 75 63 55 56
12 12 11 17 29 100 100 100 100 100 98 98 100 100 100 100 100 100 100 100 100 100 100 100 100 98 95 99 94 98 100 95 100 94 90 80 66 58 53 48 45 49 76 77 53 28 22 19 20
13 12 13 13 18 42 99 100 100 100 100 100 87 95 100 100 100 98 100 100 100 100 100 100 99 92 90 98 100 99 99 97 91 85 80 74 58 48 44 45 70 71 60 46 17 15 14 15 18
14 13 13 13 14 17 18 55 98 100 100 100 100 100 96 94 96 99 100 100 100 98 93 99 100 99 100 97 97 92 85 83 75 71 62 56 48 48 71 71 71 53 29 23 16 21 22 20 19
15 14 14 14 15 16 18 37 100 100 100 100 100 100 100 100 100 100 100 100 100 97 98 100 100 99 93 91 91 82 80 77 70 54 48 46 50 79 89 60 33 29 25 22 28 28 20 17 11
17 16 15 16 17 18 18 23 44 90 100 100 100 100 100 100 100 100 100 100 94 87 91 94 96 89 88 75 81 60 51 52 52 51 59 67 76 82 41 37 29 34 38 31 25 15 6 5 4

GFSSGP_250_rhum_057.txt.gz
RH
40 74 100 100 100 80 58 36 50 65 53 59 68 63 50 45 30 31 33 31 23 19 17 18 22 24 24 30 36 41 44 58 71 62 52 44 42 41 36 29 26 24 22 18 16 16 16 23 32
40 52 90 100 100 97 60 46 68 73 62 60 66 48 44 43 40 35 30 39 30 24 19 19 21 22 29 38 42 47 58 62 58 54 49 46 39 32 28 21 18 18 17 18 23 39 45 40 34
38 43 69 95 100 100 77 46 50 66 64 65 67 57 53 61 58 54 47 43 39 28 27 25 27 32 42 49 52 58 60 57 56 49 40 32 26 19 18 19 18 18 19 30 51 47 40 36 36
35 35 39 89 100 100 86 57 56 78 72 70 58 59 64 64 46 44 42 44 46 33 36 34 39 45 49 53 56 59 52 45 40 37 32 25 22 21 22 22 22 22 29 48 53 49 47 43 39
38 33 34 84 100 100 89 64 60 81 82 76 66 65 65 64 45 57 58 50 44 44 41 42 44 52 56 56 49 54 57 49 43 36 30 28 25 24 23 23 24 27 33 46 55 60 54 46 39
61 35 32 55 100 100 87 66 90 71 76 91 72 69 68 69 49 52 60 60 48 48 51 51 51 54 60 70 76 67 61 55 44 32 28 26 24 25 24 28 32 37 68 72 65 56 43 32 29
63 54 31 45 91 100 100 76 73 98 92 86 78 70 71 71 56 55 68 70 56 50 58 60 58 60 66 77 78 67 55 39 28 27 27 24 25 29 32 33 31 45 46 48 46 41 33 27 28
68 52 54 34 41 100 100 86 61 93 65 70 74 73 69 75 70 57 53 61 57 50 53 52 53 54 53 52 48 44 34 30 27 26 27 28 29 29 30 36 38 40 41 39 37 32 30 32 39
97 67 55 60 41 64 88 89 61 87 56 61 64 81 69 69 75 70 60 58 56 56 57 51 47 46 43 39 35 32 30 29 29 29 30 28 28 27 34 38 39 41 40 40 40 38 40 42 44
100 95 85 82 69 38 60 79 88 75 61 46 54 84 78 70 65 70 72 54 59 61 56 54 48 47 43 37 33 32 33 32 33 34 34 33 31 30 36 44 47 43 43 42 40 43 42 43 48
100 100 99 68 72 69 38 54 87 73 69 50 42 81 83 74 67 67 64 61 57 65 63 55 49 48 47 41 35 33 34 37 39 37 35 32 34 36 42 60 53 49 49 47 54 59 58 52 47
100 100 84 61 68 72 71 38 48 86 49 61 70 73 92 83 70 72 67 61 59 53 61 63 52 51 54 55 46 46 44 45 43 44 44 41 45 59 72 60 57 55 55 59 63 60 54 51 43
100 100 97 58 79 69 74 40 47 95 58 60 65 71 87 82 86 71 72 68 62 54 50 59 66 64 61 64 64 55 50 49 50 57 53 65 98 87 68 61 57 64 64 63 54 57 55 51 48
100 100 99 58 66 65 54 46 39 89 79 54 63 70 68 79 82 82 78 75 71 69 55 58 65 68 76 75 77 67 55 51 54 88 96 86 76 67 57 63 73 71 65 59 61 55 50 40 38
100 100 99 82 72 61 58 66 83 60 100 67 59 79 79 73 81 77 76 75 75 69 70 74 71 68 71 73 69 62 68 81 91 84 72 64 60 59 80 81 81 73 66 65 63 60 47 49 45
91 100 100 77 75 56 71 92 81 54 90 100 83 69 74 72 78 87 78 73 70 74 75 69 67 81 86 78 72 72 78 80 69 62 61 66 77 84 93 89 78 79 75 66 68 60 59 56 61
61 89 100 94 83 82 73 98 88 76 72 100 100 100 85 74 71 79 90 85 78 80 87 84 78 69 71 76 80 75 70 64 67 79 89 89 92 98 92 78 71 71 70 81 77 67 63 60 55
83 88 100 100 75 81 93 94 95 84 70 79 90 100 100 100 92 73 73 79 83 86 87 90 86 75 70 71 71 69 71 91 98 96 97 100 100 94 91 91 85 82 83 86 78 78 67 62 67
85 69 77 100 79 82 91 100 92 83 100 77 93 92 94 100 100 100 94 100 100 87 75 70 70 75 76 76 73 91 100 100 100 100 100 100 99 98 100 98 97 96 90 90 76 74 82 83 67
86 76 91 84 54 66 83 100 93 90 91 99 90 96 94 84 99 100 100 100 100 100 100 90 82 86 99 100 100 100 100 100 100 100 85 86 100 99 100 100 100 100 94 81 77 72 62 63 57
97 100 83 72 60 70 89 99 100 100 98 96 93 96 100 97 87 98 100 100 100 100 100 100 100 100 100 100 100 100 100 100 100 100 100 84 65 71 80 100 91 79 74 73 69 62 65 63 58
75 83 60 76 76 61 82 98 98 98 100 100 95 97 99 99 100 100 100 100 100 100 100 100 100 100 100 100 97 99 100 100 100 99 95 92 92 95 79 71 66 64 76 71 65 67 63 65 59
11 66 45 76 80 64 56 81 100 100 97 100 100 96 100 100 100 100 100 100 100 100 100 100 100 100 95 92 96 96 90 88 90 82 100 99 94 89 71 71 69 64 70 73 64 66 64 60 57
10 11 70 100 67 60 61 62 94 98 100 96 100 98 96 100 100 100 100 100 100 100 100 100 100 100 100 100 100 96 100 100 100 95 87 86 76 84 84 84 79 65 67 62 66 66 61 55 47
13 12 12 32 90 66 57 54 94 92 100 100 100 100 99 100 100 100 100 100 100 100 100 100 100 100 100 100 100 100 99 100 100 97 90 94 84 95 92 85 90 76 72 70 68 62 45 43 41
17 15 12 12 14 91 100 52 72 100 100 100 99 100 100 100 100 100 100 100 100 100 99 98 93 94 96 98 100 100 100 95 95 96 98 98 98 84 79 84 79 78 68 57 44 43 43 42 30
18 19 17 14 12 12 21 59 90 82 100 100 100 92 94 100 100 100 100 100 100 100 100 100 100 100 100 100 100 100 100 96 94 100 98 98 95 96 95 80 78 58 49 51 53 54 47 44 21
21 18 18 16 14 13 14 18 55 98 100 100 100 100 97 96 98 100 100 100 100 100 100 100 100 100 100 100 100 100 100 100 100 100 100 100 89 91 82 79 58 45 54 65 82 75 36 31 22
21 20 18 17 16 14 14 17 23 62 97 100 100 100 100 100 100 100 100 100 100 100 100 100 100 100 100 100 100 100 100 100 100 92 90 95 84 84 70 63 41 50 79 94 77 36 31 30 28
19 17 16 16 16 15 14 14 15 20 39 99 100 100 100 100 100 100 100 97 96 95 94 99 100 100 100 100 100 97 100 92 94 96 89 91 79 68 54 48 62 70 84 59 41 33 41 41 33

GFSSGP_250_rhum_060.txt.gz
RH
62 53 61 58 100 100 100 94 50 52 52 45 43 40 43 42 41 34 31 33 28 26 20 18 28 35 48 64 78 86 74 64 70 58 61 67 62 52 47 44 32 25 20 17 15 16 17 24 36
72 54 54 53 91 100 100 90 66 76 69 41 47 46 33 42 41 36 29 32 28 28 21 19 21 30 36 43 46 54 60 54 43 51 63 58 53 45 41 31 24 19 18 18 19 20 26 38 44
84 57 51 53 61 100 100 100 94 94 74 46 44 40 46 44 53 41 33 32 27 30 23 22 19 20 21 25 26 28 34 42 50 59 58 57 53 37 31 24 22 21 21 21 22 26 36 48 51
79 69 47 49 73 100 100 100 100 100 86 41 30 50 59 48 56 47 37 31 24 32 34 28 25 25 25 29 38 48 55 59 61 59 60 51 44 42 35 26 21 22 22 26 29 40 58 58 54
88 79 53 45 74 98 100 100 100 100 98 53 48 66 65 49 58 48 45 37 34 32 43 37 30 35 36 40 47 52 58 61 64 66 55 52 48 41 29 25 24 24 26 27 27 33 42 42 40
76 96 66 48 64 82 100 100 100 100 93 61 59 74 67 61 62 66 56 49 45 38 45 46 38 41 50 51 54 58 61 60 62 65 60 49 36 30 28 27 27 26 25 26 33 36 38 38 36
66 96 94 58 58 56 98 100 100 100 97 76 62 70 73 69 69 69 63 53 50 51 52 51 49 50 50 50 52 56 66 72 76 74 62 42 31 30 30 28 27 26 26 31 35 39 40 37 34
85 89 100 87 56 46 63 100 100 100 100 80 70 70 72 70 71 70 69 60 55 63 66 63 57 58 59 58 61 72 77 79 76 67 51 35 30 30 28 28 27 26 29 32 39 47 47 38 37
100 93 100 100 68 39 50 91 100 100 97 80 65 72 75 72 71 76 72 71 62 65 69 73 68 63 65 64 64 67 69 69 63 55 38 30 30 29 31 30 28 28 28 32 37 45 50 45 40
100 82 100 100 100 50 43 51 84 100 100 83 77 65 64 86 76 74 72 72 68 65 66 69 70 68 62 63 68 64 59 54 47 40 35 33 32 33 31 30 30 30 30 40 50 61 49 41 43
69 99 100 100 100 100 52 48 49 100 100 89 84 94 80 77 80 73 72 72 77 71 68 65 60 64 62 61 61 60 54 46 40 36 35 35 35 35 35 38 38 35 45 56 62 47 42 50 53
47 100 99 100 100 100 83 46 48 81 100 99 93 95 76 68 88 81 84 84 83 96 84 72 66 60 63 67 68 63 55 52 49 44 39 38 43 46 45 44 50 67 66 57 50 49 61 61 65
57 100 100 100 100 100 100 65 56 50 92 100 88 90 81 75 89 92 76 88 98 81 83 93 85 72 68 70 71 67 65 62 61 56 60 61 57 52 48 57 83 68 59 58 62 74 74 66 63
95 100 98 99 100 100 100 76 53 51 53 90 100 80 73 74 81 90 85 75 74 72 70 81 86 80 77 70 65 67 67 68 69 67 65 68 68 61 73 88 70 57 62 79 89 77 74 69 66
91 100 100 100 100 100 100 100 47 30 47 49 96 88 79 78 82 80 81 85 81 76 75 78 76 75 76 75 70 66 65 71 75 75 73 72 72 79 87 74 61 70 95 98 89 79 78 77 86
77 88 100 100 100 100 100 100 70 35 35 63 63 100 97 83 87 84 75 76 78 81 79 76 79 83 81 80 80 78 79 83 85 83 83 83 83 84 76 65 76 97 99 88 92 86 93 96 93
62 65 100 100 100 100 100 100 74 48 29 63 71 79 100 90 74 85 95 92 95 86 82 82 83 85 85 85 87 84 84 88 84 85 86 83 76 70 70 83 100 100 98 99 99 100 100 94 86
82 98 100 100 100 100 100 100 80 56 38 46 98 97 100 100 100 78 86 92 89 100 97 90 86 86 89 85 83 84 87 92 94 89 83 77 73 82 100 100 100 97 100 99 99 95 91 88 96
100 100 100 100 100 99 95 99 87 66 50 47 60 83 96 100 100 100 88 93 87 84 84 80 74 66 72 79 84 90 84 77 81 84 81 77 89 100 100 100 100 99 89 99 94 88 91 100 92
88 100 100 100 100 81 68 74 73 65 63 76 63 82 74 78 100 100 100 100 100 99 91 84 79 84 76 70 72 77 83 88 90 86 93 100 100 100 100 100 100 100 99 97 92 98 96 84 77
78 100 100 100 100 100 93 78 53 62 67 68 88 78 87 82 99 100 100 100 100 100 100 100 100 98 100 100 95 91 86 88 91 100 100 99 100 100 100 100 100 100 99 90 94 95 76 74 71
31 100 98 93 100 100 96 82 76 59 67 78 84 99 94 70 76 99 100 100 100 100 100 100 100 100 100 100 100 100 100 100 100 100 100 100 100 95 93 91 91 85 88 87 84 76 72 70 68
14 100 100 98 91 93 79 57 56 46 63 87 100 97 100 100 100 100 100 100 100 100 100 100 100 100 100 100 100 100 100 100 100 100 100 100 98 100 99 80 71 73 74 76 77 75 74 68 78
14 28 100 86 57 64 68 46 58 43 60 79 88 98 95 99 100 100 100 100 100 100 99 94 92 94 96 97 99 100 100 100 97 95 96 100 98 89 79 72 74 79 78 82 70 82 83 75 74
14 14 20 98 53 62 76 54 75 41 51 56 79 86 86 88 100 100 99 100 100 100 100 100 100 100 97 95 93 92 89 85 86 91 84 69 72 73 78 87 89 82 86 76 99 83 76 74 67
15 14 14 14 57 100 99 60 100 79 59 63 65 88 97 91 92 99 100 100 100 100 100 100 100 100 100 100 100 99 96 94 91 94 94 90 81 82 87 86 98 95 100 89 88 79 75 60 50
16 16 15 14 14 85 100 73 92 97 61 64 72 74 84 99 92 84 89 99 100 100 100 100 99 98 100 98 99 99 98 99 97 93 90 89 97 94 100 100 100 92 96 91 83 70 54 40 40
19 18 19 18 17 17 85 100 100 100 93 68 74 89 86 84 90 94 87 86 91 98 100 99 100 100 99 98 100 100 100 100 100 100 100 100 100 100 100 97 100 98 92 86 69 49 37 45 47
27 23 21 22 23 21 17 24 93 100 100 98 75 76 85 92 93 94 99 100 99 94 94 99 100 100 100 100 96 100 100 100 100 100 100 100 100 100 100 99 98 92 83 67 47 40 51 46 41
23 24 21 21 25 24 22 19 17 17 27 98 100 81 72 77 90 98 98 99 99 96 94 100 100 100 100 100 100 100 100 100 100 100 100 100 94 96 92 92 92 75 63 51 45 58 42 39 44

GFSSGP_250_rhum_063.txt.gz
RH
89 83 75 56 50 54 89 100 82 72 46 47 39 62 58 44 37 41 43 40 37 36 33 28 25 19 19 26 40 51 62 80 89 96 82 77 69 64 67 60 53 46 28 21 19 19 19 19 21
92 93 84 69 49 54 76 100 93 80 47 51 40 56 58 43 39 41 37 40 40 36 34 28 23 18 18 30 46 58 74 90 98 93 69 62 63 62 59 51 45 31 20 19 20 21 21 23 27
81 85 85 81 59 60 68 98 100 91 64 52 47 61 52 48 37 40 36 38 39 36 34 30 26 19 20 29 40 48 58 58 60 57 55 45 53 57 57 50 32 24 20 21 22 23 24 26 24
70 75 85 87 77 62 61 78 100 95 76 60 56 62 50 48 40 45 39 38 44 38 34 31 28 22 20 22 31 31 39 34 35 40 47 57 59 60 54 41 36 27 24 25 26 27 29 27 31
80 76 78 95 98 65 62 66 99 99 81 67 54 52 60 50 54 45 39 35 43 40 34 30 34 27 25 24 26 30 33 43 51 61 62 66 67 58 51 41 27 26 26 26 28 28 26 28 32
78 76 78 100 100 76 62 71 83 100 94 84 64 60 73 55 64 51 37 40 46 48 44 35 34 39 30 27 29 33 40 57 62 67 72 70 60 57 50 34 28 28 29 29 28 26 26 28 32
55 63 94 100 100 87 64 72 78 100 100 96 78 77 84 67 67 68 51 44 41 50 52 49 42 46 45 31 35 38 53 66 66 67 64 62 64 64 51 33 30 30 30 29 28 27 27 27 30
35 77 93 100 100 96 71 66 78 90 100 100 89 98 99 76 68 70 56 54 51 58 60 56 58 51 51 41 40 50 60 70 72 72 71 82 81 73 53 37 31 31 29 31 28 28 28 30 38
15 50 87 100 100 100 86 64 63 84 100 100 100 100 100 88 59 65 64 57 58 61 66 63 58 56 58 56 54 59 66 68 73 78 87 86 78 67 56 40 34 32 33 32 29 31 36 53 54
14 14 84 100 100 100 100 71 58 64 100 100 100 100 100 100 73 63 67 57 66 64 70 68 66 61 66 66 65 64 70 71 72 75 70 61 55 47 42 37 36 35 33 32 35 35 49 56 50
15 15 40 100 100 100 100 88 54 53 96 100 100 100 100 100 82 62 63 59 61 67 83 74 75 76 76 78 80 74 69 68 70 70 64 53 46 41 37 37 34 34 36 40 44 48 64 56 48
14 20 21 71 100 100 100 100 80 54 80 100 100 100 100 100 90 65 54 65 62 68 74 75 80 81 81 84 85 79 72 66 66 64 59 53 50 47 46 44 42 43 45 47 47 59 62 54 52
15 21 22 36 99 100 100 100 92 77 68 100 100 100 100 100 100 92 72 75 74 70 71 76 78 82 81 83 79 77 72 68 67 67 69 66 60 60 64 64 60 56 59 58 60 65 62 61 70
15 19 23 44 73 100 100 100 100 85 89 100 100 100 100 100 100 93 89 90 78 78 78 76 75 81 88 89 82 80 75 67 66 69 72 72 70 68 66 69 70 70 71 75 75 69 69 88 80
14 23 27 28 60 100 100 100 100 93 95 93 100 100 100 100 100 100 87 84 77 68 83 83 77 85 94 98 97 90 85 81 79 78 77 71 70 73 78 79 75 76 82 83 74 72 97 87 99
14 20 29 28 37 77 100 100 100 99 100 100 100 100 96 100 100 100 96 89 89 83 81 83 84 81 90 88 75 93 96 87 83 81 76 76 74 74 78 80 77 79 82 76 76 100 98 100 94
14 16 22 33 35 55 100 100 100 100 100 96 100 99 63 77 100 96 88 88 86 86 92 93 87 79 78 77 74 73 78 81 82 87 88 83 83 84 84 86 87 85 81 83 100 94 86 97 85
16 17 52 65 66 52 100 100 100 100 73 94 81 84 61 54 89 100 100 100 96 96 100 100 100 94 86 83 83 84 87 90 89 92 95 93 88 87 91 92 91 86 94 100 84 87 100 100 100
18 19 100 100 96 84 100 100 100 100 70 75 62 69 71 66 79 100 100 100 100 100 93 96 100 100 99 96 90 88 88 89 92 92 87 85 82 76 85 91 89 100 100 83 96 100 100 100 97
18 18 73 100 88 100 88 100 100 100 91 67 65 57 61 56 62 71 100 100 100 100 100 100 92 94 99 100 100 100 100 98 94 92 92 95 95 93 97 100 100 100 100 100 100 100 100 98 91
19 18 86 100 86 100 84 99 100 100 99 80 50 62 72 84 96 83 92 100 100 100 100 100 100 95 91 96 99 100 100 100 99 100 98 99 100 100 100 100 100 96 99 100 100 100 92 85 84
20 19 82 100 100 96 100 98 100 100 96 80 71 53 63 94 100 100 97 94 100 100 100 100 100 100 100 99 98 95 93 96 100 100 100 100 100 100 100 100 100 100 100 100 94 84 84 84 79
21 20 60 100 99 87 82 87 91 73 76 94 92 65 52 58 89 100 100 100 96 99 100 100 100 100 100 100 100 100 100 100 100 100 100 100 99 98 94 99 100 95 81 86 89 88 90 80 77
18 20 18 100 91 66 80 82 99 79 85 81 81 76 60 55 58 90 100 100 100 94 85 84 99 100 100 100 100 100 100 100 100 100 100 100 100 100 100 100 96 89 92 92 90 88 79 98 100
20 20 19 43 100 93 96 78 100 79 66 74 75 80 80 64 60 69 84 100 100 100 98 97 99 100 100 100 100 100 100 100 100 100 100 100 100 100 100 100 100 100 97 94 86 96 100 96 100
21 20 20 20 99 100 74 64 100 93 69 57 66 67 76 85 84 86 92 100 100 100 100 99 96 97 100 100 100 100 100 100 100 100 100 100 98 94 98 100 100 99 97 98 100 100 98 100 91
22 21 21 20 41 92 71 62 100 92 81 80 78 58 51 50 70 84 86 89 98 97 99 100 100 100 100 100 100 100 100 100 100 100 100 100 100 100 100 100 100 100 100 100 100 100 100 93 88
22 22 22 23 21 21 91 100 100 100 97 93 80 75 73 52 37 46 67 81 92 100 98 95 98 100 100 100 100 100 100 100 100 100 100 100 100 100 100 100 100 100 100 100 100 100 90 88 75
26 24 24 26 26 22 18 62 100 100 86 84 82 75 68 56 46 38 39 47 64 92 100 100 100 100 99 100 100 100 100 100 100 100 100 100 100 100 100 100 100 100 100 100 100 94 89 79 76
40 31 27 28 31 28 24 20 30 100 100 100 85 76 79 84 66 56 47 48 56 64 73 78 82 95 100 100 100 100 99 99 100 100 100 100 100 100 100 93 100 100 97 99 92 91 84 74 57

GFSSGP_250_rhum_066.txt.gz
RH
58 55 65 96 80 79 87 100 90 74 65 53 57 56 62 73 82 72 48 37 32 40 46 47 40 36 31 28 24 24 30 35 38 48 74 92 90 89 82 72 62 56 54 44 27 19 19 21 22
63 68 67 71 87 77 79 99 93 72 51 64 56 69 68 56 72 76 53 38 35 44 40 39 38 36 31 26 22 20 24 36 57 72 99 100 96 80 72 68 62 56 50 35 23 20 22 23 24
62 69 67 75 84 89 80 81 76 72 48 64 71 78 67 53 64 65 48 38 42 50 43 37 38 38 32 26 20 18 27 47 76 82 92 86 83 68 58 58 60 58 43 32 24 22 24 26 25
70 62 67 79 87 100 90 73 66 64 54 51 75 79 67 52 47 56 41 40 48 51 45 39 38 38 32 26 19 20 30 48 54 64 60 56 54 58 54 58 62 51 41 31 25 25 28 27 24
60 61 48 76 100 100 97 81 66 60 58 56 75 87 81 66 50 44 45 41 50 48 46 43 41 38 33 28 20 21 28 38 41 45 43 52 55 56 60 66 59 50 39 28 26 30 29 29 28
30 71 56 59 100 100 100 84 72 59 56 57 74 79 94 86 63 46 45 39 48 49 47 48 43 38 34 33 24 23 27 34 39 46 54 60 63 67 72 66 58 54 41 30 29 30 30 30 28
14 44 81 99 95 100 100 91 80 62 54 53 71 83 91 90 80 61 52 38 51 52 49 48 46 40 32 36 33 30 35 43 47 47 56 62 66 77 84 73 69 63 48 35 32 32 31 32 29
12 16 63 80 100 100 100 100 89 76 58 55 64 100 100 97 100 81 61 46 48 56 52 49 49 45 38 37 44 45 40 46 48 49 58 69 71 68 69 73 77 74 58 44 36 34 34 32 31
14 12 34 83 99 100 100 100 100 92 74 62 80 100 100 100 96 84 72 61 45 56 57 54 52 49 46 45 51 56 51 45 50 56 62 69 77 84 97 97 89 70 53 42 37 35 33 34 36
13 12 17 83 100 100 100 100 100 100 84 70 83 97 92 100 100 89 85 69 53 52 58 56 57 56 55 56 56 60 58 54 53 56 58 64 74 82 83 74 62 55 45 39 37 38 37 42 43
11 12 15 25 97 95 100 100 95 100 93 78 78 100 100 100 89 98 92 85 65 62 62 62 61 61 62 66 63 63 66 64 61 57 59 64 66 63 61 57 52 49 47 46 47 51 54 54 58
11 10 15 18 42 97 86 100 100 100 99 85 85 100 100 100 100 98 82 86 77 63 64 65 65 67 65 68 68 66 66 74 79 78 75 75 73 70 64 60 59 56 54 57 59 61 60 61 62
16 12 14 17 16 66 100 98 100 100 100 94 87 100 100 100 100 97 100 100 100 91 81 74 66 66 71 81 76 71 73 79 84 87 83 80 77 73 70 69 68 69 68 66 65 62 64 62 63
18 17 14 16 18 22 81 90 100 100 100 100 90 89 100 100 100 94 96 100 100 91 81 82 75 70 72 87 76 77 79 82 83 84 82 79 76 72 69 72 77 74 67 65 69 71 71 69 81
17 18 16 14 16 19 55 86 95 100 100 100 100 100 91 100 100 100 99 99 98 100 96 81 75 71 70 72 77 80 82 82 83 88 86 87 81 80 83 79 77 76 78 75 74 74 76 86 93
17 18 16 17 18 20 34 63 100 100 100 100 100 100 96 100 100 100 100 89 84 79 81 84 81 75 73 74 74 80 83 88 90 98 100 99 91 94 90 82 79 87 91 87 82 80 84 92 92
15 18 17 17 18 16 19 35 93 88 96 100 100 100 100 86 100 100 100 100 92 74 66 71 77 73 76 78 86 86 84 88 91 97 97 85 88 84 81 84 84 84 86 87 82 83 94 92 71
16 17 19 20 22 18 19 31 44 90 91 100 100 100 100 100 91 100 100 100 100 97 94 98 99 96 87 83 84 85 92 94 99 98 88 80 79 80 86 89 85 85 85 84 91 98 87 79 72
19 20 24 23 22 42 29 33 35 57 78 100 100 100 100 100 100 93 100 100 100 100 100 100 100 100 100 98 100 97 96 96 95 88 84 83 88 90 92 95 93 89 93 98 93 88 88 90 86
18 20 22 21 22 23 26 21 35 50 58 84 100 100 100 100 100 92 96 100 100 100 100 100 100 100 100 100 100 100 100 99 98 99 100 100 100 98 98 97 100 92 89 90 94 94 99 99 100
19 20 24 23 22 20 21 17 22 60 91 61 81 100 100 100 100 98 92 100 100 100 100 100 100 100 100 100 100 100 100 100 100 100 100 100 100 100 100 99 98 97 100 100 100 100 100 100 100
16 19 23 24 22 23 21 18 19 30 72 85 46 68 100 96 98 100 100 100 100 100 100 100 100 100 100 100 100 100 100 100 100 100 100 100 100 100 100 100 100 100 100 100 100 100 100 100 100
18 19 22 25 22 22 24 26 26 35 42 100 100 40 66 94 100 100 97 89 90 97 100 100 100 100 100 100 100 100 100 100 100 100 100 100 100 100 100 100 99 100 100 100 100 100 99 87 97
18 22 22 24 24 22 22 32 32 51 57 82 98 79 34 54 82 90 94 92 92 88 95 100 100 100 100 100 100 100 100 100 100 100 100 100 100 100 100 100 100 100 100 99 96 95 97 100 100
18 22 23 22 24 25 23 24 56 46 59 70 82 93 55 38 40 70 78 95 90 94 99 100 100 100 100 100 100 100 100 100 100 100 100 100 100 100 100 100 100 100 100 100 100 99 96 100 100
21 22 24 24 25 27 24 23 43 64 58 62 68 78 98 58 50 38 57 71 91 94 94 97 100 100 100 100 100 100 100 100 100 100 100 100 100 100 100 100 100 100 100 100 100 100 100 100 100
20 20 22 23 23 27 24 24 42 71 78 59 84 84 98 94 66 34 32 48 63 77 90 93 91 93 96 100 100 100 100 100 100 100 100 100 100 100 100 100 100 100 100 100 100 100 100 100 97
21 22 21 22 24 26 25 24 26 53 87 99 86 64 86 87 63 51 45 42 50 67 69 76 87 98 100 100 100 100 100 100 100 100 100 100 100 100 100 100 100 100 100 100 100 100 100 93 93
28 25 26 26 25 27 27 27 24 49 100 100 78 72 54 64 57 41 42 50 53 58 72 75 72 75 83 94 100 100 100 100 100 100 100 100 100 100 100 100 100 100 100 100 100 96 94 86 80
40 36 30 28 34 37 32 36 27 36 100 100 100 86 78 60 46 50 44 48 55 55 53 67 82 90 93 94 98 100 100 100 100 100 100 100 100 100 100 100 100 98 96 94 92 87 81 80 80

GFSSGP_250_rhum_069.txt.gz
RH
53 65 81 100 90 70 82 97 88 72 68 76 74 73 79 71 69 61 63 56 43 44 41 42 37 58 50 46 42 35 30 28 30 32 34 42 48 75 92 93 81 77 73 60 53 46 26 21 23
55 56 72 77 90 93 90 90 83 75 62 76 82 78 79 74 69 61 60 60 52 44 39 39 40 57 53 44 37 32 27 24 24 29 40 50 54 72 93 90 78 70 65 62 54 41 28 23 24
60 59 48 61 74 100 100 98 73 79 68 74 89 89 85 82 70 58 52 52 58 52 44 40 49 51 49 39 36 32 27 23 20 28 58 69 94 95 85 80 67 61 62 63 54 38 29 24 25
41 69 44 43 56 92 100 100 89 94 63 71 84 94 88 84 75 66 58 50 61 64 45 41 48 45 41 37 36 33 28 21 21 37 55 72 84 74 69 60 61 60 65 64 48 37 25 26 26
17 53 64 42 50 60 88 100 100 97 80 71 77 95 100 94 78 75 63 47 65 63 42 45 50 46 39 36 37 34 28 20 23 36 48 59 64 60 59 64 63 70 76 60 50 38 31 28 28
13 24 56 66 54 61 76 78 100 97 88 77 80 94 100 100 93 80 62 46 60 56 42 42 50 49 42 37 39 35 29 22 23 32 42 49 53 55 64 68 75 87 79 66 62 50 37 30 30
12 13 52 77 71 65 84 65 89 86 90 82 80 94 97 100 100 88 66 51 50 51 43 45 47 45 44 39 40 36 32 25 22 28 36 47 58 66 71 75 79 82 83 77 67 53 43 36 32
12 12 19 87 87 72 58 74 80 93 92 88 77 82 95 100 100 95 74 61 50 51 44 42 48 47 51 45 44 37 37 32 27 32 42 49 60 71 82 78 79 83 80 80 70 64 53 41 34
12 12 14 36 94 94 68 64 74 94 95 93 83 74 93 100 100 100 89 76 63 60 52 40 45 49 50 52 49 39 37 39 39 37 40 50 62 71 70 70 67 78 81 80 75 58 45 40 38
11 12 14 18 54 92 88 77 69 74 96 97 95 81 89 100 100 100 99 82 73 65 58 50 40 47 47 50 56 49 44 44 49 49 44 47 51 57 66 74 86 89 84 71 60 54 52 48 46
12 12 16 18 19 75 98 80 66 62 76 89 94 94 84 88 100 100 100 97 84 80 68 62 50 41 50 54 56 53 52 51 54 56 56 57 56 56 62 69 72 70 66 62 59 61 60 60 56
15 13 14 16 17 21 79 95 67 62 74 84 94 93 87 70 83 100 100 100 99 87 80 69 64 49 48 52 56 59 57 61 60 59 64 67 66 67 68 67 68 66 67 67 66 67 70 68 65
15 14 16 14 16 18 23 73 89 63 74 88 97 96 89 80 90 100 100 100 100 100 96 92 81 70 55 54 54 60 64 64 68 66 62 64 74 83 86 80 80 79 72 69 71 73 68 68 70
16 15 16 14 17 19 18 49 93 75 73 100 100 100 100 89 79 94 100 100 100 100 99 88 93 86 70 63 62 62 66 70 75 77 70 69 73 77 84 86 84 86 84 77 75 72 71 73 78
17 14 16 14 17 17 19 21 78 91 80 99 100 100 100 100 92 86 96 100 100 98 100 100 100 100 88 74 70 67 65 66 80 80 73 80 85 82 79 83 82 91 94 87 77 81 82 80 82
17 15 14 16 16 18 19 20 50 93 98 91 100 100 100 100 100 93 100 100 100 93 100 100 100 100 92 77 71 67 67 67 68 81 79 83 87 86 90 93 95 94 78 80 85 80 86 85 88
15 16 15 17 16 17 20 20 22 55 97 100 100 100 100 100 100 100 100 100 100 100 85 99 100 100 100 90 83 76 74 68 70 74 78 79 84 86 94 92 85 93 86 83 82 86 90 92 88
15 18 18 18 19 21 21 19 19 20 70 100 100 100 100 100 100 100 100 100 100 100 100 93 75 94 100 99 98 96 88 80 77 77 77 84 90 90 97 96 92 90 89 85 92 99 98 99 99
18 22 24 23 22 21 21 14 16 19 19 79 100 100 100 100 100 100 100 100 100 100 100 100 100 93 97 100 100 100 100 100 98 88 88 94 96 99 100 100 100 97 96 100 100 100 100 100 92
20 22 23 24 22 20 20 16 16 17 18 17 76 100 100 100 100 100 100 100 98 100 100 100 100 100 100 100 100 100 100 100 100 100 100 100 100 100 100 100 100 100 100 100 100 100 95 88 98
18 22 24 24 23 20 20 18 16 16 16 16 18 89 100 100 100 100 100 100 100 100 100 98 97 98 100 100 100 100 100 100 100 100 100 100 100 100 100 100 100 100 100 100 96 88 98 100 100
19 23 25 24 23 22 22 19 19 16 15 14 17 26 100 100 100 100 100 100 100 100 100 100 96 97 93 96 100 100 100 100 100 100 100 100 100 100 100 99 100 100 100 99 100 100 100 100 100
17 20 21 23 25 24 23 22 24 18 16 16 18 19 44 100 100 100 100 100 100 100 100 100 100 100 100 100 100 100 100 100 100 100 100 92 88 91 96 100 100 100 100 100 100 100 100 100 100
14 16 18 22 23 25 23 20 26 24 22 18 17 17 20 51 100 100 100 100 100 100 100 100 100 100 97 97 100 100 100 100 100 100 100 100 100 100 100 100 100 100 100 100 100 100 100 100 100
14 15 19 21 24 26 25 22 27 26 26 20 18 18 18 24 35 94 100 100 100 100 98 100 100 100 100 98 92 100 100 100 100 100 100 100 100 100 100 100 100 100 100 100 100 100 100 100 100
17 17 18 22 26 28 25 25 28 31 29 25 20 18 20 20 22 23 76 100 100 100 100 98 94 100 100 100 99 97 100 100 100 100 100 100 100 100 100 100 100 100 100 100 100 100 100 100 100
23 20 18 20 24 26 25 26 28 28 30 28 25 21 20 25 27 34 16 35 57 75 88 96 98 91 98 100 100 100 100 100 100 100 100 100 100 100 100 100 100 100 100 100 100 100 100 100 100
22 21 21 21 22 25 26 26 27 28 30 31 30 24 22 21 31 45 31 25 19 40 56 75 88 95 97 99 100 100 100 100 100 100 100 100 100 100 100 100 100 100 100 100 100 100 100 100 100
32 28 24 24 26 25 28 27 26 27 29 31 32 38 25 23 26 31 47 39 23 25 24 29 45 85 100 100 100 100 100 100 100 100 100 100 100 100 100 100 100 100 100 100 100 100 100 100 100
38 35 32 31 33 30 32 32 32 29 29 30 31 33 37 26 20 24 22 31 47 28 17 20 26 26 45 81 99 100 100 100 100 100 100 100 100 100 100 100 100 100 100 100 100 100 98 89 80

GFSSGP_250_rhum_072.txt.gz
RH
70 77 64 80 88 58 77 85 94 91 69 67 72 81 70 50 53 64 57 46 56 61 51 36 39 44 45 36 40 44 42 40 37 36 31 31 34 34 45 77 95 92 86 75 71 64 57 46 36
62 79 59 86 76 71 87 94 94 97 82 78 69 92 86 79 69 59 63 63 68 65 58 42 42 44 43 46 45 44 43 41 35 31 28 26 29 35 44 76 87 90 78 66 67 65 59 49 36
35 69 80 48 76 74 97 100 99 100 100 83 75 81 100 89 88 93 80 70 61 57 62 54 47 44 44 53 56 51 45 38 32 28 24 22 26 40 75 100 97 79 68 63 66 69 63 52 36
12 68 74 56 56 84 95 100 100 100 100 94 85 99 90 90 90 100 87 75 66 63 60 55 48 42 41 45 47 55 46 36 32 28 25 21 36 50 84 83 73 66 58 63 69 72 65 54 42
13 18 85 77 52 77 90 100 100 100 99 97 99 97 99 90 90 92 97 83 76 60 56 61 53 50 42 47 49 48 43 36 31 28 22 22 43 57 62 66 64 60 63 72 80 81 70 58 52
14 13 45 95 79 61 100 100 100 100 100 94 96 94 98 91 100 95 89 89 73 62 58 72 65 58 46 48 50 44 39 36 34 29 22 24 43 50 54 59 58 64 74 81 85 89 75 65 57
12 14 16 91 76 65 78 98 100 100 100 95 94 92 100 94 100 100 91 89 75 73 62 54 67 60 44 49 54 48 38 37 36 29 24 26 38 46 53 61 62 71 81 85 83 79 79 72 65
11 13 14 28 100 89 68 75 89 100 100 100 100 90 96 100 100 100 100 92 80 78 63 44 59 52 42 48 56 51 40 37 37 31 27 25 35 44 58 70 73 76 79 80 79 76 76 72 64
11 13 13 16 67 90 77 83 63 94 98 99 96 100 100 100 100 100 100 100 89 86 63 43 48 45 40 44 50 52 46 38 38 36 34 28 34 44 54 61 76 80 78 79 75 76 81 78 62
8 12 15 18 24 98 100 90 74 74 91 87 87 100 100 100 100 100 100 100 91 87 74 53 48 46 43 40 44 47 50 47 41 36 38 38 38 41 47 55 61 68 66 66 69 74 73 66 64
8 12 16 16 15 38 100 100 86 61 58 64 61 84 100 100 100 100 100 100 99 98 92 72 58 54 46 41 39 43 47 51 50 42 40 43 50 50 52 57 60 67 74 76 76 74 76 72 70
9 13 15 16 16 16 69 100 100 79 63 45 34 50 75 100 100 100 97 100 100 94 98 91 74 63 55 50 44 41 41 45 46 52 48 47 54 59 61 63 69 70 72 77 84 85 81 76 74
10 10 13 14 16 17 23 82 99 96 83 63 45 44 51 99 100 99 100 100 100 99 100 95 92 82 66 60 57 50 43 43 47 50 54 57 63 64 67 70 72 78 85 83 83 78 76 81 79
12 10 12 15 17 20 19 50 79 100 100 89 73 54 64 97 100 100 100 100 100 97 80 92 99 95 92 75 70 63 56 47 46 50 54 63 68 72 73 72 73 79 80 78 82 79 82 91 81
15 12 13 14 17 21 20 22 44 95 100 100 82 71 86 94 100 100 100 100 100 100 100 96 89 100 100 97 87 78 72 63 54 50 54 56 66 81 86 76 78 84 83 90 90 92 89 91 89
18 15 13 14 15 20 20 22 25 46 99 100 99 73 80 97 100 100 100 100 100 100 100 100 100 100 91 90 98 90 80 74 63 57 57 60 63 67 80 81 82 85 88 86 85 94 95 94 92
19 16 13 13 16 17 23 25 18 18 51 99 100 97 90 90 99 100 100 100 100 100 100 100 100 100 100 100 100 100 98 92 81 68 66 68 70 72 73 76 79 81 81 84 88 94 95 93 98
14 19 16 16 18 20 22 22 21 21 27 72 93 100 96 96 99 99 100 100 100 100 100 100 100 100 92 100 100 100 100 100 100 96 90 84 78 78 78 74 74 77 82 94 93 93 97 100 100
12 19 22 20 20 20 20 22 22 22 21 21 58 100 100 100 100 98 98 100 100 100 100 100 100 100 100 88 93 100 100 100 100 100 100 100 99 94 90 86 87 88 94 100 100 100 100 100 100
12 13 18 22 21 24 20 19 20 21 20 20 21 47 100 100 100 100 100 100 100 100 100 100 100 100 100 100 98 94 94 97 99 100 100 100 100 100 100 100 100 100 100 100 100 100 100 100 100
12 13 16 21 22 24 21 19 22 22 19 20 21 22 76 100 100 100 100 100 100 100 96 98 100 100 100 100 100 99 100 100 100 100 100 100 100 100 100 100 100 100 100 100 100 100 100 99 98
13 13 14 15 19 23 22 20 21 22 19 18 20 22 36 87 100 100 100 100 100 100 99 94 86 97 100 100 100 100 100 100 99 100 100 100 100 100 100 100 100 100 100 100 100 100 100 98 98
14 14 14 15 17 24 26 24 23 22 21 21 19 20 22 34 99 100 100 100 100 100 100 100 100 100 100 100 100 100 100 100 100 98 100 100 100 100 100 100 100 100 100 100 100 100 100 100 100
15 14 14 14 16 17 24 25 25 27 24 21 20 19 20 20 46 90 100 100 100 100 100 100 100 100 100 100 100 100 100 100 100 100 100 100 100 100 100 100 100 100 100 100 100 100 100 100 100
15 14 14 14 15 20 22 24 28 23 20 17 16 19 18 18 21 29 79 100 100 100 100 100 100 100 100 100 100 100 100 100 100 100 100 100 100 100 100 100 100 100 100 100 100 100 100 100 100
14 15 17 21 28 32 26 25 26 24 22 21 19 17 18 19 18 20 22 45 100 100 100 100 100 100 100 100 100 100 100 98 92 94 94 100 100 100 100 100 100 100 100 100 100 100 100 100 100
15 16 19 23 29 32 32 29 23 27 26 24 25 22 21 21 20 20 20 21 25 62 99 100 100 100 100 100 100 100 100 100 100 99 100 100 100 100 100 100 100 100 100 100 100 100 100 100 100
18 18 20 21 25 26 26 28 26 27 27 25 25 26 24 22 22 22 21 21 20 21 27 71 97 100 100 100 100 100 100 99 100 100 100 100 100 100 100 100 100 100 100 100 100 100 100 100 100
25 24 24 25 25 24 23 24 22 23 24 28 28 27 27 28 25 24 25 24 22 21 22 24 46 87 100 100 100 100 100 100 100 100 100 100 100 100 100 100 100 100 100 100 100 100 100 100 100
35 31 28 28 28 24 22 24 23 22 24 24 27 28 28 26 27 26 26 25 23 22 21 18 18 20 29 75 100 100 100 100 100 100 100 100 100 100 100 100 100 100 100 100 100 100 100 100 100

GFSSGP_250_rhum_075.txt.gz
RH
21 87 100 88 72 57 54 79 84 90 100 90 81 77 81 80 65 45 45 48 60 57 46 53 48 44 37 30 35 36 35 33 34 38 37 36 37 34 34 38 42 64 82 92 85 74 70 69 64
11 28 76 100 86 65 51 66 100 100 89 100 95 82 79 81 88 58 40 45 55 47 45 55 54 51 41 32 32 38 36 34 37 33 38 38 32 29 28 30 43 66 75 74 82 67 66 68 66
11 12 40 85 100 90 84 64 86 86 100 100 94 94 71 80 88 85 46 51 56 51 48 53 59 57 50 38 40 39 38 39 40 36 38 34 30 27 24 26 40 73 86 92 77 67 66 72 72
11 12 12 22 100 100 100 76 64 85 99 100 100 94 66 70 77 88 70 51 61 62 57 60 64 66 50 46 42 41 46 52 45 43 39 34 29 27 22 29 56 96 84 71 66 61 70 79 82
11 12 15 17 96 100 88 100 95 77 81 100 98 99 87 74 91 98 82 79 68 60 62 66 68 64 62 51 45 41 41 45 47 48 39 35 30 23 24 35 59 71 71 66 61 66 79 85 82
10 11 14 24 60 84 92 100 100 94 94 100 100 100 100 96 97 96 97 82 85 84 79 72 69 69 68 60 50 43 42 40 43 46 40 34 32 25 25 42 52 56 64 63 63 73 81 84 85
11 11 13 16 48 80 100 100 93 96 74 99 100 100 100 98 88 100 91 90 83 92 86 80 80 71 63 63 57 52 47 42 46 42 39 35 32 26 25 35 45 50 58 62 70 79 86 85 85
11 10 14 16 16 73 99 100 93 90 86 96 100 100 93 100 89 97 100 100 90 80 90 98 83 66 59 64 66 61 50 44 46 45 39 36 34 27 25 29 40 47 60 62 72 76 83 86 90
12 10 12 14 13 31 100 100 93 94 97 100 100 100 100 100 93 84 99 99 100 94 80 95 82 69 71 57 65 64 51 44 51 50 42 39 37 31 30 30 38 45 58 62 62 64 71 84 81
11 10 11 15 16 28 99 100 96 81 100 100 100 100 100 100 95 98 98 100 98 94 88 80 84 77 77 56 64 56 46 42 50 49 44 42 40 37 34 36 40 47 53 50 57 70 66 64 70
12 12 12 13 15 15 64 100 100 86 78 95 100 100 100 100 100 100 97 98 95 88 91 92 86 80 81 62 48 45 42 47 45 47 51 50 43 40 38 40 45 44 45 52 53 56 68 71 76
13 15 10 12 14 15 35 99 100 100 82 93 100 100 100 100 100 100 100 94 90 90 89 98 100 97 84 70 48 46 43 44 44 42 43 48 52 48 48 49 54 57 58 63 67 73 77 81 84
15 12 14 16 11 18 16 50 100 99 99 93 100 100 100 100 100 100 100 100 95 89 93 100 96 89 88 86 65 56 52 45 43 46 44 41 44 55 59 58 58 60 68 71 74 77 78 81 79
18 16 16 12 11 16 18 18 97 100 100 100 94 98 100 100 100 100 100 100 100 100 100 95 94 98 97 96 87 74 66 56 52 51 47 46 47 48 52 60 66 68 70 73 76 76 77 82 79
15 15 16 12 12 16 18 16 26 100 100 96 100 83 80 100 100 100 100 100 100 100 100 92 95 99 100 100 100 99 87 72 62 60 58 55 55 54 54 54 62 67 73 80 85 79 80 80 81
16 19 18 14 12 13 16 18 19 78 100 100 100 100 98 100 100 100 100 100 100 100 100 94 99 100 100 99 100 100 100 95 83 70 68 67 64 62 61 64 64 62 64 67 73 74 79 78 79
18 17 18 15 13 13 16 19 19 19 74 86 100 100 100 100 100 100 100 100 100 100 100 95 96 93 95 100 90 88 96 100 100 92 83 79 78 76 70 69 69 74 74 78 76 76 77 78 79
15 17 18 15 15 15 18 19 19 20 53 81 100 100 100 100 100 100 100 100 100 100 100 100 100 100 93 96 100 100 100 100 100 99 94 96 94 94 91 88 84 85 88 91 93 94 90 91 95
17 21 21 20 17 16 17 18 20 21 20 47 40 73 100 100 100 100 100 100 100 100 100 100 100 100 100 100 89 100 100 100 100 100 100 100 100 100 100 100 100 100 100 100 100 100 100 100 100
11 12 18 21 21 20 19 21 18 18 20 24 29 43 85 100 100 100 100 100 100 100 100 100 100 100 100 100 100 100 100 89 80 75 77 80 95 100 100 100 100 100 100 100 100 100 100 100 99
13 14 19 23 22 21 19 21 19 20 22 24 26 28 48 77 100 100 100 100 100 100 100 100 100 100 100 100 100 100 100 88 82 81 77 83 89 100 100 100 100 100 100 100 100 100 98 100 100
12 14 14 22 24 24 18 21 19 21 23 24 26 26 33 55 72 96 100 100 100 99 100 100 100 100 100 100 100 100 100 100 94 97 98 100 100 100 100 100 100 100 100 100 100 100 100 100 100
13 13 14 17 23 21 20 20 20 23 23 25 24 23 24 26 60 80 100 100 100 100 100 98 100 100 100 100 100 100 100 100 100 100 100 100 100 100 100 100 94 99 100 100 100 100 100 100 100
13 13 14 13 15 20 23 23 22 26 24 23 22 22 23 24 22 26 78 99 100 100 100 100 100 100 97 99 100 100 98 100 100 100 100 100 100 100 100 100 100 100 100 100 100 100 100 100 100
13 14 14 13 13 16 19 24 29 26 26 23 20 21 21 23 25 25 25 58 100 100 100 100 100 100 100 100 100 100 100 100 100 100 100 100 100 100 100 100 100 100 100 100 100 100 100 100 100
14 14 15 15 15 15 16 20 29 29 26 22 21 21 23 22 24 24 23 24 28 65 100 100 100 100 100 100 100 100 96 96 97 100 100 100 100 100 100 100 100 100 100 100 100 100 100 100 100
15 16 16 16 17 18 20 17 22 29 28 25 24 23 23 24 25 24 24 24 23 23 34 90 100 100 100 100 95 94 96 99 100 100 97 98 100 100 100 100 100 100 100 100 100 100 100 100 100
16 17 18 17 18 18 20 18 16 20 26 27 27 25 23 24 24 26 25 24 25 24 23 28 64 100 100 100 100 100 100 100 100 100 99 100 100 100 100 100 100 100 100 100 100 100 100 100 100
18 16 17 18 18 18 18 18 17 18 19 23 28 28 25 24 24 24 26 27 25 24 26 26 26 33 63 100 100 100 100 100 100 100 100 100 100 100 100 100 100 100 100 100 100 100 100 100 100
22 21 19 17 19 18 19 17 19 23 22 19 20 21 22 25 26 24 25 25 26 26 25 25 25 25 26 28 38 64 90 100 100 100 100 100 100 100 100 100 100 100 100 100 100 100 100 100 100

GFSSGP_250_rhum_078.txt.gz
RH
41 100 99 97 89 66 100 83 83 91 94 93 94 81 90 92 83 77 87 93 92 84 74 73 67 60 48 45 48 46 45 46 48 40 38 37 39 39 38 38 34 32 38 46 72 86 88 79 68
10 99 100 89 83 61 94 100 84 98 72 99 97 99 92 93 79 89 88 86 96 99 88 80 77 73 51 47 45 42 37 32 34 37 35 33 35 38 39 34 30 27 34 47 66 66 75 80 70
10 35 100 100 88 67 87 99 100 58 84 100 100 100 100 69 79 78 62 63 70 72 78 85 71 73 53 48 47 42 37 33 30 39 36 38 34 36 35 31 28 24 29 42 77 88 92 76 67
10 9 65 94 100 86 99 100 100 96 95 99 94 97 100 89 76 84 79 70 67 66 50 48 60 55 49 58 54 43 44 36 35 34 36 37 38 42 36 30 28 24 29 65 90 84 69 66 64
9 10 11 53 100 100 100 95 95 100 85 97 95 98 100 87 76 86 80 80 77 70 46 50 53 51 48 51 57 50 41 41 36 38 42 40 43 46 39 32 27 23 33 57 72 71 65 61 66
10 8 9 17 92 100 100 94 92 100 90 74 100 100 100 100 100 79 88 86 92 84 55 50 60 61 55 55 63 62 48 45 42 41 38 40 39 44 40 34 29 24 37 56 60 61 61 59 63
10 9 9 11 32 67 81 100 100 100 92 91 100 100 100 89 81 70 70 81 99 89 72 57 61 64 60 65 66 68 62 52 47 45 42 40 41 42 38 35 29 29 37 48 48 49 55 59 62
13 10 10 13 13 14 35 81 100 100 81 96 100 100 100 100 100 92 78 76 84 100 100 74 87 78 67 74 71 71 67 58 52 50 50 43 44 43 38 36 31 33 33 40 43 42 47 57 64
14 10 9 12 14 12 13 76 69 100 100 100 100 100 100 100 70 97 86 72 88 95 100 100 87 96 90 82 80 78 64 63 61 62 57 47 44 45 39 37 34 32 34 33 37 42 48 56 58
12 9 10 15 14 13 15 52 56 97 100 100 100 100 100 100 100 96 98 70 84 97 94 92 88 85 100 92 94 73 64 63 67 70 59 49 48 48 41 38 39 36 34 36 39 46 48 51 54
8 10 16 14 13 13 16 19 76 57 100 100 100 100 100 100 100 94 83 87 78 89 86 74 86 99 96 93 96 79 72 66 60 75 53 47 47 48 42 41 40 39 37 38 46 47 46 50 52
8 14 18 11 14 14 15 22 69 41 92 100 100 100 100 100 100 100 76 91 88 89 96 72 82 84 100 92 94 87 76 68 52 56 47 47 49 47 44 46 45 42 42 41 46 47 51 52 59
9 15 15 11 16 15 15 19 27 78 64 100 100 100 100 99 100 100 100 95 76 98 81 77 76 78 90 94 89 90 82 76 64 50 45 43 49 51 51 52 49 44 45 51 53 54 60 66 66
10 14 16 16 18 14 15 18 20 57 71 90 100 100 100 100 100 100 100 98 100 98 93 93 100 78 86 100 95 92 89 86 81 64 54 50 47 50 52 55 55 55 59 60 61 64 68 71 69
10 15 20 16 13 16 16 20 19 22 96 83 91 100 100 100 100 100 100 100 100 100 100 96 82 96 94 100 100 98 91 91 95 88 74 69 63 54 54 53 58 62 62 63 65 65 65 67 69
10 13 18 19 23 22 16 16 19 20 29 99 52 92 100 100 100 100 100 100 97 96 100 83 75 96 94 98 100 100 98 98 92 95 97 97 86 74 63 64 63 65 66 68 70 69 71 74 80
11 13 19 16 19 24 20 16 19 17 20 54 92 60 87 99 100 100 100 100 100 100 100 76 95 95 99 100 100 100 99 99 96 100 100 100 100 100 98 89 79 80 81 78 76 76 76 80 87
11 14 20 20 24 20 19 13 15 18 21 25 98 67 76 85 99 100 100 100 100 100 100 100 87 90 97 99 100 100 100 100 100 100 96 97 97 100 100 100 97 96 97 92 94 97 98 100 100
14 17 23 30 27 28 20 14 11 16 18 20 31 100 64 91 99 100 100 100 100 100 100 100 100 96 100 100 100 100 100 100 100 100 100 100 100 100 100 100 100 100 100 100 100 100 100 100 100
12 15 20 28 26 29 24 16 11 14 16 17 20 71 95 73 89 98 100 100 100 100 100 100 100 97 96 99 97 91 96 100 100 100 100 100 89 99 100 100 94 96 100 99 100 100 100 100 100
10 13 20 23 30 35 20 16 9 16 17 18 21 24 94 99 81 84 96 100 100 100 100 100 100 100 100 86 94 97 98 100 100 100 100 98 95 99 88 84 86 89 96 100 100 100 100 100 100
10 15 20 24 31 29 20 17 13 15 19 22 22 23 21 74 68 80 94 91 96 100 100 100 100 100 100 99 94 91 99 100 100 100 100 100 100 100 91 79 98 96 100 100 100 100 100 100 100
13 17 19 23 32 23 16 19 16 17 19 20 21 19 23 23 67 57 79 91 99 99 100 100 100 100 100 100 100 100 100 89 99 100 100 100 100 100 100 100 100 100 100 100 100 100 100 100 100
11 14 17 20 23 20 18 22 21 21 18 20 22 20 22 24 24 48 44 99 94 100 100 100 100 100 100 100 100 100 100 100 100 98 100 100 100 100 100 96 100 94 96 99 100 100 100 100 100
11 13 16 15 14 20 23 23 32 22 27 22 20 21 21 22 24 23 31 73 100 100 100 100 100 100 100 100 100 100 100 100 100 100 100 100 100 100 100 100 100 100 100 100 100 100 100 100 100
12 12 15 16 16 20 28 27 32 28 31 26 22 22 22 20 21 25 23 28 82 82 86 100 100 100 100 100 100 100 100 100 100 100 100 100 100 100 100 100 100 100 100 100 100 100 100 100 100
12 13 14 14 15 15 15 18 25 34 28 26 22 23 23 22 22 24 26 25 30 58 57 78 78 89 95 100 100 100 100 100 100 100 100 100 100 100 100 100 100 100 100 100 100 100 100 100 100
14 13 13 14 15 15 15 15 17 28 28 28 26 24 24 23 21 22 24 27 28 29 46 68 73 79 84 87 97 100 100 100 100 100 100 100 99 100 100 100 100 100 100 100 100 100 100 100 100
14 14 14 16 16 15 15 14 16 17 19 23 27 24 24 23 23 22 24 26 30 30 30 31 34 40 53 61 76 90 93 100 97 97 96 94 96 96 96 96 95 100 100 100 100 100 100 100 100
18 16 15 15 16 15 14 15 16 17 17 16 18 22 24 28 27 28 27 25 26 28 28 28 28 28 28 28 28 29 36 50 59 62 62 56 60 75 83 92 86 89 99 94 96 100 100 100 100

GFSSGP_250_rhum_081.txt.gz
RH
13 11 19 54 76 54 57 59 90 94 100 100 82 82 81 74 64 100 97 91 89 82 81 70 62 58 64 78 72 65 53 50 52 48 51 53 43 36 33 34 35 39 38 33 33 40 65 76 80
12 12 14 16 62 52 75 74 67 100 100 100 99 69 88 81 88 84 97 95 96 96 89 88 84 75 59 69 66 58 48 42 44 43 37 33 35 37 34 35 38 37 32 30 27 36 51 76 88
13 14 10 16 42 59 95 86 86 100 100 100 83 93 89 77 81 77 85 89 89 84 89 91 93 89 78 71 69 62 51 44 44 42 38 35 33 37 40 35 38 38 30 28 28 34 55 97 92
12 17 12 11 29 97 100 100 100 100 100 100 99 90 94 72 72 100 97 91 93 90 83 90 91 93 94 84 74 69 56 42 42 38 36 37 38 34 40 38 42 39 34 28 26 31 63 69 74
8 16 13 10 23 100 100 99 100 99 100 100 100 100 100 84 71 89 90 81 82 81 71 70 75 76 70 80 74 61 54 42 42 41 40 40 38 39 42 38 45 44 35 32 27 36 51 61 64
7 14 15 11 42 100 100 99 100 100 100 85 100 100 100 69 68 70 76 80 62 68 68 59 62 67 58 48 53 57 47 42 45 51 43 42 41 41 40 41 42 44 36 34 31 36 45 52 50
7 12 16 15 15 100 100 100 100 98 100 74 100 100 100 69 100 100 83 71 73 74 76 75 83 77 50 49 55 59 50 54 61 62 56 49 47 46 43 43 43 41 36 35 30 34 43 46 41
7 11 18 18 15 27 100 100 100 100 100 100 69 100 100 86 100 100 76 87 100 96 89 84 86 86 68 51 58 62 62 62 66 68 67 59 52 50 50 45 43 42 38 37 32 36 38 41 40
7 9 16 20 16 13 56 100 100 86 100 100 99 93 100 100 100 96 84 91 100 100 100 100 95 87 78 65 57 60 62 68 72 70 73 61 58 60 56 51 44 45 40 38 36 34 36 34 35
6 8 17 22 17 13 16 78 100 87 100 100 100 96 92 100 100 100 88 98 93 100 96 99 90 98 100 88 80 74 76 82 74 76 70 63 70 73 69 54 45 44 44 38 38 38 36 36 38
5 9 17 22 19 15 13 17 100 100 91 87 100 100 82 100 100 100 83 100 73 100 100 96 87 81 100 100 100 83 84 82 78 76 65 70 66 69 76 55 46 46 44 41 40 41 38 39 42
6 8 16 22 22 16 13 15 25 98 100 98 100 100 94 93 100 100 92 83 99 100 100 100 100 99 90 100 100 96 81 89 86 83 73 71 64 54 66 51 42 46 46 46 44 44 42 46 51
6 9 14 20 26 20 15 15 16 60 91 100 100 100 100 84 100 100 90 100 63 95 90 100 100 100 100 98 99 94 87 89 86 88 83 78 70 56 51 45 39 41 46 47 46 48 49 52 55
7 12 15 21 26 26 19 15 14 27 40 63 100 100 100 84 90 100 100 90 90 87 77 92 100 95 91 76 100 100 100 88 84 78 84 81 84 73 59 52 49 48 47 48 50 49 52 54 57
7 11 16 22 28 37 22 18 16 27 100 62 65 95 100 100 100 100 100 88 88 88 76 71 91 100 100 73 92 100 100 100 100 95 94 91 86 89 83 74 70 71 68 59 60 61 63 64 66
6 8 13 19 22 27 21 20 20 16 50 99 62 38 96 100 100 100 100 100 94 85 100 92 98 100 100 80 100 100 100 100 100 100 100 100 100 97 100 98 93 94 87 82 81 72 70 74 81
8 9 15 18 22 32 26 19 20 17 19 43 79 48 45 100 100 95 100 100 100 99 100 83 74 94 100 84 78 100 100 100 100 100 100 100 100 100 100 100 100 100 100 100 100 100 97 93 91
7 8 10 12 15 19 24 15 20 20 21 18 19 72 25 69 100 100 99 92 100 100 100 98 92 72 100 100 84 84 100 100 100 100 100 100 100 100 100 100 100 100 100 100 100 100 100 100 100
8 8 10 14 14 16 20 12 19 20 19 21 19 28 56 27 96 100 100 100 90 96 94 96 96 89 74 100 95 90 100 100 100 100 100 100 100 100 100 100 100 100 100 100 100 98 99 99 98
9 9 10 15 16 19 18 23 16 21 18 18 22 21 51 37 35 100 100 100 100 100 96 83 74 84 79 100 99 100 100 100 100 100 100 100 100 100 100 100 100 100 100 100 100 100 100 100 100
10 9 13 15 17 14 17 22 22 15 17 22 21 22 21 65 41 72 100 100 100 100 100 100 86 88 89 92 93 99 91 100 100 100 100 100 100 100 100 100 100 100 100 100 100 100 100 100 100
11 11 11 18 20 14 14 20 16 17 13 19 21 21 22 22 100 88 58 100 100 100 100 100 100 100 88 97 99 100 100 100 100 100 100 100 100 100 93 100 100 100 100 100 100 100 100 100 100
9 10 10 15 20 16 17 18 18 14 13 13 19 20 20 23 24 99 100 77 86 100 100 100 100 100 100 100 100 100 100 100 100 100 100 100 100 100 100 100 100 100 100 99 100 99 96 80 87
10 11 12 14 19 18 18 20 17 18 12 15 17 20 20 19 23 23 96 100 100 84 100 100 100 100 100 98 99 100 98 90 96 99 98 100 100 100 100 100 100 100 100 97 92 87 81 78 82
12 12 16 18 15 18 19 22 18 16 17 20 19 17 21 20 22 25 24 75 100 100 94 93 100 100 100 100 100 100 100 100 100 100 100 100 100 100 100 100 100 100 97 100 100 100 100 100 100
12 13 16 16 17 18 20 22 21 26 19 21 18 20 22 23 21 24 27 27 43 100 100 100 97 88 99 100 100 100 100 100 100 100 100 100 100 100 100 100 100 100 100 100 96 99 100 100 100
14 13 15 13 15 16 19 22 21 18 19 23 23 21 21 21 24 22 22 28 29 28 80 100 100 100 100 91 91 98 99 100 100 100 100 100 100 100 100 100 98 97 100 100 100 93 96 100 100
14 12 13 14 14 16 18 18 20 23 22 30 31 27 23 24 24 23 22 24 28 28 28 28 33 91 100 100 100 96 92 92 92 94 100 100 98 100 100 100 99 92 90 92 92 92 97 99 100
15 13 13 14 15 15 16 18 23 22 18 20 26 28 26 25 25 24 23 22 27 29 28 27 27 25 37 90 100 100 93 87 87 84 82 80 82 87 82 67 76 83 81 80 77 82 85 97 100
17 16 15 14 15 15 16 17 19 19 18 17 19 26 30 31 31 30 28 25 25 25 27 28 28 27 27 26 27 34 76 100 98 72 47 41 49 45 42 42 41 48 54 69 76 79 81 79 89

GFSSGP_250_rhum_084.txt.gz
RH
4 7 10 15 14 10 61 79 76 88 100 91 98 92 70 85 82 76 96 100 100 100 87 74 52 51 58 58 56 58 58 64 63 62 53 52 48 42 39 39 36 35 34 35 36 34 36 32 50
3 5 9 14 12 9 38 82 76 81 100 75 89 100 92 70 95 90 82 84 92 100 100 94 67 62 64 58 53 54 60 66 61 58 46 42 46 42 37 33 34 37 36 36 36 30 29 31 46
3 4 8 12 14 10 42 77 74 77 100 98 100 100 100 82 90 91 89 78 76 94 94 91 77 71 68 65 62 59 52 59 58 54 47 45 43 39 35 36 35 35 35 38 39 32 28 28 30
3 4 6 8 16 14 23 68 95 81 72 100 90 92 97 97 86 93 99 84 81 84 89 81 77 74 76 74 79 75 61 56 59 58 53 47 39 36 35 39 40 39 38 39 44 34 32 30 31
3 4 5 7 16 22 18 72 94 91 76 100 100 100 83 94 90 92 78 84 86 78 83 83 85 81 77 75 77 81 82 83 74 64 56 49 40 37 36 39 41 42 41 42 44 38 35 34 32
3 4 4 6 17 34 19 35 59 82 96 91 100 100 62 96 87 100 84 90 78 72 80 77 85 77 71 73 72 78 78 67 71 56 54 47 50 49 43 40 42 42 40 40 41 39 36 33 32
4 5 4 9 19 45 25 22 33 91 99 97 98 100 97 93 99 100 86 78 89 70 66 69 78 84 82 68 62 68 66 55 47 51 49 51 65 62 59 50 46 46 46 43 43 41 38 36 32
5 5 5 9 16 25 35 21 31 78 100 100 98 100 100 100 100 93 78 74 94 99 100 97 84 95 83 70 62 75 64 46 48 52 50 62 67 68 67 61 52 51 55 51 45 43 39 38 35
5 5 5 9 15 23 27 22 22 34 78 100 100 98 100 100 100 73 76 100 100 100 100 100 100 98 84 84 83 82 73 52 47 59 61 61 66 65 69 66 66 65 61 59 48 47 46 38 37
5 5 6 8 16 18 29 23 22 30 72 99 100 97 100 100 80 81 98 68 100 88 100 97 100 100 100 100 97 89 79 73 53 55 58 66 72 69 72 62 68 63 63 62 48 50 48 42 40
4 6 7 8 13 17 28 28 38 24 55 100 100 99 100 100 100 87 83 92 86 100 100 100 92 98 100 98 100 100 95 86 70 71 72 75 76 76 70 64 66 54 60 66 53 46 47 45 43
4 7 8 9 12 16 23 27 35 52 59 100 100 100 82 100 100 84 96 70 100 100 94 100 100 100 100 100 100 100 90 100 100 91 85 87 86 88 74 70 65 52 50 51 45 40 42 43 46
4 6 10 10 11 14 20 27 32 100 56 100 100 100 93 93 100 97 100 74 97 100 100 100 99 95 99 98 98 100 100 97 99 98 96 92 90 91 88 77 69 64 54 52 47 46 47 47 49
5 7 11 14 13 14 18 28 36 100 100 100 100 100 99 59 78 100 100 100 82 100 100 100 100 100 100 100 100 100 100 100 100 99 92 92 95 88 87 86 79 74 69 62 59 63 67 71 65
5 6 11 16 12 13 17 24 29 100 100 100 100 100 100 91 67 87 100 100 94 100 100 100 100 100 68 100 100 100 100 100 100 100 100 100 100 100 100 95 89 83 79 82 80 76 76 80 83
5 7 9 12 12 13 13 23 28 28 100 100 100 100 100 100 91 75 64 91 92 98 100 100 100 94 96 100 100 94 100 100 100 100 100 100 100 100 100 100 100 98 91 92 88 84 87 97 100
5 6 8 9 8 19 9 18 25 29 41 100 100 100 100 100 98 93 79 100 100 100 95 100 97 68 95 100 77 73 95 100 100 100 100 98 100 100 100 100 100 100 100 97 100 100 100 100 100
5 7 8 8 9 12 15 17 24 31 28 56 100 100 100 100 100 98 89 90 100 100 100 100 97 70 100 100 89 82 82 100 100 100 100 100 100 100 100 100 100 100 100 100 100 100 100 100 100
6 9 11 11 10 12 25 16 23 28 31 25 100 71 47 100 100 100 100 100 96 100 92 86 96 98 100 83 84 100 100 98 68 88 100 100 100 100 100 100 100 100 100 100 100 100 100 100 100
8 9 12 14 11 12 19 23 18 26 32 29 33 100 72 51 100 100 100 100 96 100 100 100 100 100 100 72 63 90 100 100 100 100 100 100 100 97 89 90 100 98 100 100 100 100 100 100 100
12 10 14 17 15 16 28 19 16 17 25 30 27 28 98 68 58 100 100 100 100 93 100 100 100 100 100 100 99 81 65 99 99 100 100 100 100 100 100 100 100 100 100 95 100 93 96 100 100
8 9 12 13 17 15 15 20 19 16 18 25 30 26 26 97 82 48 100 100 100 100 100 100 100 100 95 94 100 100 83 90 88 90 66 86 94 98 100 93 90 100 100 100 100 100 100 100 99
9 10 11 11 14 18 16 15 19 17 12 19 29 35 29 25 99 100 97 100 100 100 94 94 100 99 100 100 100 100 100 100 83 91 100 57 72 84 84 92 100 100 100 100 77 74 86 89 88
8 10 11 10 12 15 12 11 14 16 13 14 18 24 30 26 70 100 100 100 100 100 100 100 100 95 86 80 79 73 78 99 94 100 100 100 100 100 98 97 96 100 100 100 100 100 100 100 100
9 9 9 12 12 13 11 11 14 13 15 12 10 18 26 32 29 51 100 100 100 98 100 100 100 100 100 100 100 100 100 100 100 100 100 100 100 100 100 100 100 100 100 100 100 100 88 84 86
13 10 10 11 10 11 12 13 11 12 13 11 12 11 15 23 34 32 28 43 55 100 98 67 100 100 100 100 100 100 100 100 100 100 93 88 92 100 95 89 87 79 72 63 71 83 79 78 87
16 14 13 12 12 12 13 14 14 14 19 18 18 14 18 23 25 34 32 29 28 30 62 100 82 70 99 100 100 100 100 100 100 100 100 100 99 98 99 100 100 100 99 94 95 100 100 100 100
17 16 14 12 12 14 15 14 13 17 19 18 19 17 16 17 20 25 32 34 32 32 31 37 97 100 95 87 100 100 100 100 100 100 100 100 100 100 100 100 100 100 100 100 100 100 100 100 99
19 19 17 15 12 11 12 16 17 17 17 18 15 15 15 14 15 21 30 36 36 36 32 31 31 33 71 100 100 100 98 95 92 92 95 100 100 99 98 90 96 99 96 90 94 93 94 94 100
14 16 16 16 15 13 14 16 17 15 15 17 16 15 17 21 22 25 31 35 36 34 34 31 28 27 29 27 35 68 100 100 100 100 100 90 92 84 78 68 68 70 79 75 80 77 78 68 62

GFSSGP_250_rhum_087.txt.gz
RH
3 4 4 6 7 7 8 11 23 83 100 85 82 77 68 58 44 64 85 100 95 100 96 77 74 68 51 40 39 38 45 44 46 41 38 47 64 54 45 46 41 38 34 34 35 34 35 33 28
2 2 3 5 5 7 8 10 16 78 100 70 86 77 64 70 64 63 80 84 89 100 100 100 99 90 77 53 41 42 46 44 44 44 42 48 49 50 42 41 37 33 32 33 36 36 35 37 30
2 2 2 3 5 8 10 12 17 46 100 98 96 69 77 80 82 72 100 90 92 100 100 100 100 93 88 78 62 50 54 50 51 49 48 47 44 44 46 42 35 33 32 35 39 38 35 42 34
2 2 2 2 4 11 12 16 21 31 94 100 71 77 76 100 100 94 88 94 100 100 97 90 97 94 92 88 77 64 62 59 64 70 54 52 51 47 49 46 37 34 35 37 41 40 40 43 40
2 2 2 2 4 11 17 18 22 34 88 100 100 71 80 98 100 100 95 77 83 100 100 86 79 90 86 85 75 71 74 69 67 72 72 72 61 55 50 45 42 42 38 38 39 40 42 42 41
2 2 1 2 4 12 27 18 16 40 53 100 100 93 98 84 100 100 100 92 80 79 96 96 90 87 86 89 86 86 80 70 68 67 74 64 57 51 45 44 52 50 50 46 45 46 46 44 43
1 2 2 2 4 10 33 21 17 30 56 94 100 100 76 66 78 93 83 97 96 76 91 92 89 97 98 100 99 96 90 81 70 68 70 61 49 42 42 51 57 60 60 55 49 50 55 51 46
2 2 2 3 4 9 28 26 27 22 59 67 100 100 92 66 81 91 86 85 89 85 80 74 68 87 100 100 100 100 100 89 73 67 67 52 44 44 46 59 62 58 63 57 54 58 62 58 51
2 2 2 4 5 11 22 28 26 21 39 40 97 100 100 60 100 62 100 100 96 77 69 87 86 99 100 100 100 100 96 97 69 71 76 53 47 46 56 61 68 64 68 61 57 60 66 66 48
2 3 4 5 10 12 20 45 26 26 33 57 89 100 100 97 100 100 100 100 100 94 100 100 100 100 98 84 97 100 100 99 88 88 85 76 56 51 56 61 72 69 70 63 63 51 59 55 49
3 4 4 7 10 11 18 30 35 33 33 70 100 88 100 100 99 100 89 76 99 100 100 89 62 54 72 69 79 97 97 86 86 92 82 84 77 60 61 68 70 73 73 65 68 57 47 50 41
3 4 6 6 9 10 16 24 89 47 64 70 100 99 100 100 100 100 99 76 94 100 100 91 78 84 100 96 100 100 83 84 96 98 98 100 100 100 85 78 78 78 82 76 71 67 57 51 51
4 4 6 7 10 10 14 25 89 63 72 78 100 99 86 100 100 100 98 100 83 79 100 100 100 99 91 97 100 100 97 100 100 100 100 100 100 100 100 87 86 89 85 78 74 70 65 60 60
4 4 5 7 10 11 15 24 34 100 68 77 100 100 96 95 100 100 100 100 57 100 100 100 100 100 99 100 99 100 100 100 92 100 100 100 100 100 100 100 91 92 94 84 83 78 72 71 79
3 3 4 9 11 13 15 23 36 68 100 74 100 100 100 83 100 100 100 100 65 100 100 100 100 100 100 100 100 100 100 100 100 97 100 100 100 100 100 100 100 100 100 100 94 91 94 90 96
4 4 6 12 12 11 14 18 33 42 100 88 100 100 100 98 89 100 100 89 83 82 100 100 100 100 100 100 100 88 99 100 100 100 100 100 100 100 100 100 100 100 100 100 100 100 100 100 100
4 5 6 9 12 14 16 18 23 40 99 100 100 100 100 100 85 99 100 100 70 89 100 100 100 100 100 100 100 73 99 100 100 100 100 100 100 99 100 100 100 100 96 100 100 100 100 100 100
5 6 7 11 12 14 21 20 29 37 46 100 100 100 100 100 74 100 100 100 100 100 100 100 100 100 100 100 99 75 98 100 84 76 100 96 95 100 100 100 100 100 100 100 100 94 100 100 100
8 7 8 11 20 28 35 30 20 32 43 44 100 100 100 100 100 74 100 100 100 100 100 100 100 100 100 100 100 100 100 100 96 64 70 92 100 100 100 100 100 100 100 100 100 93 100 100 100
6 6 7 10 10 13 14 27 33 22 33 44 97 100 100 100 100 100 89 100 97 89 100 100 100 100 100 100 100 92 100 92 89 90 77 100 98 100 94 98 95 96 95 98 86 90 95 92 98
7 7 8 11 11 13 17 24 23 17 27 41 67 100 100 100 100 100 100 89 88 82 86 100 100 100 100 100 100 96 100 100 100 100 100 100 100 100 100 88 91 78 81 54 42 44 67 80 78
8 8 9 10 12 12 12 17 12 22 21 36 44 64 100 100 100 100 100 94 100 80 73 74 98 100 100 100 100 100 98 100 100 100 91 86 100 100 100 100 100 97 100 98 83 70 56 64 68
10 9 11 14 11 12 12 13 16 15 20 24 38 43 87 100 100 100 100 100 100 98 79 74 70 72 100 100 97 100 100 100 100 99 100 73 51 73 100 100 100 100 100 96 98 94 86 64 63
11 11 11 13 13 12 11 11 15 13 14 17 28 42 42 100 100 100 100 100 100 100 98 78 69 81 83 98 100 96 100 100 100 94 100 100 95 69 65 100 100 100 100 98 66 60 68 68 70
9 12 14 14 13 10 10 10 14 15 11 12 21 34 42 40 85 100 100 100 100 100 99 100 100 90 74 80 100 96 97 100 100 100 100 100 100 100 100 100 100 99 83 89 91 85 94 89 92
10 10 12 12 8 8 9 9 14 14 14 14 14 23 35 43 41 56 100 100 80 100 100 100 100 100 100 100 100 100 100 100 100 100 100 100 100 100 100 100 100 100 100 98 94 98 87 97 100
14 12 10 10 8 9 12 10 9 14 19 17 12 13 24 36 40 38 33 96 100 78 62 97 100 100 100 100 100 100 100 96 100 100 100 100 100 100 99 99 89 89 93 89 100 100 100 100 100
18 16 13 11 10 10 11 10 9 9 13 14 14 14 16 23 35 43 43 34 68 100 100 85 64 75 83 100 100 100 100 100 100 100 94 96 88 83 77 80 82 94 97 98 100 100 95 99 100
20 21 17 13 11 12 13 14 14 12 10 12 15 17 15 15 19 28 33 40 41 37 75 100 100 100 100 99 100 100 100 100 100 100 100 100 100 100 100 100 100 100 100 100 100 100 100 100 97
12 17 23 21 17 13 14 16 16 11 11 10 14 15 16 16 16 16 20 28 38 43 40 34 42 95 100 100 100 100 100 100 100 100 100 100 100 100 100 100 100 100 100 100 100 100 100 100 98

GFSSGP_250_rhum_090.txt.gz
RH
10 5 4 4 5 6 6 9 11 13 15 34 58 93 76 69 86 60 81 97 96 91 100 100 96 84 73 72 57 43 38 39 34 33 28 28 28 29 52 59 50 42 39 35 32 30 32 35 33
12 10 5 4 3 4 6 8 10 13 13 20 40 94 95 85 80 77 68 82 83 100 99 91 100 91 78 69 62 57 56 43 39 41 41 39 36 32 36 41 44 43 43 34 32 32 34 36 35
10 9 7 3 2 4 6 8 9 13 14 54 13 57 96 99 95 96 84 73 78 99 100 95 97 100 87 76 72 73 73 56 45 47 52 48 50 48 43 40 38 40 41 36 34 34 37 37 39
9 8 7 4 2 4 6 6 8 10 15 21 22 61 85 99 99 94 93 74 79 87 100 100 100 100 96 92 85 79 75 72 67 58 61 59 63 61 50 50 47 44 42 39 38 38 41 42 42
6 6 5 4 3 3 4 5 6 9 17 17 91 56 53 98 100 100 100 95 79 78 86 100 100 99 97 87 81 76 78 84 79 70 69 68 65 64 63 56 54 42 40 42 46 48 46 45 48
3 3 3 3 2 3 4 4 4 8 17 19 40 100 71 75 97 100 100 100 100 96 84 94 100 100 100 86 85 90 84 77 80 80 75 75 65 64 62 52 47 41 40 47 52 52 54 50 51
2 2 2 2 2 2 3 4 3 8 17 19 40 94 97 79 99 100 93 100 100 100 95 83 84 96 100 89 89 90 87 83 88 87 75 76 78 68 57 52 44 43 46 56 56 54 57 52 53
1 1 1 1 2 2 3 4 4 8 15 24 32 91 100 78 86 92 94 100 100 99 96 76 73 68 74 94 97 100 100 96 90 93 83 78 79 60 57 49 42 44 52 62 64 61 60 58 52
1 1 1 1 1 2 4 5 5 8 16 22 64 100 100 100 100 76 86 100 100 99 100 87 93 85 82 76 81 84 93 94 95 92 86 86 72 60 60 54 46 48 54 61 64 65 63 60 58
1 1 1 1 2 3 4 6 8 10 15 24 100 99 100 100 98 98 100 97 99 99 91 82 100 100 94 78 85 94 100 95 90 99 100 92 80 62 61 56 60 51 54 61 66 68 70 66 63
1 1 2 2 3 4 5 7 8 12 15 38 75 100 100 100 99 81 74 85 88 100 100 100 99 100 98 100 100 100 98 75 66 77 100 98 78 77 69 60 65 60 60 68 68 68 76 80 72
1 2 2 2 4 5 6 8 9 15 20 36 44 95 100 100 100 65 100 100 100 98 100 100 100 100 100 95 77 68 42 52 89 95 100 94 81 80 86 95 100 100 86 75 72 76 78 81 73
2 2 3 3 4 10 10 10 12 19 31 41 63 72 100 100 100 88 98 100 100 100 89 84 100 100 94 68 81 60 85 95 100 100 100 100 100 100 100 100 100 100 99 93 83 86 89 92 93
2 2 2 3 5 9 11 13 15 26 50 91 100 94 99 100 100 100 70 100 100 98 100 100 100 100 90 95 100 100 86 100 100 100 100 100 100 100 100 100 100 100 100 99 98 95 97 100 99
2 2 2 3 7 11 12 18 21 29 99 100 100 100 100 100 100 94 68 100 100 99 84 100 98 100 100 100 100 100 78 100 100 100 100 100 100 100 100 100 100 97 100 99 100 100 100 92 90
2 2 2 3 6 10 10 20 21 33 100 100 100 100 100 100 100 100 84 100 97 86 90 100 100 100 89 100 76 100 86 100 100 98 100 100 100 100 99 100 100 100 100 100 98 100 100 100 93
2 2 3 3 5 12 18 18 19 33 86 100 100 100 100 100 100 100 100 100 100 100 100 100 100 100 100 100 100 100 100 100 100 82 81 80 61 90 98 100 100 100 100 99 100 100 95 93 92
3 3 3 4 5 7 9 21 22 27 93 100 100 100 100 100 100 100 100 100 100 100 98 89 100 100 100 100 100 100 100 100 100 90 72 68 71 85 90 100 100 100 95 75 65 59 57 65 66
3 4 4 5 5 14 18 22 20 28 93 100 100 100 100 100 100 100 100 100 100 100 100 100 100 100 100 100 100 100 100 100 99 83 52 52 52 85 100 89 73 72 87 72 79 68 71 73 64
3 4 6 6 6 23 19 24 27 29 40 100 100 100 100 100 100 100 100 100 100 100 100 100 100 100 100 100 100 100 100 100 100 100 71 75 58 79 87 71 42 52 80 73 74 58 79 90 79
4 6 7 6 11 19 26 21 27 34 43 98 100 100 100 100 100 100 96 96 100 100 100 99 100 100 100 100 100 100 100 100 99 92 94 100 88 78 68 92 76 82 74 96 87 56 54 46 50
5 6 6 8 14 24 16 19 22 36 41 51 100 100 100 100 100 100 100 100 100 100 100 90 99 100 100 100 100 100 100 100 100 100 100 100 100 100 98 98 84 100 89 100 100 96 79 67 61
6 6 8 11 19 26 25 26 44 58 45 56 99 100 100 100 100 100 100 100 93 100 100 99 94 100 100 100 100 100 100 100 100 100 100 100 100 100 100 100 89 100 100 100 100 100 100 100 96
7 7 9 14 17 26 22 28 36 64 41 46 52 92 100 100 100 100 100 100 100 85 95 90 100 95 100 100 100 100 100 100 100 100 100 100 100 100 100 100 100 100 100 100 100 100 100 100 100
7 9 12 13 13 14 15 14 24 39 45 36 36 52 97 100 100 100 100 100 100 100 97 100 91 92 95 100 100 100 100 100 100 100 100 100 100 100 100 99 100 100 100 93 94 92 77 68 72
10 10 14 15 16 17 16 14 18 26 33 33 32 50 51 100 100 100 100 100 100 100 79 77 100 100 100 98 100 100 100 100 100 100 100 100 100 100 100 100 100 99 96 98 91 78 79 93 99
10 13 16 15 17 17 15 16 24 22 21 26 24 34 46 56 98 100 100 100 100 100 100 100 91 70 71 64 63 76 88 100 100 100 100 100 100 100 100 100 100 100 100 100 100 100 99 100 100
8 11 12 12 12 12 13 13 18 21 18 15 16 24 31 40 54 56 98 100 100 100 100 100 100 100 100 73 62 54 64 80 80 98 100 100 100 100 100 100 100 100 100 100 100 100 100 100 100
11 12 13 13 12 10 11 12 13 15 14 14 14 12 17 33 43 52 51 88 100 100 100 100 100 100 100 100 100 100 87 98 100 93 83 92 100 100 100 100 100 100 100 100 100 100 99 85 99
16 18 19 16 15 14 13 12 12 14 14 15 15 14 10 14 27 44 53 55 67 100 100 100 100 100 100 91 100 100 100 100 100 99 85 81 80 78 67 64 92 100 100 100 100 100 100 100 70

GFSSGP_250_rhum_093.txt.gz
RH
22 18 11 6 3 3 4 7 10 10 12 16 16 69 76 79 92 93 100 88 83 82 84 75 75 82 80 75 60 52 52 49 40 36 37 35 34 31 27 28 31 56 52 46 39 36 32 30 34
17 18 9 5 4 4 4 6 9 10 13 14 14 18 56 100 100 96 100 92 95 88 93 93 87 83 93 86 77 71 61 51 46 43 42 39 42 44 42 41 32 36 40 40 34 34 33 32 33
14 13 10 6 4 4 4 4 7 11 9 12 11 13 16 64 100 100 100 100 97 97 87 89 93 87 77 82 82 79 72 58 53 56 55 47 46 55 53 56 48 41 40 38 37 35 34 36 38
11 11 8 6 6 6 3 5 6 8 8 9 12 15 14 20 100 100 100 100 87 100 100 97 96 94 92 100 89 90 78 72 66 67 63 60 58 61 61 61 58 53 46 44 36 35 36 44 48
7 8 7 9 11 10 4 5 6 6 8 10 14 17 18 36 53 100 100 100 80 100 100 100 98 95 98 100 98 88 81 75 70 63 65 71 73 69 68 66 61 56 49 46 40 37 40 49 50
5 4 6 8 11 13 8 4 5 5 6 8 10 15 16 25 44 75 100 100 99 97 100 100 100 93 95 91 91 99 85 78 70 69 61 60 60 59 61 71 64 62 53 47 41 40 49 53 56
4 3 4 6 11 10 11 8 4 4 5 6 9 13 41 34 35 71 100 100 100 99 100 100 100 100 98 98 93 93 92 80 76 76 76 78 76 68 71 68 68 58 52 44 41 44 52 60 61
4 2 3 4 6 6 8 7 7 4 5 6 6 10 15 54 38 64 76 100 100 100 95 93 100 100 90 96 94 100 100 88 80 82 82 82 84 78 66 70 65 57 54 46 42 45 54 61 58
3 2 2 3 3 4 4 5 5 5 4 4 6 8 19 100 26 61 55 68 77 100 100 93 99 95 86 87 84 82 94 95 87 95 89 77 100 100 94 78 69 61 60 54 50 50 54 62 62
2 2 2 2 2 2 3 2 2 2 3 3 5 8 17 29 100 74 94 100 100 100 100 98 94 92 99 92 86 83 74 70 75 72 92 100 82 89 85 89 73 61 61 56 53 50 51 54 62
3 3 2 2 2 1 2 2 2 2 2 3 6 10 22 43 100 65 81 96 100 100 100 100 100 88 97 100 100 100 91 98 91 86 96 100 88 77 79 86 79 68 68 67 64 77 65 61 60
2 2 2 1 1 1 1 1 2 2 3 4 10 13 23 98 98 100 100 100 100 100 100 100 100 97 100 100 100 100 100 100 100 100 100 77 65 79 77 98 94 88 83 82 94 91 83 73 77
2 1 1 1 1 1 1 1 2 2 3 6 14 59 29 100 100 83 100 100 97 100 99 100 100 100 100 100 100 100 100 100 100 90 70 69 98 95 100 100 100 100 100 100 100 100 100 100 93
1 1 1 1 1 1 2 2 3 3 5 8 16 98 98 97 100 99 100 100 100 90 100 100 100 100 100 100 100 100 100 100 89 73 93 99 93 100 100 100 100 100 100 99 100 100 100 86 82
1 1 1 2 2 3 3 4 5 6 8 13 19 86 66 100 100 100 80 79 94 100 82 100 100 100 100 100 100 100 100 93 90 100 100 82 100 100 81 96 100 100 84 79 64 78 96 94 94
2 2 2 2 2 3 3 6 7 8 10 15 29 56 38 95 100 100 100 100 94 95 100 100 100 99 99 100 100 100 90 96 92 100 90 100 100 100 100 90 85 65 72 83 84 86 99 92 79
2 2 2 2 2 3 4 5 8 15 20 23 60 100 58 96 100 100 97 66 100 100 100 98 97 84 72 100 100 100 100 99 98 100 100 100 88 90 73 66 74 72 64 72 86 100 94 100 92
2 2 2 2 3 3 4 6 8 21 31 30 100 94 100 100 100 100 100 100 100 100 100 100 100 100 63 100 100 100 100 100 86 98 100 100 100 100 84 66 62 54 67 87 86 100 100 73 90
2 2 2 3 4 4 4 7 12 20 35 36 100 100 100 100 100 100 100 100 100 100 100 100 100 100 100 88 100 100 100 85 80 100 100 100 100 100 100 84 52 60 65 96 100 100 81 67 38
2 2 3 4 4 4 4 8 16 24 51 59 100 100 100 100 100 100 100 98 100 100 100 100 100 99 92 100 85 92 100 98 97 93 94 94 100 100 86 72 36 52 95 55 56 59 44 48 48
2 3 4 5 5 8 8 11 16 31 78 96 100 100 100 100 100 100 100 100 100 100 100 100 100 82 100 100 100 100 100 100 100 100 75 86 100 75 68 53 52 81 71 50 48 49 31 27 28
3 3 4 4 6 8 7 9 18 32 74 100 100 100 100 100 100 100 100 100 100 100 100 100 100 100 100 100 100 100 100 100 100 100 100 95 100 100 100 98 100 100 90 59 51 41 40 32 41
4 4 5 6 8 11 11 11 16 25 50 100 100 97 100 100 99 99 97 100 100 100 100 100 100 100 100 100 100 100 100 100 100 100 100 100 100 100 100 100 100 100 100 100 100 92 97 92 65
6 6 6 10 14 10 12 14 20 27 42 100 100 100 100 100 100 100 93 100 100 100 99 100 100 100 100 88 100 100 100 100 100 100 100 100 100 100 100 100 100 100 100 100 91 100 100 100 100
8 9 9 11 17 20 16 18 21 26 35 68 100 100 100 100 100 100 99 86 100 88 99 100 100 100 100 85 93 100 100 100 100 100 100 100 100 100 100 100 98 100 100 100 100 97 100 100 100
10 11 16 25 28 21 25 24 25 26 28 44 100 100 100 100 100 100 100 100 100 99 93 81 69 96 100 100 100 98 100 100 100 100 100 100 100 100 100 100 100 100 100 95 100 100 100 100 100
8 11 15 23 23 22 26 28 32 38 31 38 98 100 100 100 100 100 100 97 100 100 100 100 72 75 99 100 100 100 100 100 100 100 100 98 100 100 100 100 100 100 100 100 100 97 98 100 100
10 14 20 28 20 20 21 30 38 40 33 39 42 100 100 100 100 100 100 100 99 100 100 100 100 92 86 97 100 100 97 100 100 100 100 100 100 100 100 100 100 100 100 100 100 97 96 98 96
10 12 16 20 28 20 18 26 38 44 35 33 35 50 100 100 100 100 100 100 100 100 100 100 100 97 90 77 90 100 100 100 100 100 100 100 100 100 100 100 100 100 100 100 100 100 100 98 100
12 14 15 12 13 16 19 18 25 24 39 52 36 33 51 100 100 100 100 100 99 100 100 100 100 100 100 100 90 100 100 100 99 100 100 100 100 100 100 100 100 100 100 100 100 100 100 100 100

GFSSGP_250_rhum_096.txt.gz
RH
30 21 22 24 22 17 11 7 6 9 10 11 13 31 40 68 91 100 92 76 84 80 82 86 74 70 64 57 56 66 59 43 41 46 37 33 34 33 36 34 32 30 31 35 52 47 41 32 31
39 23 18 23 22 16 15 10 6 6 12 10 11 13 19 38 65 97 100 83 91 93 82 91 85 80 77 69 66 71 69 63 49 44 42 38 37 37 40 46 45 45 42 32 36 39 36 34 31
36 26 21 21 24 22 14 12 8 6 7 12 8 11 13 17 30 80 100 100 94 100 98 89 88 87 84 66 72 67 74 71 66 56 50 50 52 56 44 52 58 57 53 50 46 39 35 33 35
26 26 20 22 22 18 20 14 9 6 4 7 10 8 10 13 20 54 99 100 100 89 100 100 84 95 88 80 69 73 58 55 60 69 68 64 61 62 55 60 63 62 60 52 48 46 41 36 36
21 15 17 18 19 16 15 15 11 5 4 5 10 10 9 11 15 25 71 100 100 98 98 100 100 100 98 100 84 81 68 62 66 68 62 66 61 62 65 65 64 60 59 56 51 48 44 39 36
15 12 13 16 14 14 13 16 12 5 4 4 6 10 7 10 12 20 43 77 90 90 100 100 100 98 100 100 98 89 85 72 61 68 62 62 61 56 56 65 62 61 68 60 55 50 43 40 40
14 8 11 12 10 10 10 14 11 6 3 4 5 9 10 8 11 16 39 70 90 100 100 100 100 97 100 100 100 96 91 81 71 69 61 61 62 65 70 69 62 68 63 61 54 52 45 43 45
13 6 9 10 8 7 7 10 10 8 3 4 6 9 10 9 11 14 32 82 98 100 100 100 100 97 98 100 100 99 93 89 76 78 74 68 74 75 68 62 76 81 71 62 56 54 51 48 48
10 6 8 8 7 6 5 5 10 9 5 4 5 10 12 10 9 13 16 94 83 100 99 100 100 93 81 100 100 100 100 95 88 91 93 77 85 86 70 82 100 73 68 70 64 58 56 56 48
6 5 7 6 5 4 4 4 6 5 5 4 5 8 11 10 9 8 86 97 100 95 100 100 100 100 91 77 97 100 99 96 89 87 88 97 89 79 70 96 92 68 73 64 62 60 58 60 52
6 6 4 5 4 3 3 3 4 4 4 5 5 8 9 9 14 18 99 100 100 93 100 98 100 100 100 99 87 88 100 96 100 100 95 98 92 86 94 100 100 82 68 61 66 68 60 98 98
5 4 3 4 3 2 2 2 3 4 5 5 6 7 9 8 11 13 20 53 100 100 100 100 100 100 100 100 100 99 95 100 100 100 94 92 97 100 100 100 96 92 89 91 96 84 88 100 100
4 3 3 2 2 2 2 2 2 3 4 4 5 6 7 9 10 25 54 92 100 99 95 100 100 100 100 100 100 90 98 100 100 100 100 100 100 100 100 87 100 100 97 86 89 84 78 86 100
2 2 2 2 2 1 1 1 1 2 2 2 4 6 7 10 27 90 100 100 100 100 100 100 100 100 100 100 100 100 100 100 100 100 100 100 100 100 100 97 100 100 78 95 82 97 90 62 59
2 2 1 1 1 1 1 1 1 1 2 2 3 6 8 20 71 100 98 68 100 97 100 100 100 100 99 100 100 100 100 100 100 100 100 100 100 100 100 100 100 100 98 84 85 71 72 65 49
2 2 1 1 1 1 1 1 1 1 2 2 3 6 8 21 100 100 100 77 100 100 100 100 100 98 93 100 97 100 100 100 100 100 100 99 100 100 100 97 100 100 95 76 63 52 56 45 40
1 1 1 1 1 1 2 2 2 2 2 3 4 7 13 19 100 100 100 100 100 100 100 100 100 91 100 100 100 100 100 100 100 100 84 100 100 100 100 100 100 83 76 64 58 47 35 34 45
1 1 1 2 2 2 2 2 2 3 3 5 5 10 13 86 100 100 100 100 100 100 100 100 100 100 100 100 100 100 100 100 97 87 87 100 100 100 94 94 99 80 55 57 59 54 40 33 66
2 2 2 2 2 2 2 3 3 4 6 6 6 14 24 100 100 60 97 100 100 100 100 100 100 100 100 100 100 100 92 87 100 100 100 100 100 100 100 84 93 84 80 99 93 46 48 58 98
2 2 2 2 2 2 3 3 4 6 9 9 15 18 73 100 100 100 100 100 100 100 100 100 100 100 100 100 100 92 76 61 100 100 100 100 100 99 87 90 90 100 100 100 93 78 52 36 43
2 2 2 2 2 4 4 4 5 8 9 12 28 98 100 100 97 100 100 100 100 100 100 100 100 100 100 99 100 100 83 86 100 100 100 100 100 99 96 100 100 100 100 100 95 61 69 42 48
2 2 2 3 4 5 5 5 6 10 15 19 32 78 100 100 100 100 100 100 100 100 100 100 100 100 100 100 100 100 78 100 100 100 100 100 100 100 100 100 100 100 94 85 100 91 79 62 83
2 3 3 3 5 6 6 7 11 16 20 30 76 100 100 100 100 100 100 100 100 100 89 94 100 94 100 100 100 100 100 91 100 100 100 100 100 100 100 95 100 100 100 100 97 100 100 100 74
3 4 5 6 6 7 8 8 8 17 21 40 88 100 100 100 100 100 100 100 100 100 100 100 98 94 100 100 100 100 100 100 98 96 97 100 100 100 93 85 99 98 100 100 100 100 100 100 94
5 7 7 9 9 7 9 10 14 17 29 94 100 100 100 100 100 100 100 99 100 100 100 100 100 100 100 100 100 100 100 100 100 100 98 74 98 100 91 87 100 97 89 87 100 97 100 100 100
7 8 12 14 12 15 14 16 17 21 28 45 96 100 100 100 100 100 100 100 100 100 100 100 100 100 75 100 100 100 100 100 100 100 100 100 100 97 100 98 99 100 71 92 100 100 93 86 86
8 11 20 20 24 23 18 19 31 29 38 51 98 100 100 100 100 100 100 100 100 100 100 100 100 100 100 100 100 100 100 100 100 100 100 100 100 100 100 100 93 100 92 100 99 96 83 100 100
8 15 20 24 22 27 29 25 35 37 35 47 74 100 100 100 100 100 100 100 100 100 98 100 100 100 100 100 96 100 99 100 100 100 82 100 100 100 100 100 100 100 100 100 100 100 100 100 100
15 16 24 24 30 32 42 36 41 52 54 64 53 100 100 100 100 100 100 100 100 100 100 84 100 100 100 100 98 95 65 66 100 89 96 100 100 100 100 100 100 100 100 100 100 100 100 100 100
13 18 22 24 23 27 36 50 45 52 61 54 60 74 100 100 96 100 100 100 100 100 100 100 90 100 99 97 100 100 100 100 100 100 100 100 100 100 100 100 100 100 100 100 100 100 100 100 100

GFSSGP_250_rhum_099.txt.gz
RH
63 61 43 33 28 42 31 32 21 8 8 12 14 13 15 12 20 35 57 46 49 58 73 73 82 76 75 61 56 55 52 48 52 52 37 42 34 32 35 36 39 40 41 40 34 32 34 46 40
43 55 54 42 35 45 44 38 26 17 10 7 11 13 13 11 14 35 56 68 57 60 73 80 83 81 82 80 64 62 61 53 52 54 49 41 46 47 41 42 46 49 52 54 50 45 44 38 36
38 38 42 41 35 46 48 39 32 19 14 6 7 13 13 11 12 32 68 75 66 72 68 85 90 88 89 91 79 70 68 66 56 58 56 56 54 58 57 57 60 53 60 61 59 52 48 45 42
24 32 29 32 33 42 42 42 31 24 14 6 6 8 14 13 12 14 49 56 78 97 80 72 95 93 88 96 92 82 72 71 63 55 61 56 54 66 61 62 67 60 61 64 59 55 50 48 47
23 26 27 28 28 28 33 37 34 28 20 14 8 6 8 16 13 11 19 47 62 73 94 90 78 100 94 90 98 95 87 80 71 63 61 57 51 58 52 56 64 67 71 64 56 57 53 49 47
15 17 21 22 23 27 25 32 30 26 18 12 4 4 7 14 12 13 12 26 45 56 78 98 91 92 100 100 100 77 89 94 81 71 64 60 58 61 58 56 57 60 62 64 63 61 55 49 47
12 12 16 18 22 21 24 30 24 21 16 15 7 4 5 8 14 15 13 15 23 38 54 92 100 92 91 100 100 95 91 96 91 91 72 70 64 60 64 60 62 62 61 62 61 65 57 56 52
11 10 12 16 16 20 20 18 18 16 19 14 4 4 4 5 10 14 13 13 50 66 66 73 91 97 84 80 100 100 88 96 98 84 82 76 73 74 74 75 80 69 63 83 96 60 55 57 53
11 12 10 11 12 14 14 14 14 14 12 10 6 5 5 4 7 12 12 12 41 71 95 86 85 96 95 88 97 100 96 91 100 82 87 94 92 87 93 92 87 76 78 100 73 60 61 58 54
10 8 12 12 11 13 10 10 10 10 9 8 6 5 6 5 6 13 11 11 21 94 88 81 89 98 96 95 100 100 100 100 100 97 77 79 82 91 93 95 98 76 64 77 92 76 67 58 54
9 9 11 11 9 9 9 8 7 8 6 7 7 6 5 6 11 11 12 12 98 100 100 65 69 96 99 100 100 100 100 96 92 100 100 90 81 77 88 91 91 82 64 100 98 76 67 55 60
5 7 9 10 8 7 7 7 6 6 5 6 6 7 7 9 10 15 15 11 99 100 100 78 100 100 99 100 100 100 100 100 90 83 100 100 92 83 82 81 80 73 100 100 92 80 96 100 57
6 7 8 6 6 6 5 5 4 4 4 5 5 5 7 7 9 14 16 18 21 97 92 99 100 100 100 100 100 100 100 100 97 77 68 77 99 100 99 88 80 100 100 99 94 100 73 70 50
6 6 5 5 5 4 4 4 4 3 3 4 5 6 10 6 7 12 12 16 98 100 100 100 100 92 98 100 100 100 100 100 100 100 80 84 100 100 100 100 100 100 100 100 100 99 90 66 59
5 5 4 4 4 4 3 3 3 3 3 4 4 5 7 6 10 11 13 15 63 100 100 100 98 100 100 99 94 100 100 100 100 100 100 94 100 100 100 100 99 100 100 100 100 100 94 58 52
4 4 3 3 3 3 2 2 2 2 2 3 4 6 7 6 8 14 9 14 20 100 100 100 100 100 100 94 95 100 100 100 100 100 100 100 100 100 100 100 100 96 100 100 100 100 89 46 41
3 4 4 3 3 2 2 1 1 2 2 2 3 4 6 6 8 10 12 16 100 100 100 100 100 100 100 100 99 78 98 100 100 100 100 100 100 100 99 100 100 96 100 100 100 94 85 51 53
4 4 3 2 2 2 2 1 1 1 1 1 2 3 4 6 7 15 14 64 100 100 100 100 100 100 100 100 98 100 100 100 100 100 100 100 100 100 100 100 93 88 100 100 100 94 70 46 47
3 3 2 2 1 1 1 1 1 1 1 1 2 2 4 8 14 15 18 100 100 100 100 100 100 100 99 86 97 100 100 100 100 100 100 100 100 100 100 80 97 100 100 100 100 99 84 70 63
2 2 2 2 1 1 1 1 2 2 2 2 2 4 6 14 19 46 100 100 100 100 100 100 100 100 100 100 100 100 100 100 100 100 100 100 100 100 100 100 100 100 100 100 100 96 90 75 91
2 2 2 2 2 2 1 2 2 2 3 3 4 6 9 16 63 100 100 100 100 100 100 100 100 100 100 100 100 95 82 100 94 100 100 100 100 97 99 97 100 100 100 100 100 100 94 100 100
2 2 2 2 2 2 2 2 2 3 3 4 6 8 34 97 100 100 100 100 100 100 100 100 100 100 100 100 100 100 94 100 100 100 100 100 100 99 100 100 100 100 100 100 100 100 100 100 100
2 2 2 2 2 2 2 3 4 4 5 5 7 25 89 100 100 100 100 100 100 99 100 100 100 100 100 100 100 100 100 100 100 100 100 100 100 100 100 100 100 100 100 100 100 100 100 100 89
2 2 2 2 3 3 4 5 4 6 7 7 12 23 100 100 100 100 100 100 100 100 100 100 100 100 100 100 100 99 91 100 100 100 100 100 100 100 100 100 100 100 100 100 98 100 100 91 96
2 3 4 5 6 5 6 6 8 8 9 12 41 99 100 100 100 100 100 100 100 100 100 100 100 100 100 100 100 100 96 98 100 100 100 100 100 100 100 100 99 93 100 96 89 89 87 89 89
4 4 5 6 7 8 10 9 13 13 19 18 97 100 100 100 100 100 100 100 100 100 100 100 100 100 100 100 100 100 100 100 100 100 100 99 100 100 100 100 100 94 97 86 70 91 82 99 88
4 6 8 10 12 13 18 12 10 13 17 22 100 100 100 100 100 100 100 100 100 100 100 100 100 100 100 99 100 100 100 100 100 100 100 100 99 100 90 75 73 65 82 68 48 60 59 64 81
6 10 15 23 31 32 36 29 18 12 29 76 100 100 100 100 100 100 100 100 100 99 100 100 100 100 100 99 100 100 100 100 100 100 100 100 98 89 95 100 90 100 85 73 84 85 84 97 100
12 17 18 27 36 57 70 58 40 27 37 100 100 100 100 100 100 100 100 100 100 92 100 100 100 100 100 100 100 100 100 100 100 100 100 93 100 100 100 100 100 100 100 100 100 100 100 100 100
16 21 26 39 36 48 74 73 72 66 42 100 100 100 100 100 100 100 100 100 100 100 100 100 100 100 100 100 100 100 100 100 97 99 100 96 100 100 100 100 100 100 100 100 100 100 100 100 100

GFSSGP_250_rhum_102.txt.gz
RH
63 63 71 68 42 67 69 71 33 15 9 11 13 12 15 17 31 35 46 47 44 85 66 50 83 70 62 63 67 66 60 51 46 46 48 56 48 43 37 36 38 42 44 48 48 51 44 39 36
41 48 49 56 47 53 98 97 68 36 24 11 11 14 17 13 13 25 39 57 53 60 54 58 57 83 79 74 73 73 73 61 54 52 48 50 54 48 42 51 56 57 60 49 56 56 54 52 48
32 32 37 47 47 47 73 85 73 57 40 18 13 11 13 11 12 15 19 37 60 42 38 52 48 62 86 82 78 76 73 75 58 62 59 56 58 55 54 60 68 64 70 60 56 63 58 52 49
24 30 36 35 39 53 53 51 46 44 48 31 18 9 10 12 13 17 19 20 34 38 40 38 41 46 76 94 90 82 74 78 71 61 66 63 52 54 64 58 70 68 72 74 76 72 58 51 53
19 23 27 30 33 40 48 47 34 33 41 39 25 13 9 10 9 14 13 14 15 13 28 44 41 42 54 96 98 96 84 80 81 76 73 70 61 52 58 57 60 62 65 67 70 65 62 56 52
21 17 17 22 25 29 32 43 54 36 32 29 35 28 11 9 8 15 14 15 15 15 16 36 44 45 50 70 98 100 96 85 84 84 82 81 67 58 64 64 65 64 63 61 61 55 57 59 52
22 18 17 15 15 22 29 34 29 38 31 28 27 23 21 13 8 10 15 14 35 21 15 28 44 56 51 58 81 100 100 88 72 61 60 71 66 63 59 63 76 72 70 69 60 54 80 74 52
17 16 23 18 14 17 22 19 23 23 22 25 25 25 29 10 12 8 10 13 19 48 50 24 65 70 59 63 60 83 100 100 100 92 59 60 66 68 60 66 69 73 87 96 66 62 98 65 54
9 13 18 17 10 11 13 14 16 17 19 20 19 22 24 11 17 9 9 13 13 31 69 100 84 97 76 66 64 69 78 100 100 100 88 59 79 74 69 65 70 78 88 93 86 68 72 67 67
17 16 11 9 9 10 10 12 15 15 15 18 19 21 17 13 14 9 7 10 12 12 26 44 100 98 100 95 86 86 86 78 86 100 97 75 58 78 95 74 70 78 87 82 86 70 72 100 82
17 22 12 12 10 9 11 11 13 13 14 14 15 16 14 11 12 8 6 9 10 11 12 96 99 100 86 79 82 87 80 68 74 86 100 100 94 95 93 98 79 73 75 70 83 70 86 98 82
15 17 13 12 11 11 11 9 12 12 14 12 12 13 12 9 10 7 6 8 12 10 10 46 100 98 100 81 65 100 86 73 74 96 100 100 100 100 87 92 100 88 72 66 71 65 100 98 68
12 12 12 12 10 8 7 8 8 10 11 10 11 11 9 10 12 10 8 7 12 10 12 80 100 100 90 100 100 100 100 100 99 91 100 100 99 85 94 96 100 99 93 86 69 89 100 100 100
8 9 11 10 9 8 6 8 7 8 9 7 8 8 9 10 11 9 8 8 11 11 24 78 100 100 99 100 100 100 100 100 100 100 100 100 100 100 69 55 56 62 78 100 100 100 100 100 100
6 7 8 8 8 8 6 7 5 5 5 5 5 6 8 8 9 6 7 8 11 14 91 100 100 100 100 100 98 94 91 99 100 100 100 100 100 100 100 83 65 71 90 100 100 100 100 96 100
5 5 5 6 6 5 3 5 4 4 4 5 5 6 6 7 7 8 10 8 9 16 53 100 100 100 100 100 100 82 80 100 100 100 100 100 100 100 100 100 100 100 100 100 100 100 100 100 100
4 4 4 4 4 3 3 3 4 4 4 5 4 5 5 8 8 5 10 8 11 15 21 47 100 100 100 100 100 98 99 100 100 100 100 100 100 100 100 100 100 100 100 100 100 100 100 100 100
3 3 3 3 2 3 3 3 4 4 4 4 3 4 4 8 9 8 9 8 12 16 42 100 100 100 100 100 100 100 100 95 100 100 100 94 100 100 100 100 100 100 100 100 100 100 94 100 100
2 2 2 3 3 3 3 3 3 3 2 2 2 3 5 7 9 11 8 8 16 34 95 100 100 100 100 100 100 100 92 100 100 100 85 79 93 100 99 98 100 100 100 100 100 100 100 100 100
3 3 3 3 3 3 3 2 2 2 2 2 2 2 4 6 10 9 10 11 16 90 100 100 100 100 100 100 100 100 100 100 100 100 100 100 100 100 100 100 100 100 100 100 93 98 94 100 100
4 4 3 3 3 3 3 2 2 2 2 2 2 2 2 5 8 10 10 11 23 41 98 78 100 100 100 100 100 100 100 100 96 100 98 100 100 100 100 100 100 100 100 100 100 100 100 100 100
4 4 4 3 2 2 2 2 2 2 2 2 2 2 2 5 8 11 11 14 20 34 75 98 51 100 100 100 100 100 100 100 100 98 88 100 100 100 100 100 100 100 100 98 100 100 100 100 100
3 3 2 2 2 2 2 2 2 2 2 2 2 3 5 6 9 12 12 22 24 24 56 100 100 100 100 100 100 100 100 100 100 100 100 95 89 84 92 100 100 100 100 100 100 100 100 100 100
2 2 2 2 2 2 2 2 2 2 2 3 4 4 10 10 22 51 44 83 59 100 100 100 100 100 100 100 100 100 100 100 100 100 100 100 100 100 100 100 100 100 100 100 100 100 100 100 100
3 2 2 2 2 2 3 3 4 4 4 4 6 11 25 66 99 98 100 100 100 100 100 100 100 100 100 100 100 99 100 100 100 100 100 100 97 100 98 100 100 100 100 100 100 100 100 100 100
2 2 3 3 3 4 5 6 7 7 7 9 19 70 100 100 100 100 100 100 100 100 100 100 100 100 100 100 100 100 100 100 100 99 100 100 100 100 100 100 100 100 100 100 100 100 100 100 100
2 4 5 6 5 7 9 10 12 11 11 16 69 100 100 100 100 100 100 100 100 100 100 100 100 100 100 100 100 100 100 100 100 100 100 100 100 100 94 100 100 96 98 87 79 77 73 84 84
6 7 12 12 12 12 13 18 15 16 17 22 91 100 100 100 100 100 100 100 100 100 100 100 100 100 100 100 100 100 100 100 100 100 100 100 100 100 100 92 100 100 93 82 100 87 87 93 94
10 17 19 35 36 37 26 21 16 16 22 66 96 100 100 100 100 100 100 100 100 100 100 100 100 100 100 100 100 100 100 100 100 100 100 100 100 100 94 88 77 100 99 100 100 100 100 96 90
15 30 36 62 76 70 58 38 27 20 27 100 100 100 100 100 100 100 100 100 100 100 100 100 100 100 100 100 100 100 100 100 100 100 100 100 100 100 100 100 100 100 95 100 99 94 92 88 72

GFSSGP_250_rhum_105.txt.gz
RH
64 75 78 80 72 38 71 70 35 20 14 17 16 13 13 15 21 27 35 45 79 84 55 55 58 61 59 59 55 59 59 62 56 50 44 46 44 47 49 44 38 40 45 53 48 49 52 53 48
42 48 69 77 76 49 80 88 90 45 21 15 13 16 15 12 12 20 27 52 70 68 42 49 46 60 58 58 56 61 67 66 67 57 51 47 47 43 46 47 50 58 61 64 65 51 54 57 53
29 31 40 53 59 59 78 81 85 77 47 36 21 14 15 17 14 12 14 33 53 68 44 55 47 46 62 56 56 58 65 68 71 72 65 52 52 46 41 48 49 64 69 71 70 69 58 60 61
23 25 25 35 45 48 63 68 79 73 63 54 29 22 18 17 20 16 14 14 37 54 45 35 49 46 51 59 50 56 70 73 73 74 72 63 52 48 46 40 51 65 66 72 73 77 75 70 63
20 24 21 21 33 35 46 54 57 62 63 40 34 38 28 16 18 17 17 13 14 31 43 31 46 49 50 60 58 44 55 71 73 76 72 71 59 52 52 48 49 60 56 63 63 70 63 59 57
19 15 17 22 20 27 38 47 50 53 55 43 37 35 31 26 19 13 16 15 14 16 28 35 37 41 42 48 56 53 45 59 72 74 75 77 76 68 67 61 49 54 59 64 64 64 63 55 52
18 16 15 14 16 20 27 33 40 38 40 46 37 29 32 28 27 22 14 16 24 24 18 23 30 22 59 41 44 52 47 53 72 77 78 79 93 82 75 72 73 61 59 62 68 72 70 59 55
20 19 18 14 14 16 24 23 29 32 34 31 29 33 34 32 36 34 20 13 27 48 41 30 30 48 61 60 38 59 47 53 64 78 81 82 72 71 59 55 81 73 59 63 71 77 67 75 82
26 31 27 20 14 13 10 12 18 23 28 35 26 24 25 24 29 37 41 12 29 62 58 30 29 60 56 50 25 47 57 56 64 71 80 77 73 71 80 57 78 90 73 64 67 74 82 80 71
25 37 40 28 22 14 14 10 12 13 17 23 23 19 21 20 23 31 39 29 10 50 24 27 31 64 63 49 31 60 70 62 71 73 70 88 98 94 100 84 56 76 86 84 68 64 59 56 57
21 28 32 31 23 20 20 12 12 10 12 17 20 17 16 17 21 28 37 36 21 21 26 16 20 53 71 46 42 68 97 100 72 88 90 77 95 100 100 100 70 54 87 98 88 70 62 59 55
26 23 27 32 28 20 26 22 18 13 14 11 13 14 14 16 18 20 24 27 17 9 8 12 18 63 68 48 50 90 99 100 100 94 100 100 82 79 74 80 84 96 97 93 75 97 64 71 74
13 14 16 18 18 20 17 20 21 15 12 12 10 10 13 14 17 19 22 26 16 12 11 11 14 36 78 100 74 100 100 100 100 100 100 100 100 99 72 63 90 100 100 94 69 82 81 97 100
8 10 8 10 13 13 12 19 15 18 15 10 11 10 11 11 13 16 19 19 15 11 9 10 12 24 63 98 100 91 99 100 83 100 100 100 100 100 94 82 90 93 96 74 59 55 58 73 100
6 7 8 8 9 10 10 12 12 11 10 10 8 11 10 10 11 14 15 16 12 9 9 10 10 19 50 100 100 100 100 100 100 100 100 100 100 100 100 100 100 99 99 100 99 71 74 90 100
5 5 5 6 6 7 8 9 7 7 6 7 7 7 6 7 9 9 11 14 11 8 8 10 11 15 98 100 88 100 100 100 97 100 99 100 100 100 100 100 100 100 100 100 99 100 100 100 100
4 4 4 4 5 6 6 8 6 6 5 6 5 4 4 5 7 7 10 9 9 10 7 10 13 15 98 100 100 100 100 92 97 100 100 100 100 100 100 100 100 100 100 100 100 100 100 100 100
4 4 4 3 3 4 4 4 4 4 4 3 3 3 4 4 6 6 8 8 9 9 8 10 16 19 84 100 94 100 100 76 100 100 100 100 100 100 100 100 100 100 100 100 100 100 100 100 100
3 3 3 3 3 3 2 3 3 3 3 3 3 3 4 4 4 6 10 10 10 7 8 11 17 52 99 98 100 100 100 100 93 100 100 74 92 100 100 100 100 100 100 100 100 100 100 100 100
3 3 3 3 2 2 2 2 2 2 2 3 3 3 4 4 5 7 10 10 10 8 7 13 23 71 100 100 100 100 100 100 100 100 100 86 100 100 100 100 97 100 100 100 100 100 100 93 100
3 2 2 2 2 2 2 2 2 2 3 3 2 3 3 4 5 7 9 10 9 9 10 14 24 81 98 100 100 100 100 100 100 100 92 100 91 88 100 100 92 94 94 98 100 100 100 100 82
2 2 2 2 2 2 2 3 3 3 3 3 3 3 3 4 5 7 9 8 8 11 13 14 34 100 100 100 100 100 100 100 100 100 100 100 100 99 100 100 100 99 100 100 100 100 100 98 87
2 3 3 3 3 3 3 3 2 2 2 2 2 2 2 3 5 9 12 10 12 15 14 16 25 100 100 100 100 100 100 100 100 100 100 100 100 100 100 100 100 100 100 100 100 100 100 100 100
4 5 5 5 4 4 3 2 2 2 2 2 2 2 2 3 4 6 10 13 16 18 18 20 23 39 83 100 100 100 100 100 100 100 100 100 100 100 100 100 100 86 86 94 98 100 100 100 100
5 4 3 3 3 3 2 2 2 2 2 2 2 3 3 4 5 6 9 11 14 18 19 21 27 71 100 83 100 100 100 100 100 100 100 100 100 100 100 100 100 100 94 100 100 100 100 89 86
3 3 3 3 3 3 3 2 2 3 3 4 6 7 12 11 22 35 20 18 27 63 19 22 59 100 100 100 100 100 100 100 100 100 100 100 100 100 100 100 99 100 100 100 100 96 100 100 95
3 3 3 4 4 4 6 6 6 7 7 14 57 94 93 78 100 100 95 65 99 99 56 72 100 100 100 100 100 100 100 100 100 100 100 100 97 100 100 100 98 99 100 100 100 100 100 98 99
4 5 7 8 7 8 11 10 14 15 38 98 100 100 100 100 100 100 100 100 100 100 100 100 100 100 100 100 100 100 100 100 100 100 100 100 100 100 98 100 100 86 94 95 98 100 100 100 100
10 8 10 18 16 20 21 14 25 100 98 100 100 100 100 100 100 100 100 100 100 100 100 100 100 100 100 100 100 100 100 100 100 100 100 100 100 100 100 94 98 91 96 95 99 100 100 100 99
20 12 21 33 30 25 39 19 36 100 100 100 100 100 100 100 100 100 100 100 100 100 100 100 100 100 100 100 100 100 100 100 100 100 100 100 100 100 100 100 100 100 100 88 94 100 100 100 100

GFSSGP_250_rhum_108.txt.gz
RH
50 56 57 62 56 31 38 55 42 25 20 16 14 14 12 14 22 30 41 45 50 42 35 61 84 78 47 44 49 44 41 42 44 47 50 46 42 45 44 40 42 43 38 42 46 49 46 49 51
30 34 54 66 56 66 74 42 52 42 24 19 18 17 15 16 19 25 31 34 42 43 39 35 57 56 63 39 45 47 43 43 46 51 57 54 48 42 40 42 46 54 54 58 58 57 55 55 53
29 21 29 48 65 72 81 76 48 40 28 21 19 19 19 20 16 14 17 27 30 36 35 32 37 46 45 50 44 49 42 46 48 55 59 64 57 47 45 38 44 58 66 68 74 73 66 63 60
45 27 20 28 55 54 67 74 61 57 44 33 27 19 18 25 20 16 14 15 18 26 27 27 29 44 48 47 47 48 51 44 47 55 56 58 64 53 50 45 42 47 62 73 74 75 77 73 70
69 51 25 23 31 38 42 66 62 64 61 46 38 29 25 22 20 17 15 16 15 16 18 26 24 34 47 51 51 52 65 58 49 49 58 60 60 60 60 48 51 51 53 74 67 66 76 73 67
44 44 36 26 26 29 29 36 48 62 61 56 62 51 46 35 28 44 31 20 21 17 18 19 26 27 42 51 59 57 72 80 62 54 52 70 64 65 61 67 60 64 60 58 64 56 65 70 70
49 39 34 34 24 25 26 23 24 46 50 53 54 51 40 38 36 35 63 60 41 25 18 17 17 19 21 48 58 70 56 73 74 59 51 61 74 60 61 68 76 82 80 64 56 55 62 72 77
44 40 36 30 32 25 27 23 20 19 37 37 48 42 43 37 36 32 37 61 70 39 40 17 14 17 16 19 44 52 64 56 75 73 62 66 71 79 62 66 77 79 64 68 74 60 60 69 71
31 38 36 29 32 26 26 25 18 17 17 23 30 38 44 41 36 33 36 33 40 41 27 28 16 16 24 23 30 48 68 65 56 78 78 75 84 83 87 66 67 70 63 57 76 79 64 61 66
27 27 32 35 26 26 30 23 26 21 18 15 16 32 34 36 36 31 36 39 39 37 20 29 33 26 40 41 33 29 50 60 73 69 76 81 78 92 98 95 67 58 64 83 62 76 84 83 68
29 22 27 30 32 28 25 26 28 23 22 20 15 13 19 30 31 30 28 35 33 23 21 19 25 30 47 42 27 23 31 38 67 95 78 94 76 92 100 100 91 91 86 95 88 60 57 78 67
15 15 15 21 23 26 25 24 27 32 40 28 22 15 13 17 22 26 24 27 25 35 32 17 20 37 46 48 23 22 42 53 61 97 70 87 81 98 100 100 96 98 96 93 90 68 74 88 78
7 8 10 13 15 17 18 22 30 38 41 30 24 27 16 15 15 19 20 22 24 28 27 29 17 16 26 42 31 15 35 59 60 58 58 73 92 98 100 100 100 100 93 80 62 57 90 100 89
4 5 6 8 10 11 16 18 21 28 17 27 20 23 17 12 13 16 19 21 20 26 29 27 27 22 19 28 26 15 18 59 63 46 54 76 100 100 100 100 100 100 100 98 74 54 69 87 90
3 4 4 5 7 8 8 14 12 15 16 21 21 19 16 16 22 20 20 22 26 22 27 21 23 21 16 30 20 14 22 47 49 50 74 94 100 100 100 100 100 100 99 100 100 96 87 98 100
3 3 3 4 5 6 6 12 6 7 11 16 15 16 18 11 13 20 21 19 22 25 21 20 23 18 15 12 12 15 28 29 38 66 97 100 100 100 100 100 100 99 97 100 100 100 100 100 100
3 3 3 3 4 4 5 8 4 8 10 10 11 10 9 9 7 9 10 13 14 15 16 14 19 17 15 13 12 15 31 29 50 91 100 96 98 100 100 100 100 100 100 100 100 100 100 100 100
3 3 3 3 3 3 3 5 4 5 7 8 8 8 7 7 8 6 7 9 9 11 12 11 14 15 11 13 13 15 28 60 49 89 82 100 100 100 100 100 100 100 100 100 100 100 100 100 100
3 3 3 2 2 2 2 3 3 3 4 5 4 4 4 5 6 7 7 6 7 8 9 10 13 11 9 11 14 16 19 88 93 79 100 100 100 100 100 100 100 100 100 100 100 100 100 100 100
3 3 3 2 2 2 2 2 2 2 2 2 2 3 3 4 4 5 5 7 9 10 11 13 13 9 7 9 14 21 22 38 96 90 100 100 100 100 100 100 100 100 100 100 100 100 100 100 100
4 3 3 2 2 2 2 1 2 2 2 2 2 2 3 3 4 4 5 7 8 9 10 10 8 7 7 11 16 22 22 41 100 89 100 90 100 100 100 100 99 100 100 100 100 100 100 100 99
3 3 2 2 2 2 2 1 2 2 2 2 2 2 2 2 3 3 4 5 5 7 7 6 6 6 9 13 18 23 24 60 100 100 100 99 94 92 100 98 100 100 100 100 100 100 98 99 95
3 3 2 2 2 2 2 2 2 2 2 2 2 2 2 3 3 3 4 4 5 6 6 5 7 9 12 13 20 27 29 57 100 100 100 100 100 100 100 100 100 100 100 100 100 100 100 100 94
3 3 3 3 2 2 2 2 3 3 3 3 3 3 3 4 4 4 5 6 6 7 6 8 9 11 13 17 26 29 39 100 100 100 100 72 100 100 100 100 100 97 98 99 88 84 87 98 99
4 4 4 4 4 4 4 5 4 4 3 3 3 2 2 3 4 6 8 9 8 7 8 10 11 14 18 21 28 67 100 100 100 100 100 100 100 100 92 100 100 98 100 88 100 100 100 100 100
7 7 6 6 5 4 4 3 3 2 2 2 2 2 2 2 3 4 7 11 14 14 19 23 24 25 24 26 32 100 100 100 100 100 100 100 100 100 100 100 91 75 76 70 79 100 100 100 100
5 4 4 4 3 3 4 4 4 3 3 3 3 3 5 6 5 6 7 9 13 15 18 21 25 27 26 29 34 90 100 100 100 100 100 100 100 100 100 100 100 99 100 100 100 100 100 100 100
4 4 4 4 4 4 5 6 8 6 22 21 13 26 41 50 49 88 92 100 96 78 47 25 21 26 28 27 35 100 100 100 100 100 100 100 100 100 100 100 100 100 100 100 100 100 100 98 100
4 4 4 7 10 12 10 11 30 79 74 74 63 78 64 100 100 100 100 100 100 100 100 96 53 76 100 80 47 86 100 100 100 100 100 100 100 100 100 100 100 100 100 100 96 85 85 90 94
5 6 7 14 15 40 35 21 29 77 100 100 100 100 100 100 100 100 100 100 100 100 100 100 93 100 100 100 100 100 100 100 100 100 100 100 99 100 100 100 100 100 100 100 100 100 94 100 100

GFSSGP_250_rhum_111.txt.gz
RH
48 46 44 41 37 27 36 63 80 35 20 15 15 14 15 16 20 32 56 60 71 60 56 50 56 87 75 62 59 48 41 34 34 44 38 36 34 38 40 43 44 46 44 38 40 46 48 48 48
40 31 38 48 42 42 48 44 51 34 23 20 17 16 15 16 15 16 16 26 40 50 57 50 44 51 90 77 67 57 45 37 35 36 45 43 39 40 42 42 43 47 46 44 51 55 51 48 51
57 43 39 30 53 56 56 54 35 32 29 24 21 20 19 20 16 17 14 17 22 29 45 56 43 47 53 72 81 69 59 44 39 38 39 47 44 42 43 43 41 45 60 63 64 69 62 62 57
66 50 53 47 36 38 44 64 58 36 34 31 29 27 24 22 17 18 16 17 18 23 28 40 48 41 48 48 52 81 76 57 49 46 43 45 53 48 47 49 43 44 43 57 68 75 71 65 61
71 54 46 65 70 51 41 49 63 56 48 37 39 35 31 38 25 20 18 25 17 14 16 24 33 35 40 43 44 54 78 70 62 51 55 48 51 60 50 56 49 46 49 49 53 71 76 67 63
74 74 55 62 68 80 62 38 51 60 60 62 40 42 37 34 32 31 24 27 62 44 15 13 16 21 24 37 37 40 57 73 73 64 50 56 53 63 66 63 55 57 56 57 59 55 62 65 59
48 45 42 47 66 66 56 57 36 47 50 55 55 46 34 47 38 29 28 35 62 78 100 23 16 16 16 22 27 33 49 60 65 64 57 56 62 57 64 76 70 61 69 67 66 62 62 60 55
40 38 40 40 42 54 55 55 49 31 36 31 38 52 43 51 49 40 34 28 44 79 75 98 69 21 17 16 17 36 53 63 66 67 59 62 74 67 68 70 75 77 64 73 78 72 71 72 69
36 42 32 23 28 38 49 56 52 32 31 28 25 28 49 55 64 50 40 35 32 51 82 78 96 58 27 17 16 17 43 43 64 69 75 73 72 80 69 68 71 79 79 67 81 87 70 69 79
35 38 33 27 21 25 39 46 44 40 28 25 23 22 25 42 46 56 39 36 33 31 40 64 59 35 27 24 21 15 16 27 53 75 78 88 79 72 77 78 67 78 83 87 70 70 70 83 75
38 49 30 30 28 25 26 39 43 36 35 26 21 20 21 22 34 41 46 38 34 38 32 28 46 39 29 28 24 19 14 18 24 39 59 100 92 85 84 91 86 73 72 92 88 65 57 96 98
16 19 22 23 22 29 28 26 38 35 35 21 19 15 17 19 19 21 44 42 44 40 35 33 32 24 22 22 26 26 18 16 20 24 31 52 100 100 93 100 97 81 74 74 92 82 83 90 90
9 8 10 13 13 14 20 26 27 30 30 26 20 17 15 17 19 18 19 35 39 38 36 32 29 27 23 24 25 25 23 27 30 31 27 38 63 99 100 100 100 99 86 80 79 85 83 90 79
8 7 6 7 8 8 11 16 17 22 21 29 21 15 14 17 17 18 20 20 23 25 34 33 30 28 27 20 24 18 30 28 28 30 43 36 35 45 69 99 100 100 88 98 88 79 83 93 95
9 6 6 5 5 5 6 8 9 10 12 16 20 15 11 12 13 16 20 21 21 21 22 24 30 30 28 23 27 26 18 16 18 24 40 39 52 48 58 78 100 100 88 100 99 90 84 89 88
11 8 6 5 4 4 4 5 6 6 7 12 14 16 13 8 11 17 21 22 22 25 25 22 22 27 31 33 30 25 24 16 18 24 26 36 47 100 73 66 84 100 100 100 100 100 100 100 100
11 8 4 3 3 3 3 4 4 4 5 7 9 9 10 6 5 9 11 15 17 21 22 22 18 22 25 28 33 26 26 18 17 20 46 38 27 54 65 62 78 87 100 100 100 100 100 100 100
9 5 5 4 2 3 3 4 4 3 3 5 7 7 7 7 6 6 8 12 13 16 19 17 19 19 24 27 26 28 29 20 14 15 22 32 27 36 100 67 63 75 100 100 100 100 100 100 100
6 6 4 3 3 3 3 3 3 2 3 3 4 5 5 5 6 5 6 8 10 12 11 12 12 16 17 20 22 22 24 26 21 19 14 18 25 33 100 93 90 100 100 100 92 99 100 100 100
6 6 4 3 3 3 2 3 2 2 2 2 3 4 4 4 4 4 5 7 6 9 11 13 13 13 14 18 23 19 22 20 22 22 15 21 23 39 79 100 97 100 100 100 96 100 100 100 99
6 5 4 3 3 3 2 2 2 2 2 2 2 2 2 3 3 3 4 4 6 7 8 10 12 13 14 18 16 17 19 22 20 24 13 22 25 82 100 100 98 85 100 100 100 100 100 100 100
5 4 3 3 2 2 2 2 2 2 2 2 2 2 2 2 3 3 4 5 5 6 7 8 10 12 16 14 18 17 17 20 19 23 13 25 33 55 100 100 100 100 100 100 100 100 100 100 100
4 4 3 3 3 3 3 2 2 2 2 2 2 2 2 2 3 3 4 4 5 5 5 6 7 10 12 13 14 15 18 18 19 22 17 32 32 63 100 100 100 100 100 100 100 100 100 100 100
4 4 4 4 3 3 3 3 2 2 2 2 2 2 2 2 2 3 3 3 4 4 5 6 7 8 9 10 11 14 16 16 17 17 25 32 30 44 100 100 100 100 100 100 100 100 100 100 100
5 5 5 5 5 4 3 3 3 2 2 2 2 2 2 2 2 2 3 3 3 4 4 4 5 6 7 8 9 10 12 11 15 20 30 31 32 33 68 100 100 100 100 100 100 100 100 100 97
6 7 8 7 6 6 6 5 4 4 4 4 4 4 4 4 3 4 4 4 4 4 4 5 5 5 6 6 8 9 13 17 21 29 34 45 47 100 100 100 100 100 100 100 100 96 100 100 100
13 10 8 7 6 6 5 4 4 3 3 3 2 2 3 3 3 4 5 6 7 8 6 6 7 7 8 9 12 15 22 32 35 33 58 86 100 100 100 100 100 100 100 100 100 100 100 100 91
7 6 6 7 6 5 4 4 5 3 4 3 3 2 2 2 2 3 4 5 10 13 15 14 14 18 17 21 26 32 43 47 63 100 100 100 100 100 100 100 100 99 94 100 100 87 87 78 70
6 8 10 13 16 11 7 10 13 10 14 17 14 14 18 21 15 10 6 10 11 18 35 29 34 34 32 38 42 42 46 61 100 100 100 100 100 100 100 100 100 100 100 99 88 88 80 90 96
13 16 20 22 35 39 47 28 29 42 35 37 40 40 57 90 80 65 47 97 50 51 60 45 48 61 50 41 38 44 49 100 100 100 100 100 100 100 100 100 100 100 100 100 100 100 100 100 100

GFSSGP_250_rhum_114.txt.gz
RH
37 35 39 32 33 37 37 43 52 35 23 20 22 24 22 21 18 19 21 24 40 85 76 64 53 78 84 76 50 51 46 40 41 39 40 36 34 34 33 34 36 43 48 46 39 36 34 32 33
45 36 34 42 30 36 38 41 42 31 26 22 19 22 20 21 20 19 17 17 27 81 82 67 55 53 66 74 81 85 78 56 52 45 43 43 39 39 40 36 38 40 52 48 44 40 42 41 41
55 47 38 34 45 44 47 44 41 38 32 24 22 22 20 21 21 20 17 17 16 27 64 81 77 69 63 65 65 66 91 80 64 57 46 42 43 39 47 46 43 44 46 59 59 56 58 62 52
75 68 59 48 41 45 43 42 51 38 35 29 30 24 25 23 21 22 22 21 19 14 15 27 50 61 57 59 59 59 59 83 91 78 63 45 44 42 42 53 52 49 49 50 53 60 66 72 67
95 73 80 81 48 42 47 52 44 54 44 40 37 33 29 28 28 27 29 24 17 17 17 17 18 24 37 44 59 60 55 60 67 76 87 65 52 47 46 50 59 59 57 50 52 51 53 63 68
99 82 86 92 81 55 46 43 52 50 46 50 53 45 40 35 34 34 33 30 70 26 23 32 21 15 20 26 37 56 57 52 52 53 64 80 69 59 50 52 57 68 68 60 53 56 58 59 61
88 90 100 98 93 78 65 44 32 39 43 33 42 60 48 42 41 38 33 29 46 82 47 100 97 46 19 18 22 33 47 49 48 45 46 60 77 71 66 52 55 61 73 74 70 60 64 63 61
98 98 100 98 88 74 62 58 54 46 38 31 34 39 52 58 46 40 36 34 26 54 60 75 100 100 100 69 30 18 24 40 40 42 41 45 66 72 70 66 55 58 64 75 77 75 73 76 78
92 82 86 82 69 66 42 47 48 52 51 33 26 30 43 50 61 42 32 31 31 25 35 71 92 88 100 100 88 33 18 18 28 35 39 48 77 80 85 69 66 67 67 68 77 78 83 80 81
84 91 77 60 48 47 50 53 52 44 37 37 39 29 25 32 46 54 36 28 28 32 27 32 70 82 82 100 100 61 32 18 19 22 23 34 60 100 80 82 80 75 79 76 73 78 82 86 91
57 57 65 65 56 55 39 39 40 40 46 33 27 36 28 20 24 39 46 36 39 38 41 30 63 80 46 66 58 51 36 25 20 20 20 24 50 88 96 100 98 88 82 83 77 78 73 80 83
36 35 40 45 52 42 35 43 44 31 35 27 22 30 35 26 22 24 33 37 35 46 43 41 31 45 32 49 61 52 43 26 25 22 26 22 30 49 63 90 99 100 96 91 84 91 84 79 74
26 30 29 33 42 41 33 37 43 35 27 28 20 23 34 28 20 20 21 26 31 35 42 46 44 34 32 31 32 38 28 25 25 26 27 25 19 25 36 47 75 89 97 94 99 94 100 90 81
13 14 14 25 29 26 25 30 35 30 19 21 26 17 20 27 30 24 16 20 23 26 30 41 43 43 45 38 32 33 28 26 27 30 32 30 26 26 24 26 30 43 68 70 90 100 100 100 100
16 13 10 10 10 9 8 8 12 12 12 12 16 17 12 18 21 29 21 16 18 24 24 26 30 38 44 43 46 40 36 28 25 29 24 28 29 37 52 47 46 60 63 72 100 100 86 97 100
19 16 13 10 8 7 6 7 6 5 6 8 9 12 10 8 8 12 18 21 15 15 20 20 20 24 33 39 37 36 34 32 30 28 26 23 31 36 24 28 38 58 73 87 74 76 87 93 97
19 15 11 11 9 7 7 7 6 4 4 5 6 6 7 7 6 6 8 16 15 14 15 17 19 18 18 22 21 21 26 25 25 32 29 22 34 20 19 36 33 46 70 75 89 94 68 90 92
24 24 24 20 10 8 6 6 5 4 2 3 4 4 5 5 5 5 6 8 14 12 13 15 17 17 16 17 18 18 19 20 22 24 25 22 24 24 22 23 39 36 73 93 90 100 93 82 89
33 36 29 18 9 6 5 5 4 3 2 2 2 3 3 4 4 3 4 5 7 8 9 11 14 17 21 20 19 19 18 15 20 30 27 24 26 27 26 27 39 40 61 100 88 98 100 100 100
36 27 14 11 4 4 5 4 3 3 2 2 2 2 3 3 2 2 3 4 5 6 7 9 9 12 18 21 18 18 18 20 25 26 29 25 24 28 22 24 32 30 29 86 100 100 100 100 100
18 11 8 8 8 5 4 4 2 2 2 2 2 2 2 2 2 2 2 2 3 5 5 7 9 9 12 16 20 20 24 24 30 26 29 29 27 32 32 28 31 38 33 34 99 100 100 100 100
10 11 8 7 6 4 4 4 2 2 2 2 2 2 2 2 2 2 2 3 3 4 5 5 8 9 10 13 28 32 31 40 27 28 31 29 26 26 33 29 26 39 34 32 97 100 100 100 100
6 6 6 5 4 3 3 3 2 2 2 2 2 2 2 2 2 2 2 2 2 3 4 5 7 10 13 16 25 31 31 34 33 32 30 27 25 25 35 31 26 38 36 32 94 100 100 100 100
7 8 6 5 5 4 4 3 3 3 3 2 2 2 2 2 2 2 2 2 2 2 3 5 6 9 14 20 18 19 21 27 35 34 32 27 26 28 27 32 36 36 30 59 94 100 100 100 100
10 8 10 8 7 5 4 4 4 3 2 2 2 2 2 2 2 2 2 2 2 2 3 3 5 7 10 15 18 20 19 22 26 26 26 31 26 22 22 28 30 28 36 93 94 100 100 100 100
12 10 9 8 7 6 5 5 4 3 3 2 2 2 2 2 2 2 2 2 2 2 3 4 4 5 7 9 12 15 17 14 12 13 16 18 20 22 22 21 24 39 43 95 100 100 100 100 100
11 14 14 12 9 8 7 6 5 4 4 3 3 3 2 2 2 2 2 2 3 3 3 4 4 4 5 6 6 6 7 9 10 13 14 18 17 16 20 29 37 45 43 45 98 100 100 100 100
15 16 16 14 9 9 6 6 4 3 3 3 3 3 3 3 4 4 4 5 6 6 6 5 5 5 6 6 7 8 8 10 12 13 14 18 27 40 37 41 38 41 43 45 57 100 100 100 100
14 17 20 27 24 19 14 11 10 8 10 8 4 4 3 2 2 3 4 5 8 12 12 12 10 9 9 9 10 11 12 13 14 22 33 48 56 72 58 89 100 99 93 96 100 100 100 100 100
29 20 36 45 39 34 34 29 20 23 22 22 21 13 14 9 7 4 4 3 12 20 22 21 22 23 17 21 26 33 29 31 38 41 46 60 69 88 100 100 100 100 100 100 100 100 100 100 100

GFSSGP_250_rhum_117.txt.gz
RH
42 40 37 35 34 35 37 41 46 46 32 28 22 26 25 23 22 21 19 15 16 19 25 40 51 67 77 59 73 83 58 45 38 36 36 40 39 40 34 36 36 36 38 42 45 42 36 36 34
56 44 48 42 39 44 44 39 39 47 37 31 26 26 34 35 28 23 22 17 17 18 20 30 34 45 84 80 85 80 77 75 46 58 53 43 43 42 41 37 39 37 39 44 50 46 44 43 40
77 76 54 54 46 44 38 38 33 40 39 34 31 29 32 45 44 33 24 20 17 16 18 21 25 46 83 81 88 83 79 79 77 78 82 59 50 46 43 45 43 44 44 44 49 58 56 55 56
98 88 68 56 62 52 43 32 36 28 36 37 32 37 34 37 38 40 33 27 20 16 16 17 24 42 75 72 86 82 77 78 74 81 98 82 70 55 49 51 47 46 48 50 52 53 57 63 62
100 100 81 71 70 54 52 43 38 35 36 36 30 36 41 39 35 39 36 32 23 22 21 21 17 18 53 90 81 88 92 79 68 66 64 87 88 82 72 69 55 50 48 53 56 58 56 57 57
57 100 100 88 83 79 70 58 62 54 39 42 43 34 38 40 40 41 37 32 26 28 46 78 26 20 21 22 42 58 66 71 71 64 63 59 75 80 74 86 66 54 53 50 58 64 65 62 60
45 61 74 100 100 100 94 74 58 69 65 34 38 45 41 39 48 43 40 38 31 28 46 100 100 53 28 33 24 20 32 36 60 65 62 62 58 59 60 78 82 69 59 57 54 58 69 71 72
42 51 77 60 53 70 80 88 83 70 63 65 50 38 42 49 45 43 33 35 38 30 31 65 100 100 100 87 61 41 22 26 33 38 59 65 58 54 51 55 64 85 80 69 61 57 61 72 75
60 51 63 65 50 54 54 72 66 66 57 61 68 42 36 31 34 36 30 27 31 32 34 34 87 100 100 100 98 97 85 50 28 26 33 48 58 52 50 50 64 75 84 80 72 66 62 64 67
71 87 79 71 51 48 42 51 72 76 72 62 58 59 31 29 30 26 30 26 26 29 34 38 43 97 100 100 100 98 84 77 60 30 23 26 36 42 44 47 51 80 90 91 79 77 81 78 77
89 92 76 85 99 98 86 79 70 67 72 63 48 45 30 28 30 28 22 27 27 27 28 33 35 43 100 98 100 100 90 76 71 52 31 20 19 25 33 33 40 52 72 98 100 97 91 93 96
99 100 96 99 90 95 94 98 99 100 98 70 49 43 40 27 25 28 23 20 26 27 30 23 28 33 49 84 100 100 100 85 79 69 36 30 31 24 23 24 31 45 70 72 84 100 100 100 99
67 74 84 97 87 83 71 82 88 98 72 54 36 33 36 40 30 26 23 23 24 26 24 24 20 25 32 34 40 92 100 92 78 92 46 36 26 25 27 31 30 32 58 97 100 100 100 100 98
31 31 43 76 82 83 72 62 56 47 44 50 42 28 29 36 30 30 26 17 24 24 21 20 22 21 23 25 31 61 94 59 75 80 55 39 28 31 39 40 35 28 28 42 74 94 100 100 100
39 27 18 24 32 35 51 51 44 43 45 31 28 24 18 21 24 23 22 23 16 28 28 22 23 22 25 34 33 31 36 32 44 55 45 34 30 34 39 39 36 33 31 38 43 45 48 52 61
31 24 15 15 16 12 10 11 14 17 18 17 15 18 17 13 14 11 15 18 15 15 23 25 17 18 22 26 30 28 29 32 30 30 34 35 35 34 38 40 33 37 42 44 40 26 39 84 89
42 36 30 21 15 10 9 10 9 7 7 8 8 9 8 9 8 10 11 16 14 9 14 23 26 19 18 20 24 25 26 31 27 31 31 35 34 36 39 42 36 34 26 35 42 35 49 62 78
48 40 38 25 17 16 12 12 13 11 10 9 7 6 6 5 5 5 6 7 10 9 8 12 20 20 20 17 18 19 23 25 24 31 33 27 30 30 31 30 33 37 28 30 39 38 37 92 82
50 34 26 24 20 19 18 20 19 13 10 7 5 4 4 4 4 3 3 4 5 6 6 6 10 17 17 16 16 15 18 19 18 20 24 27 26 26 23 23 32 37 32 31 36 37 48 89 100
59 44 28 24 23 32 33 29 21 10 5 4 3 3 3 3 2 2 2 3 4 4 4 4 6 8 13 15 14 15 13 13 16 19 20 22 20 21 20 23 32 36 28 32 40 39 38 56 100
41 40 34 30 29 25 16 10 8 3 3 3 3 3 3 2 2 2 2 2 2 3 3 4 4 6 7 10 14 14 13 14 14 17 20 20 24 25 30 34 38 37 36 48 46 45 37 36 44
36 37 35 29 34 21 6 10 7 4 3 4 3 2 2 2 2 2 2 2 2 2 2 3 4 5 7 8 10 14 14 14 17 18 23 24 26 24 28 28 33 40 41 40 49 43 43 43 49
20 17 20 18 16 12 7 7 5 4 3 3 2 2 2 2 2 1 2 2 2 2 2 2 3 4 5 8 10 15 23 19 17 19 21 33 29 32 33 28 34 40 39 38 42 48 45 46 45
17 16 14 12 11 7 6 7 6 4 4 3 3 2 2 2 2 2 2 1 1 2 2 2 2 3 4 6 10 12 22 25 22 16 20 36 30 30 34 40 39 40 42 40 42 42 40 42 40
10 9 9 9 11 8 7 6 5 4 4 3 3 2 2 2 2 2 2 2 2 2 2 2 2 3 3 4 6 8 16 23 29 24 23 31 33 38 44 44 39 38 44 46 46 50 53 34 37
11 11 10 12 12 11 8 6 6 5 5 4 3 2 2 2 2 2 2 2 2 2 2 2 2 3 4 4 6 8 11 20 23 28 25 23 29 30 27 28 29 37 42 42 38 40 30 36 34
11 12 14 13 11 11 11 9 8 6 5 5 4 4 3 2 2 2 2 2 2 2 2 2 2 2 3 4 5 7 10 15 22 29 29 27 30 36 41 46 46 40 28 23 24 27 27 30 50
23 19 16 16 16 16 10 10 9 5 5 4 4 4 3 3 3 3 2 2 2 2 2 2 3 3 3 4 4 6 7 12 20 30 36 40 40 35 32 27 20 18 22 22 22 23 32 47 63
18 19 26 28 30 22 25 25 25 17 13 12 7 5 3 3 3 4 4 5 4 3 3 3 4 4 4 5 5 6 8 9 10 13 15 15 13 13 14 16 18 20 22 25 31 42 56 63 74
38 33 52 48 33 33 52 40 48 30 42 28 22 16 8 6 3 2 4 6 8 8 6 6 5 5 5 6 6 8 8 9 9 10 10 11 13 14 16 20 27 41 55 78 93 91 76 76 73